<?xml version="1.0" encoding="UTF-8"?>
<gpx version="1.1" creator="https://www.youtrack.es" xsi:schemaLocation="http://www.topografix.com/GPX/1/1 http://www.topografix.com/GPX/1/1/gpx.xsd http://www.garmin.com/xmlschemas/GpxExtensions/v3 http://www.garmin.com/xmlschemas/GpxExtensionsv3.xsd http://www.garmin.com/xmlschemas/TrackPointExtension/v1 http://www.garmin.com/xmlschemas/TrackPointExtensionv1.xsd" xmlns:gpxtpx="http://www.garmin.com/xmlschemas/TrackPointExtension/v1" xmlns:gpxx="http://www.garmin.com/xmlschemas/GpxExtensions/v3" xmlns:xsi="http://www.w3.org/2001/XMLSchema-instance">
  <metadata>
    <link href="https://www.youtrack.es">
      <text>YouTrack.es</text>
    </link>
    <time>2026-05-08T23:07:34Z</time>
  </metadata>
  <trk>
    <src>https://www.youtrack.es</src>
    <link href="https://www.youtrack.es/ruta/10627-vegas-de-matute">
      <text>YouTrack.es</text>
    </link>
    <trkseg>
      <trkpt lat="40.79458" lon="-4.27736">
        <ele>1024.508</ele>
        <time>2018-07-22T08:59:44Z</time>
      </trkpt>
      <trkpt lat="40.79463" lon="-4.27739">
        <ele>1024.026</ele>
        <time>2018-07-22T08:59:46Z</time>
      </trkpt>
      <trkpt lat="40.79498" lon="-4.27722">
        <ele>1020.531</ele>
        <time>2018-07-22T08:59:57Z</time>
      </trkpt>
      <trkpt lat="40.7952" lon="-4.27719">
        <ele>1019.534</ele>
        <time>2018-07-22T09:00:02Z</time>
      </trkpt>
      <trkpt lat="40.79529" lon="-4.27716">
        <ele>1019.021</ele>
        <time>2018-07-22T09:00:04Z</time>
      </trkpt>
      <trkpt lat="40.79575" lon="-4.27688">
        <ele>1017.459</ele>
        <time>2018-07-22T09:00:17Z</time>
      </trkpt>
      <trkpt lat="40.79593" lon="-4.2768">
        <ele>1017.454</ele>
        <time>2018-07-22T09:00:21Z</time>
      </trkpt>
      <trkpt lat="40.79606" lon="-4.27677">
        <ele>1017.468</ele>
        <time>2018-07-22T09:00:24Z</time>
      </trkpt>
      <trkpt lat="40.79611" lon="-4.27675">
        <ele>1017.217</ele>
        <time>2018-07-22T09:00:25Z</time>
      </trkpt>
      <trkpt lat="40.79619" lon="-4.27669">
        <ele>1017.263</ele>
        <time>2018-07-22T09:00:27Z</time>
      </trkpt>
      <trkpt lat="40.79626" lon="-4.27662">
        <ele>1016.744</ele>
        <time>2018-07-22T09:00:29Z</time>
      </trkpt>
      <trkpt lat="40.79659" lon="-4.27605">
        <ele>1016.018</ele>
        <time>2018-07-22T09:00:41Z</time>
      </trkpt>
      <trkpt lat="40.79681" lon="-4.27583">
        <ele>1016.508</ele>
        <time>2018-07-22T09:00:48Z</time>
      </trkpt>
      <trkpt lat="40.79706" lon="-4.2756">
        <ele>1018.448</ele>
        <time>2018-07-22T09:00:56Z</time>
      </trkpt>
      <trkpt lat="40.79748" lon="-4.27518">
        <ele>1020.213</ele>
        <time>2018-07-22T09:01:09Z</time>
      </trkpt>
      <trkpt lat="40.79791" lon="-4.27472">
        <ele>1021.726</ele>
        <time>2018-07-22T09:01:23Z</time>
      </trkpt>
      <trkpt lat="40.79821" lon="-4.27447">
        <ele>1022.243</ele>
        <time>2018-07-22T09:01:31Z</time>
      </trkpt>
      <trkpt lat="40.7986" lon="-4.27396">
        <ele>1024.061</ele>
        <time>2018-07-22T09:01:46Z</time>
      </trkpt>
      <trkpt lat="40.79899" lon="-4.2735">
        <ele>1027.526</ele>
        <time>2018-07-22T09:02:04Z</time>
      </trkpt>
      <trkpt lat="40.7993" lon="-4.27333">
        <ele>1029.570</ele>
        <time>2018-07-22T09:02:15Z</time>
      </trkpt>
      <trkpt lat="40.79978" lon="-4.27301">
        <ele>1034.199</ele>
        <time>2018-07-22T09:02:34Z</time>
      </trkpt>
      <trkpt lat="40.8001" lon="-4.27277">
        <ele>1037.568</ele>
        <time>2018-07-22T09:02:48Z</time>
      </trkpt>
      <trkpt lat="40.80061" lon="-4.27257">
        <ele>1041.042</ele>
        <time>2018-07-22T09:03:10Z</time>
      </trkpt>
      <trkpt lat="40.80115" lon="-4.27259">
        <ele>1045.026</ele>
        <time>2018-07-22T09:03:31Z</time>
      </trkpt>
      <trkpt lat="40.80168" lon="-4.27242">
        <ele>1047.108</ele>
        <time>2018-07-22T09:03:50Z</time>
      </trkpt>
      <trkpt lat="40.80218" lon="-4.2721">
        <ele>1046.448</ele>
        <time>2018-07-22T09:04:08Z</time>
      </trkpt>
      <trkpt lat="40.80274" lon="-4.27204">
        <ele>1048.873</ele>
        <time>2018-07-22T09:04:26Z</time>
      </trkpt>
      <trkpt lat="40.80312" lon="-4.27205">
        <ele>1048.536</ele>
        <time>2018-07-22T09:04:37Z</time>
      </trkpt>
      <trkpt lat="40.80338" lon="-4.27206">
        <ele>1047.053</ele>
        <time>2018-07-22T09:04:43Z</time>
      </trkpt>
      <trkpt lat="40.80393" lon="-4.27182">
        <ele>1043.081</ele>
        <time>2018-07-22T09:04:51Z</time>
      </trkpt>
      <trkpt lat="40.804" lon="-4.27177">
        <ele>1042.576</ele>
        <time>2018-07-22T09:04:52Z</time>
      </trkpt>
      <trkpt lat="40.80422" lon="-4.27156">
        <ele>1040.580</ele>
        <time>2018-07-22T09:04:56Z</time>
      </trkpt>
      <trkpt lat="40.80437" lon="-4.27144">
        <ele>1038.529</ele>
        <time>2018-07-22T09:04:59Z</time>
      </trkpt>
      <trkpt lat="40.80485" lon="-4.27117">
        <ele>1035.019</ele>
        <time>2018-07-22T09:05:06Z</time>
      </trkpt>
      <trkpt lat="40.8051" lon="-4.2711">
        <ele>1033.809</ele>
        <time>2018-07-22T09:05:09Z</time>
      </trkpt>
      <trkpt lat="40.80533" lon="-4.27107">
        <ele>1033.119</ele>
        <time>2018-07-22T09:05:12Z</time>
      </trkpt>
      <trkpt lat="40.80547" lon="-4.27099">
        <ele>1032.108</ele>
        <time>2018-07-22T09:05:14Z</time>
      </trkpt>
      <trkpt lat="40.80558" lon="-4.27086">
        <ele>1031.893</ele>
        <time>2018-07-22T09:05:16Z</time>
      </trkpt>
      <trkpt lat="40.80568" lon="-4.27073">
        <ele>1031.158</ele>
        <time>2018-07-22T09:05:18Z</time>
      </trkpt>
      <trkpt lat="40.80581" lon="-4.27064">
        <ele>1029.451</ele>
        <time>2018-07-22T09:05:20Z</time>
      </trkpt>
      <trkpt lat="40.80631" lon="-4.27035">
        <ele>1025.838</ele>
        <time>2018-07-22T09:05:27Z</time>
      </trkpt>
      <trkpt lat="40.80646" lon="-4.27026">
        <ele>1025.026</ele>
        <time>2018-07-22T09:05:29Z</time>
      </trkpt>
      <trkpt lat="40.80688" lon="-4.26993">
        <ele>1018.751</ele>
        <time>2018-07-22T09:05:35Z</time>
      </trkpt>
      <trkpt lat="40.80743" lon="-4.26955">
        <ele>1013.475</ele>
        <time>2018-07-22T09:05:42Z</time>
      </trkpt>
      <trkpt lat="40.80759" lon="-4.26945">
        <ele>1012.524</ele>
        <time>2018-07-22T09:05:44Z</time>
      </trkpt>
      <trkpt lat="40.80785" lon="-4.26936">
        <ele>1010.558</ele>
        <time>2018-07-22T09:05:47Z</time>
      </trkpt>
      <trkpt lat="40.80802" lon="-4.26926">
        <ele>1009.252</ele>
        <time>2018-07-22T09:05:49Z</time>
      </trkpt>
      <trkpt lat="40.80837" lon="-4.26895">
        <ele>1006.217</ele>
        <time>2018-07-22T09:05:54Z</time>
      </trkpt>
      <trkpt lat="40.80887" lon="-4.26851">
        <ele>1002.508</ele>
        <time>2018-07-22T09:06:02Z</time>
      </trkpt>
      <trkpt lat="40.80942" lon="-4.26827">
        <ele>997.547</ele>
        <time>2018-07-22T09:06:09Z</time>
      </trkpt>
      <trkpt lat="40.80986" lon="-4.26805">
        <ele>991.582</ele>
        <time>2018-07-22T09:06:15Z</time>
      </trkpt>
      <trkpt lat="40.81032" lon="-4.26792">
        <ele>986.255</ele>
        <time>2018-07-22T09:06:21Z</time>
      </trkpt>
      <trkpt lat="40.81046" lon="-4.26787">
        <ele>984.452</ele>
        <time>2018-07-22T09:06:23Z</time>
      </trkpt>
      <trkpt lat="40.81059" lon="-4.26787">
        <ele>983.280</ele>
        <time>2018-07-22T09:06:25Z</time>
      </trkpt>
      <trkpt lat="40.8108" lon="-4.26789">
        <ele>979.015</ele>
        <time>2018-07-22T09:06:30Z</time>
      </trkpt>
      <trkpt lat="40.81088" lon="-4.2678">
        <ele>977.299</ele>
        <time>2018-07-22T09:06:32Z</time>
      </trkpt>
      <trkpt lat="40.811" lon="-4.26761">
        <ele>974.498</ele>
        <time>2018-07-22T09:06:35Z</time>
      </trkpt>
      <trkpt lat="40.81112" lon="-4.26753">
        <ele>972.795</ele>
        <time>2018-07-22T09:06:37Z</time>
      </trkpt>
      <trkpt lat="40.81134" lon="-4.26747">
        <ele>970.549</ele>
        <time>2018-07-22T09:06:40Z</time>
      </trkpt>
      <trkpt lat="40.81149" lon="-4.26739">
        <ele>969.223</ele>
        <time>2018-07-22T09:06:42Z</time>
      </trkpt>
      <trkpt lat="40.81168" lon="-4.26719">
        <ele>967.408</ele>
        <time>2018-07-22T09:06:45Z</time>
      </trkpt>
      <trkpt lat="40.81203" lon="-4.26674">
        <ele>963.211</ele>
        <time>2018-07-22T09:06:51Z</time>
      </trkpt>
      <trkpt lat="40.81215" lon="-4.26668">
        <ele>962.046</ele>
        <time>2018-07-22T09:06:53Z</time>
      </trkpt>
      <trkpt lat="40.81227" lon="-4.26662">
        <ele>961.029</ele>
        <time>2018-07-22T09:06:55Z</time>
      </trkpt>
      <trkpt lat="40.81241" lon="-4.26646">
        <ele>958.546</ele>
        <time>2018-07-22T09:07:01Z</time>
      </trkpt>
      <trkpt lat="40.81241" lon="-4.26645">
        <ele>958.234</ele>
        <time>2018-07-22T09:07:02Z</time>
      </trkpt>
      <trkpt lat="40.81248" lon="-4.26641">
        <ele>961.789</ele>
        <time>2018-07-22T09:20:20Z</time>
      </trkpt>
      <trkpt lat="40.81249" lon="-4.26641">
        <ele>961.723</ele>
        <time>2018-07-22T09:20:21Z</time>
      </trkpt>
      <trkpt lat="40.81251" lon="-4.2664">
        <ele>962.522</ele>
        <time>2018-07-22T09:20:23Z</time>
      </trkpt>
      <trkpt lat="40.81254" lon="-4.26639">
        <ele>963.539</ele>
        <time>2018-07-22T09:20:28Z</time>
      </trkpt>
      <trkpt lat="40.81254" lon="-4.26639">
        <ele>963.701</ele>
        <time>2018-07-22T09:20:30Z</time>
      </trkpt>
      <trkpt lat="40.81264" lon="-4.26633">
        <ele>965.221</ele>
        <time>2018-07-22T09:20:52Z</time>
      </trkpt>
      <trkpt lat="40.81271" lon="-4.26631">
        <ele>965.508</ele>
        <time>2018-07-22T09:20:55Z</time>
      </trkpt>
      <trkpt lat="40.81286" lon="-4.26622">
        <ele>966.415</ele>
        <time>2018-07-22T09:21:00Z</time>
      </trkpt>
      <trkpt lat="40.81296" lon="-4.26615">
        <ele>966.730</ele>
        <time>2018-07-22T09:21:03Z</time>
      </trkpt>
      <trkpt lat="40.81303" lon="-4.2661">
        <ele>967.273</ele>
        <time>2018-07-22T09:21:05Z</time>
      </trkpt>
      <trkpt lat="40.81306" lon="-4.26608">
        <ele>967.470</ele>
        <time>2018-07-22T09:21:06Z</time>
      </trkpt>
      <trkpt lat="40.81338" lon="-4.26582">
        <ele>972.0</ele>
        <time>2018-12-27T09:38:33Z</time>
      </trkpt>
      <trkpt lat="40.81335" lon="-4.26587">
        <ele>972.0</ele>
        <time>2018-12-27T09:39:22Z</time>
      </trkpt>
      <trkpt lat="40.81335" lon="-4.26589">
        <ele>972.0</ele>
        <time>2018-12-27T09:39:34Z</time>
      </trkpt>
      <trkpt lat="40.81333" lon="-4.26592">
        <ele>973.0</ele>
        <time>2018-12-27T09:39:41Z</time>
      </trkpt>
      <trkpt lat="40.81331" lon="-4.266">
        <ele>973.0</ele>
        <time>2018-12-27T09:39:48Z</time>
      </trkpt>
      <trkpt lat="40.81331" lon="-4.26607">
        <ele>972.0</ele>
        <time>2018-12-27T09:39:55Z</time>
      </trkpt>
      <trkpt lat="40.81331" lon="-4.26616">
        <ele>974.0</ele>
        <time>2018-12-27T09:40:02Z</time>
      </trkpt>
      <trkpt lat="40.81329" lon="-4.26624">
        <ele>977.0</ele>
        <time>2018-12-27T09:40:09Z</time>
      </trkpt>
      <trkpt lat="40.81327" lon="-4.26634">
        <ele>979.0</ele>
        <time>2018-12-27T09:40:16Z</time>
      </trkpt>
      <trkpt lat="40.81328" lon="-4.26643">
        <ele>980.0</ele>
        <time>2018-12-27T09:40:23Z</time>
      </trkpt>
      <trkpt lat="40.81329" lon="-4.26651">
        <ele>982.0</ele>
        <time>2018-12-27T09:40:30Z</time>
      </trkpt>
      <trkpt lat="40.81328" lon="-4.26652">
        <ele>982.0</ele>
        <time>2018-12-27T09:40:37Z</time>
      </trkpt>
      <trkpt lat="40.81328" lon="-4.26654">
        <ele>982.0</ele>
        <time>2018-12-27T09:40:46Z</time>
      </trkpt>
      <trkpt lat="40.8133" lon="-4.26659">
        <ele>980.0</ele>
        <time>2018-12-27T09:40:56Z</time>
      </trkpt>
      <trkpt lat="40.81333" lon="-4.26666">
        <ele>981.0</ele>
        <time>2018-12-27T09:41:03Z</time>
      </trkpt>
      <trkpt lat="40.81338" lon="-4.26672">
        <ele>981.0</ele>
        <time>2018-12-27T09:41:09Z</time>
      </trkpt>
      <trkpt lat="40.81341" lon="-4.26681">
        <ele>983.0</ele>
        <time>2018-12-27T09:41:15Z</time>
      </trkpt>
      <trkpt lat="40.81343" lon="-4.2669">
        <ele>982.0</ele>
        <time>2018-12-27T09:41:22Z</time>
      </trkpt>
      <trkpt lat="40.81345" lon="-4.26697">
        <ele>983.0</ele>
        <time>2018-12-27T09:41:29Z</time>
      </trkpt>
      <trkpt lat="40.8135" lon="-4.26706">
        <ele>985.0</ele>
        <time>2018-12-27T09:41:35Z</time>
      </trkpt>
      <trkpt lat="40.81356" lon="-4.26715">
        <ele>988.0</ele>
        <time>2018-12-27T09:41:40Z</time>
      </trkpt>
      <trkpt lat="40.81361" lon="-4.26722">
        <ele>989.0</ele>
        <time>2018-12-27T09:41:45Z</time>
      </trkpt>
      <trkpt lat="40.81364" lon="-4.26731">
        <ele>990.0</ele>
        <time>2018-12-27T09:41:49Z</time>
      </trkpt>
      <trkpt lat="40.81365" lon="-4.26742">
        <ele>992.0</ele>
        <time>2018-12-27T09:41:54Z</time>
      </trkpt>
      <trkpt lat="40.81364" lon="-4.26754">
        <ele>991.0</ele>
        <time>2018-12-27T09:41:58Z</time>
      </trkpt>
      <trkpt lat="40.81364" lon="-4.26766">
        <ele>991.0</ele>
        <time>2018-12-27T09:42:02Z</time>
      </trkpt>
      <trkpt lat="40.81364" lon="-4.26776">
        <ele>992.0</ele>
        <time>2018-12-27T09:42:06Z</time>
      </trkpt>
      <trkpt lat="40.81362" lon="-4.26786">
        <ele>991.0</ele>
        <time>2018-12-27T09:42:10Z</time>
      </trkpt>
      <trkpt lat="40.81359" lon="-4.26796">
        <ele>991.0</ele>
        <time>2018-12-27T09:42:14Z</time>
      </trkpt>
      <trkpt lat="40.81359" lon="-4.26806">
        <ele>992.0</ele>
        <time>2018-12-27T09:42:17Z</time>
      </trkpt>
      <trkpt lat="40.81361" lon="-4.26819">
        <ele>991.0</ele>
        <time>2018-12-27T09:42:20Z</time>
      </trkpt>
      <trkpt lat="40.81364" lon="-4.26828">
        <ele>991.0</ele>
        <time>2018-12-27T09:42:22Z</time>
      </trkpt>
      <trkpt lat="40.81368" lon="-4.26837">
        <ele>990.0</ele>
        <time>2018-12-27T09:42:24Z</time>
      </trkpt>
      <trkpt lat="40.81372" lon="-4.26846">
        <ele>990.0</ele>
        <time>2018-12-27T09:42:26Z</time>
      </trkpt>
      <trkpt lat="40.81376" lon="-4.26855">
        <ele>990.0</ele>
        <time>2018-12-27T09:42:28Z</time>
      </trkpt>
      <trkpt lat="40.8138" lon="-4.26864">
        <ele>990.0</ele>
        <time>2018-12-27T09:42:30Z</time>
      </trkpt>
      <trkpt lat="40.81384" lon="-4.26876">
        <ele>989.0</ele>
        <time>2018-12-27T09:42:32Z</time>
      </trkpt>
      <trkpt lat="40.81387" lon="-4.26888">
        <ele>989.0</ele>
        <time>2018-12-27T09:42:34Z</time>
      </trkpt>
      <trkpt lat="40.8139" lon="-4.26899">
        <ele>988.0</ele>
        <time>2018-12-27T09:42:36Z</time>
      </trkpt>
      <trkpt lat="40.81391" lon="-4.26909">
        <ele>989.0</ele>
        <time>2018-12-27T09:42:39Z</time>
      </trkpt>
      <trkpt lat="40.81382" lon="-4.26914">
        <ele>987.0</ele>
        <time>2018-12-27T09:42:43Z</time>
      </trkpt>
      <trkpt lat="40.81375" lon="-4.26915">
        <ele>985.0</ele>
        <time>2018-12-27T09:42:45Z</time>
      </trkpt>
      <trkpt lat="40.81366" lon="-4.26917">
        <ele>984.0</ele>
        <time>2018-12-27T09:42:47Z</time>
      </trkpt>
      <trkpt lat="40.81357" lon="-4.2692">
        <ele>982.0</ele>
        <time>2018-12-27T09:42:50Z</time>
      </trkpt>
      <trkpt lat="40.81352" lon="-4.26915">
        <ele>982.0</ele>
        <time>2018-12-27T09:42:57Z</time>
      </trkpt>
      <trkpt lat="40.81353" lon="-4.26912">
        <ele>982.0</ele>
        <time>2018-12-27T09:43:18Z</time>
      </trkpt>
      <trkpt lat="40.81351" lon="-4.26914">
        <ele>986.0</ele>
        <time>2018-12-27T09:43:46Z</time>
      </trkpt>
      <trkpt lat="40.8135" lon="-4.26917">
        <ele>985.0</ele>
        <time>2018-12-27T09:43:53Z</time>
      </trkpt>
      <trkpt lat="40.81349" lon="-4.26917">
        <ele>984.0</ele>
        <time>2018-12-27T09:44:00Z</time>
      </trkpt>
      <trkpt lat="40.81348" lon="-4.26916">
        <ele>984.0</ele>
        <time>2018-12-27T09:44:08Z</time>
      </trkpt>
      <trkpt lat="40.81342" lon="-4.26913">
        <ele>981.0</ele>
        <time>2018-12-27T09:43:37Z</time>
      </trkpt>
      <trkpt lat="40.81338" lon="-4.2691">
        <ele>981.0</ele>
        <time>2018-12-27T09:44:50Z</time>
      </trkpt>
      <trkpt lat="40.81332" lon="-4.26911">
        <ele>982.0</ele>
        <time>2018-12-27T09:45:26Z</time>
      </trkpt>
      <trkpt lat="40.8133" lon="-4.26913">
        <ele>980.0</ele>
        <time>2018-12-27T09:45:33Z</time>
      </trkpt>
      <trkpt lat="40.81329" lon="-4.26911">
        <ele>984.0</ele>
        <time>2018-12-27T09:46:51Z</time>
      </trkpt>
      <trkpt lat="40.81326" lon="-4.26917">
        <ele>979.0</ele>
        <time>2018-12-27T09:49:04Z</time>
      </trkpt>
      <trkpt lat="40.81328" lon="-4.26917">
        <ele>976.0</ele>
        <time>2018-12-27T09:49:23Z</time>
      </trkpt>
      <trkpt lat="40.8133" lon="-4.26912">
        <ele>977.0</ele>
        <time>2018-12-27T09:49:30Z</time>
      </trkpt>
      <trkpt lat="40.81334" lon="-4.26913">
        <ele>978.0</ele>
        <time>2018-12-27T09:52:55Z</time>
      </trkpt>
      <trkpt lat="40.81338" lon="-4.26917">
        <ele>978.0</ele>
        <time>2018-12-27T09:53:02Z</time>
      </trkpt>
      <trkpt lat="40.81342" lon="-4.26916">
        <ele>981.0</ele>
        <time>2018-12-27T09:53:09Z</time>
      </trkpt>
      <trkpt lat="40.81344" lon="-4.26919">
        <ele>985.0</ele>
        <time>2018-12-27T09:53:16Z</time>
      </trkpt>
      <trkpt lat="40.81344" lon="-4.26922">
        <ele>983.0</ele>
        <time>2018-12-27T09:53:23Z</time>
      </trkpt>
      <trkpt lat="40.81344" lon="-4.26916">
        <ele>984.0</ele>
        <time>2018-12-27T09:53:42Z</time>
      </trkpt>
      <trkpt lat="40.81347" lon="-4.26917">
        <ele>980.0</ele>
        <time>2018-12-27T09:53:49Z</time>
      </trkpt>
      <trkpt lat="40.81352" lon="-4.26912">
        <ele>977.0</ele>
        <time>2018-12-27T09:54:53Z</time>
      </trkpt>
      <trkpt lat="40.8135" lon="-4.2691">
        <ele>980.0</ele>
        <time>2018-12-27T09:55:00Z</time>
      </trkpt>
      <trkpt lat="40.81352" lon="-4.26914">
        <ele>983.0</ele>
        <time>2018-12-27T09:56:46Z</time>
      </trkpt>
      <trkpt lat="40.81354" lon="-4.26918">
        <ele>984.0</ele>
        <time>2018-12-27T09:57:06Z</time>
      </trkpt>
      <trkpt lat="40.81358" lon="-4.26919">
        <ele>985.0</ele>
        <time>2018-12-27T09:57:13Z</time>
      </trkpt>
      <trkpt lat="40.81364" lon="-4.26917">
        <ele>984.0</ele>
        <time>2018-12-27T09:57:20Z</time>
      </trkpt>
      <trkpt lat="40.8137" lon="-4.26914">
        <ele>985.0</ele>
        <time>2018-12-27T09:57:27Z</time>
      </trkpt>
      <trkpt lat="40.81377" lon="-4.26913">
        <ele>985.0</ele>
        <time>2018-12-27T09:57:34Z</time>
      </trkpt>
      <trkpt lat="40.81383" lon="-4.26912">
        <ele>986.0</ele>
        <time>2018-12-27T09:57:41Z</time>
      </trkpt>
      <trkpt lat="40.81389" lon="-4.26911">
        <ele>987.0</ele>
        <time>2018-12-27T09:57:48Z</time>
      </trkpt>
      <trkpt lat="40.81391" lon="-4.26904">
        <ele>987.0</ele>
        <time>2018-12-27T09:57:55Z</time>
      </trkpt>
      <trkpt lat="40.81391" lon="-4.26897">
        <ele>988.0</ele>
        <time>2018-12-27T09:58:02Z</time>
      </trkpt>
      <trkpt lat="40.81387" lon="-4.26888">
        <ele>988.0</ele>
        <time>2018-12-27T09:58:07Z</time>
      </trkpt>
      <trkpt lat="40.81383" lon="-4.26877">
        <ele>989.0</ele>
        <time>2018-12-27T09:58:11Z</time>
      </trkpt>
      <trkpt lat="40.81379" lon="-4.26866">
        <ele>989.0</ele>
        <time>2018-12-27T09:58:15Z</time>
      </trkpt>
      <trkpt lat="40.81375" lon="-4.26856">
        <ele>990.0</ele>
        <time>2018-12-27T09:58:19Z</time>
      </trkpt>
      <trkpt lat="40.8137" lon="-4.26847">
        <ele>990.0</ele>
        <time>2018-12-27T09:58:22Z</time>
      </trkpt>
      <trkpt lat="40.81367" lon="-4.26838">
        <ele>990.0</ele>
        <time>2018-12-27T09:58:25Z</time>
      </trkpt>
      <trkpt lat="40.81363" lon="-4.26829">
        <ele>990.0</ele>
        <time>2018-12-27T09:58:28Z</time>
      </trkpt>
      <trkpt lat="40.8136" lon="-4.26819">
        <ele>992.0</ele>
        <time>2018-12-27T09:58:31Z</time>
      </trkpt>
      <trkpt lat="40.81357" lon="-4.2681">
        <ele>992.0</ele>
        <time>2018-12-27T09:58:34Z</time>
      </trkpt>
      <trkpt lat="40.81355" lon="-4.26798">
        <ele>993.0</ele>
        <time>2018-12-27T09:58:38Z</time>
      </trkpt>
      <trkpt lat="40.81357" lon="-4.26786">
        <ele>991.0</ele>
        <time>2018-12-27T09:58:42Z</time>
      </trkpt>
      <trkpt lat="40.81361" lon="-4.26776">
        <ele>991.0</ele>
        <time>2018-12-27T09:58:45Z</time>
      </trkpt>
      <trkpt lat="40.81362" lon="-4.26761">
        <ele>990.0</ele>
        <time>2018-12-27T09:58:48Z</time>
      </trkpt>
      <trkpt lat="40.81364" lon="-4.2675">
        <ele>989.0</ele>
        <time>2018-12-27T09:58:50Z</time>
      </trkpt>
      <trkpt lat="40.81364" lon="-4.2674">
        <ele>989.0</ele>
        <time>2018-12-27T09:58:52Z</time>
      </trkpt>
      <trkpt lat="40.81361" lon="-4.26729">
        <ele>988.0</ele>
        <time>2018-12-27T09:58:54Z</time>
      </trkpt>
      <trkpt lat="40.81358" lon="-4.26719">
        <ele>988.0</ele>
        <time>2018-12-27T09:58:56Z</time>
      </trkpt>
      <trkpt lat="40.81351" lon="-4.26711">
        <ele>988.0</ele>
        <time>2018-12-27T09:58:58Z</time>
      </trkpt>
      <trkpt lat="40.81346" lon="-4.26697">
        <ele>986.0</ele>
        <time>2018-12-27T09:59:00Z</time>
      </trkpt>
      <trkpt lat="40.81342" lon="-4.26683">
        <ele>983.0</ele>
        <time>2018-12-27T09:59:02Z</time>
      </trkpt>
      <trkpt lat="40.81335" lon="-4.26669">
        <ele>981.0</ele>
        <time>2018-12-27T09:59:04Z</time>
      </trkpt>
      <trkpt lat="40.81328" lon="-4.26655">
        <ele>980.0</ele>
        <time>2018-12-27T09:59:06Z</time>
      </trkpt>
      <trkpt lat="40.81326" lon="-4.26644">
        <ele>978.0</ele>
        <time>2018-12-27T09:59:07Z</time>
      </trkpt>
      <trkpt lat="40.81325" lon="-4.26629">
        <ele>977.0</ele>
        <time>2018-12-27T09:59:09Z</time>
      </trkpt>
      <trkpt lat="40.81329" lon="-4.26615">
        <ele>972.0</ele>
        <time>2018-12-27T09:59:11Z</time>
      </trkpt>
      <trkpt lat="40.81332" lon="-4.26599">
        <ele>972.0</ele>
        <time>2018-12-27T09:59:13Z</time>
      </trkpt>
      <trkpt lat="40.81336" lon="-4.26588">
        <ele>969.0</ele>
        <time>2018-12-27T09:59:16Z</time>
      </trkpt>
      <trkpt lat="40.81335" lon="-4.26585">
        <ele>971.0</ele>
        <time>2018-12-27T09:59:23Z</time>
      </trkpt>
      <trkpt lat="40.81306" lon="-4.26608">
        <ele>967.470</ele>
        <time>2018-07-22T09:21:06Z</time>
      </trkpt>
      <trkpt lat="40.81329" lon="-4.26589">
        <ele>969.268</ele>
        <time>2018-07-22T09:21:13Z</time>
      </trkpt>
      <trkpt lat="40.81368" lon="-4.26542">
        <ele>971.523</ele>
        <time>2018-07-22T09:21:26Z</time>
      </trkpt>
      <trkpt lat="40.81401" lon="-4.26502">
        <ele>974.237</ele>
        <time>2018-07-22T09:21:38Z</time>
      </trkpt>
      <trkpt lat="40.81441" lon="-4.26454">
        <ele>977.426</ele>
        <time>2018-07-22T09:21:52Z</time>
      </trkpt>
      <trkpt lat="40.81461" lon="-4.26431">
        <ele>977.762</ele>
        <time>2018-07-22T09:21:58Z</time>
      </trkpt>
      <trkpt lat="40.8151" lon="-4.26391">
        <ele>979.583</ele>
        <time>2018-07-22T09:22:11Z</time>
      </trkpt>
      <trkpt lat="40.81559" lon="-4.26352">
        <ele>982.411</ele>
        <time>2018-07-22T09:22:25Z</time>
      </trkpt>
      <trkpt lat="40.81589" lon="-4.26316">
        <ele>983.708</ele>
        <time>2018-07-22T09:22:35Z</time>
      </trkpt>
      <trkpt lat="40.81632" lon="-4.26272">
        <ele>986.788</ele>
        <time>2018-07-22T09:22:48Z</time>
      </trkpt>
      <trkpt lat="40.81647" lon="-4.26261">
        <ele>988.013</ele>
        <time>2018-07-22T09:22:52Z</time>
      </trkpt>
      <trkpt lat="40.81663" lon="-4.26246">
        <ele>988.766</ele>
        <time>2018-07-22T09:22:57Z</time>
      </trkpt>
      <trkpt lat="40.81671" lon="-4.26237">
        <ele>988.783</ele>
        <time>2018-07-22T09:23:00Z</time>
      </trkpt>
      <trkpt lat="40.81684" lon="-4.26214">
        <ele>989.021</ele>
        <time>2018-07-22T09:23:06Z</time>
      </trkpt>
      <trkpt lat="40.81691" lon="-4.26179">
        <ele>988.436</ele>
        <time>2018-07-22T09:23:13Z</time>
      </trkpt>
      <trkpt lat="40.81692" lon="-4.26169">
        <ele>988.720</ele>
        <time>2018-07-22T09:23:15Z</time>
      </trkpt>
      <trkpt lat="40.81693" lon="-4.26164">
        <ele>988.789</ele>
        <time>2018-07-22T09:23:16Z</time>
      </trkpt>
      <trkpt lat="40.81693" lon="-4.26158">
        <ele>988.782</ele>
        <time>2018-07-22T09:23:17Z</time>
      </trkpt>
      <trkpt lat="40.81698" lon="-4.26144">
        <ele>989.243</ele>
        <time>2018-07-22T09:23:20Z</time>
      </trkpt>
      <trkpt lat="40.81705" lon="-4.26137">
        <ele>989.217</ele>
        <time>2018-07-22T09:23:22Z</time>
      </trkpt>
      <trkpt lat="40.81713" lon="-4.26134">
        <ele>989.408</ele>
        <time>2018-07-22T09:23:24Z</time>
      </trkpt>
      <trkpt lat="40.81722" lon="-4.26133">
        <ele>989.560</ele>
        <time>2018-07-22T09:23:26Z</time>
      </trkpt>
      <trkpt lat="40.81731" lon="-4.26123">
        <ele>989.445</ele>
        <time>2018-07-22T09:23:29Z</time>
      </trkpt>
      <trkpt lat="40.81729" lon="-4.26112">
        <ele>989.288</ele>
        <time>2018-07-22T09:23:31Z</time>
      </trkpt>
      <trkpt lat="40.81722" lon="-4.2608">
        <ele>987.785</ele>
        <time>2018-07-22T09:23:36Z</time>
      </trkpt>
      <trkpt lat="40.81724" lon="-4.26007">
        <ele>986.493</ele>
        <time>2018-07-22T09:23:47Z</time>
      </trkpt>
      <trkpt lat="40.81723" lon="-4.25935">
        <ele>989.518</ele>
        <time>2018-07-22T09:24:02Z</time>
      </trkpt>
      <trkpt lat="40.81728" lon="-4.25862">
        <ele>991.022</ele>
        <time>2018-07-22T09:24:18Z</time>
      </trkpt>
      <trkpt lat="40.81737" lon="-4.25843">
        <ele>990.751</ele>
        <time>2018-07-22T09:24:23Z</time>
      </trkpt>
      <trkpt lat="40.8174" lon="-4.2584">
        <ele>990.541</ele>
        <time>2018-07-22T09:24:24Z</time>
      </trkpt>
      <trkpt lat="40.81755" lon="-4.25819">
        <ele>990.081</ele>
        <time>2018-07-22T09:24:31Z</time>
      </trkpt>
      <trkpt lat="40.81748" lon="-4.25794">
        <ele>989.209</ele>
        <time>2018-07-22T09:24:36Z</time>
      </trkpt>
      <trkpt lat="40.81746" lon="-4.25783">
        <ele>988.508</ele>
        <time>2018-07-22T09:24:38Z</time>
      </trkpt>
      <trkpt lat="40.81745" lon="-4.25778">
        <ele>988.466</ele>
        <time>2018-07-22T09:24:39Z</time>
      </trkpt>
      <trkpt lat="40.81745" lon="-4.25773">
        <ele>988.221</ele>
        <time>2018-07-22T09:24:40Z</time>
      </trkpt>
      <trkpt lat="40.81745" lon="-4.25767">
        <ele>988.034</ele>
        <time>2018-07-22T09:24:41Z</time>
      </trkpt>
      <trkpt lat="40.81758" lon="-4.25731">
        <ele>986.281</ele>
        <time>2018-07-22T09:24:50Z</time>
      </trkpt>
      <trkpt lat="40.81787" lon="-4.25714">
        <ele>985.569</ele>
        <time>2018-07-22T09:24:58Z</time>
      </trkpt>
      <trkpt lat="40.81806" lon="-4.25714">
        <ele>984.524</ele>
        <time>2018-07-22T09:25:02Z</time>
      </trkpt>
      <trkpt lat="40.8183" lon="-4.2572">
        <ele>983.518</ele>
        <time>2018-07-22T09:25:06Z</time>
      </trkpt>
      <trkpt lat="40.81885" lon="-4.25724">
        <ele>982.487</ele>
        <time>2018-07-22T09:25:14Z</time>
      </trkpt>
      <trkpt lat="40.8192" lon="-4.25722">
        <ele>982.067</ele>
        <time>2018-07-22T09:25:19Z</time>
      </trkpt>
      <trkpt lat="40.81947" lon="-4.25723">
        <ele>982.581</ele>
        <time>2018-07-22T09:25:23Z</time>
      </trkpt>
      <trkpt lat="40.81984" lon="-4.25722">
        <ele>981.519</ele>
        <time>2018-07-22T09:25:29Z</time>
      </trkpt>
      <trkpt lat="40.81997" lon="-4.25717">
        <ele>981.408</ele>
        <time>2018-07-22T09:25:31Z</time>
      </trkpt>
      <trkpt lat="40.82013" lon="-4.25704">
        <ele>981.718</ele>
        <time>2018-07-22T09:25:34Z</time>
      </trkpt>
      <trkpt lat="40.82022" lon="-4.25693">
        <ele>981.773</ele>
        <time>2018-07-22T09:25:36Z</time>
      </trkpt>
      <trkpt lat="40.82053" lon="-4.25653">
        <ele>982.736</ele>
        <time>2018-07-22T09:25:44Z</time>
      </trkpt>
      <trkpt lat="40.82093" lon="-4.25602">
        <ele>985.523</ele>
        <time>2018-07-22T09:25:55Z</time>
      </trkpt>
      <trkpt lat="40.82114" lon="-4.25577">
        <ele>987.591</ele>
        <time>2018-07-22T09:26:01Z</time>
      </trkpt>
      <trkpt lat="40.82155" lon="-4.25527">
        <ele>990.766</ele>
        <time>2018-07-22T09:26:15Z</time>
      </trkpt>
      <trkpt lat="40.82166" lon="-4.25514">
        <ele>991.590</ele>
        <time>2018-07-22T09:26:19Z</time>
      </trkpt>
      <trkpt lat="40.8221" lon="-4.25468">
        <ele>994.279</ele>
        <time>2018-07-22T09:26:35Z</time>
      </trkpt>
      <trkpt lat="40.82254" lon="-4.25422">
        <ele>995.728</ele>
        <time>2018-07-22T09:26:50Z</time>
      </trkpt>
      <trkpt lat="40.82291" lon="-4.25385">
        <ele>995.289</ele>
        <time>2018-07-22T09:27:00Z</time>
      </trkpt>
      <trkpt lat="40.82295" lon="-4.25381">
        <ele>995.017</ele>
        <time>2018-07-22T09:27:01Z</time>
      </trkpt>
      <trkpt lat="40.82341" lon="-4.25333">
        <ele>994.008</ele>
        <time>2018-07-22T09:27:12Z</time>
      </trkpt>
      <trkpt lat="40.82388" lon="-4.25285">
        <ele>993.544</ele>
        <time>2018-07-22T09:27:23Z</time>
      </trkpt>
      <trkpt lat="40.82401" lon="-4.25272">
        <ele>993.589</ele>
        <time>2018-07-22T09:27:26Z</time>
      </trkpt>
      <trkpt lat="40.82419" lon="-4.25258">
        <ele>993.562</ele>
        <time>2018-07-22T09:27:30Z</time>
      </trkpt>
      <trkpt lat="40.82473" lon="-4.25254">
        <ele>992.439</ele>
        <time>2018-07-22T09:27:40Z</time>
      </trkpt>
      <trkpt lat="40.82525" lon="-4.25262">
        <ele>992.097</ele>
        <time>2018-07-22T09:27:50Z</time>
      </trkpt>
      <trkpt lat="40.82557" lon="-4.25266">
        <ele>992.512</ele>
        <time>2018-07-22T09:27:57Z</time>
      </trkpt>
      <trkpt lat="40.82566" lon="-4.25266">
        <ele>993.026</ele>
        <time>2018-07-22T09:27:59Z</time>
      </trkpt>
      <trkpt lat="40.82623" lon="-4.25263">
        <ele>994.235</ele>
        <time>2018-07-22T09:28:12Z</time>
      </trkpt>
      <trkpt lat="40.82635" lon="-4.25262">
        <ele>994.548</ele>
        <time>2018-07-22T09:28:15Z</time>
      </trkpt>
      <trkpt lat="40.8269" lon="-4.25259">
        <ele>997.061</ele>
        <time>2018-07-22T09:28:29Z</time>
      </trkpt>
      <trkpt lat="40.82732" lon="-4.25256">
        <ele>999.517</ele>
        <time>2018-07-22T09:28:41Z</time>
      </trkpt>
      <trkpt lat="40.82753" lon="-4.25255">
        <ele>1001.708</ele>
        <time>2018-07-22T09:28:49Z</time>
      </trkpt>
      <trkpt lat="40.82786" lon="-4.25252">
        <ele>1006.036</ele>
        <time>2018-07-22T09:29:01Z</time>
      </trkpt>
      <trkpt lat="40.82841" lon="-4.25252">
        <ele>1011.061</ele>
        <time>2018-07-22T09:29:23Z</time>
      </trkpt>
      <trkpt lat="40.82848" lon="-4.25253">
        <ele>1010.534</ele>
        <time>2018-07-22T09:29:26Z</time>
      </trkpt>
      <trkpt lat="40.82876" lon="-4.25258">
        <ele>1012.091</ele>
        <time>2018-07-22T09:29:39Z</time>
      </trkpt>
      <trkpt lat="40.82899" lon="-4.25265">
        <ele>1015.229</ele>
        <time>2018-07-22T09:29:50Z</time>
      </trkpt>
      <trkpt lat="40.82955" lon="-4.25279">
        <ele>1018.724</ele>
        <time>2018-07-22T09:30:11Z</time>
      </trkpt>
      <trkpt lat="40.8301" lon="-4.25285">
        <ele>1021.528</ele>
        <time>2018-07-22T09:30:30Z</time>
      </trkpt>
      <trkpt lat="40.83063" lon="-4.2528">
        <ele>1024.037</ele>
        <time>2018-07-22T09:30:50Z</time>
      </trkpt>
      <trkpt lat="40.83112" lon="-4.25251">
        <ele>1026.185</ele>
        <time>2018-07-22T09:31:09Z</time>
      </trkpt>
      <trkpt lat="40.83163" lon="-4.25222">
        <ele>1028.089</ele>
        <time>2018-07-22T09:31:28Z</time>
      </trkpt>
      <trkpt lat="40.83218" lon="-4.25216">
        <ele>1029.817</ele>
        <time>2018-07-22T09:31:46Z</time>
      </trkpt>
      <trkpt lat="40.83274" lon="-4.25217">
        <ele>1030.508</ele>
        <time>2018-07-22T09:32:05Z</time>
      </trkpt>
      <trkpt lat="40.8333" lon="-4.25211">
        <ele>1033.440</ele>
        <time>2018-07-22T09:32:22Z</time>
      </trkpt>
      <trkpt lat="40.83382" lon="-4.25181">
        <ele>1037.545</ele>
        <time>2018-07-22T09:32:41Z</time>
      </trkpt>
      <trkpt lat="40.83432" lon="-4.25152">
        <ele>1038.848</ele>
        <time>2018-07-22T09:32:58Z</time>
      </trkpt>
      <trkpt lat="40.83464" lon="-4.25133">
        <ele>1039.055</ele>
        <time>2018-07-22T09:33:08Z</time>
      </trkpt>
      <trkpt lat="40.83418" lon="-4.25084">
        <ele>1036.063</ele>
        <time>2018-07-22T09:33:20Z</time>
      </trkpt>
      <trkpt lat="40.83373" lon="-4.25041">
        <ele>1032.848</ele>
        <time>2018-07-22T09:33:29Z</time>
      </trkpt>
      <trkpt lat="40.83362" lon="-4.2503">
        <ele>1031.812</ele>
        <time>2018-07-22T09:33:31Z</time>
      </trkpt>
      <trkpt lat="40.8332" lon="-4.24982">
        <ele>1027.861</ele>
        <time>2018-07-22T09:33:38Z</time>
      </trkpt>
      <trkpt lat="40.83282" lon="-4.24935">
        <ele>1024.568</ele>
        <time>2018-07-22T09:33:44Z</time>
      </trkpt>
      <trkpt lat="40.83266" lon="-4.24909">
        <ele>1022.742</ele>
        <time>2018-07-22T09:33:47Z</time>
      </trkpt>
      <trkpt lat="40.83259" lon="-4.24889">
        <ele>1021.426</ele>
        <time>2018-07-22T09:33:49Z</time>
      </trkpt>
      <trkpt lat="40.83255" lon="-4.24867">
        <ele>1020.508</ele>
        <time>2018-07-22T09:33:51Z</time>
      </trkpt>
      <trkpt lat="40.83256" lon="-4.24826">
        <ele>1019.098</ele>
        <time>2018-07-22T09:33:55Z</time>
      </trkpt>
      <trkpt lat="40.83252" lon="-4.24812">
        <ele>1017.743</ele>
        <time>2018-07-22T09:33:57Z</time>
      </trkpt>
      <trkpt lat="40.83245" lon="-4.24797">
        <ele>1016.536</ele>
        <time>2018-07-22T09:34:00Z</time>
      </trkpt>
      <trkpt lat="40.83237" lon="-4.24781">
        <ele>1014.083</ele>
        <time>2018-07-22T09:34:03Z</time>
      </trkpt>
      <trkpt lat="40.83235" lon="-4.24766">
        <ele>1011.281</ele>
        <time>2018-07-22T09:34:06Z</time>
      </trkpt>
      <trkpt lat="40.83236" lon="-4.24754">
        <ele>1009.286</ele>
        <time>2018-07-22T09:34:08Z</time>
      </trkpt>
      <trkpt lat="40.8323" lon="-4.24739">
        <ele>1007.220</ele>
        <time>2018-07-22T09:34:10Z</time>
      </trkpt>
      <trkpt lat="40.83218" lon="-4.24729">
        <ele>1005.719</ele>
        <time>2018-07-22T09:34:12Z</time>
      </trkpt>
      <trkpt lat="40.83208" lon="-4.24724">
        <ele>1004.218</ele>
        <time>2018-07-22T09:34:14Z</time>
      </trkpt>
      <trkpt lat="40.83192" lon="-4.2472">
        <ele>1002.098</ele>
        <time>2018-07-22T09:34:17Z</time>
      </trkpt>
      <trkpt lat="40.83172" lon="-4.24713">
        <ele>999.417</ele>
        <time>2018-07-22T09:34:21Z</time>
      </trkpt>
      <trkpt lat="40.83152" lon="-4.24692">
        <ele>994.508</ele>
        <time>2018-07-22T09:34:30Z</time>
      </trkpt>
      <trkpt lat="40.83131" lon="-4.2466">
        <ele>993.233</ele>
        <time>2018-07-22T09:34:35Z</time>
      </trkpt>
      <trkpt lat="40.83088" lon="-4.24612">
        <ele>992.598</ele>
        <time>2018-07-22T09:34:43Z</time>
      </trkpt>
      <trkpt lat="40.83083" lon="-4.24607">
        <ele>992.481</ele>
        <time>2018-07-22T09:34:44Z</time>
      </trkpt>
      <trkpt lat="40.83079" lon="-4.24593">
        <ele>992.258</ele>
        <time>2018-07-22T09:34:46Z</time>
      </trkpt>
      <trkpt lat="40.83086" lon="-4.2458">
        <ele>992.256</ele>
        <time>2018-07-22T09:34:48Z</time>
      </trkpt>
      <trkpt lat="40.831" lon="-4.24563">
        <ele>992.551</ele>
        <time>2018-07-22T09:34:51Z</time>
      </trkpt>
      <trkpt lat="40.8312" lon="-4.24543">
        <ele>993.795</ele>
        <time>2018-07-22T09:34:55Z</time>
      </trkpt>
      <trkpt lat="40.83147" lon="-4.24501">
        <ele>995.284</ele>
        <time>2018-07-22T09:35:02Z</time>
      </trkpt>
      <trkpt lat="40.83167" lon="-4.24438">
        <ele>997.412</ele>
        <time>2018-07-22T09:35:12Z</time>
      </trkpt>
      <trkpt lat="40.83182" lon="-4.24405">
        <ele>997.732</ele>
        <time>2018-07-22T09:35:19Z</time>
      </trkpt>
      <trkpt lat="40.83189" lon="-4.24398">
        <ele>998.205</ele>
        <time>2018-07-22T09:35:21Z</time>
      </trkpt>
      <trkpt lat="40.83198" lon="-4.24396">
        <ele>998.708</ele>
        <time>2018-07-22T09:35:23Z</time>
      </trkpt>
      <trkpt lat="40.83246" lon="-4.24403">
        <ele>1000.563</ele>
        <time>2018-07-22T09:35:34Z</time>
      </trkpt>
      <trkpt lat="40.8326" lon="-4.24393">
        <ele>1001.438</ele>
        <time>2018-07-22T09:35:38Z</time>
      </trkpt>
      <trkpt lat="40.83293" lon="-4.24345">
        <ele>1002.211</ele>
        <time>2018-07-22T09:35:49Z</time>
      </trkpt>
      <trkpt lat="40.83307" lon="-4.24327">
        <ele>1002.218</ele>
        <time>2018-07-22T09:35:53Z</time>
      </trkpt>
      <trkpt lat="40.83332" lon="-4.24288">
        <ele>1002.276</ele>
        <time>2018-07-22T09:36:01Z</time>
      </trkpt>
      <trkpt lat="40.83352" lon="-4.24257">
        <ele>1003.571</ele>
        <time>2018-07-22T09:36:08Z</time>
      </trkpt>
      <trkpt lat="40.83372" lon="-4.24232">
        <ele>1004.435</ele>
        <time>2018-07-22T09:36:15Z</time>
      </trkpt>
      <trkpt lat="40.83402" lon="-4.2417">
        <ele>1004.734</ele>
        <time>2018-07-22T09:36:29Z</time>
      </trkpt>
      <trkpt lat="40.83407" lon="-4.24154">
        <ele>1004.755</ele>
        <time>2018-07-22T09:36:32Z</time>
      </trkpt>
      <trkpt lat="40.83408" lon="-4.24143">
        <ele>1005.007</ele>
        <time>2018-07-22T09:36:34Z</time>
      </trkpt>
      <trkpt lat="40.83406" lon="-4.24121">
        <ele>1005.017</ele>
        <time>2018-07-22T09:36:38Z</time>
      </trkpt>
      <trkpt lat="40.83402" lon="-4.2411">
        <ele>1005.008</ele>
        <time>2018-07-22T09:36:40Z</time>
      </trkpt>
      <trkpt lat="40.83395" lon="-4.24087">
        <ele>1005.447</ele>
        <time>2018-07-22T09:36:44Z</time>
      </trkpt>
      <trkpt lat="40.83391" lon="-4.24062">
        <ele>1005.592</ele>
        <time>2018-07-22T09:36:48Z</time>
      </trkpt>
      <trkpt lat="40.83391" lon="-4.24056">
        <ele>1005.595</ele>
        <time>2018-07-22T09:36:49Z</time>
      </trkpt>
      <trkpt lat="40.83395" lon="-4.24008">
        <ele>1006.042</ele>
        <time>2018-07-22T09:36:57Z</time>
      </trkpt>
      <trkpt lat="40.83395" lon="-4.23968">
        <ele>1006.490</ele>
        <time>2018-07-22T09:37:04Z</time>
      </trkpt>
      <trkpt lat="40.83399" lon="-4.23905">
        <ele>1006.245</ele>
        <time>2018-07-22T09:37:15Z</time>
      </trkpt>
      <trkpt lat="40.83419" lon="-4.23839">
        <ele>1006.749</ele>
        <time>2018-07-22T09:37:27Z</time>
      </trkpt>
      <trkpt lat="40.83441" lon="-4.23768">
        <ele>1007.448</ele>
        <time>2018-07-22T09:37:40Z</time>
      </trkpt>
      <trkpt lat="40.83453" lon="-4.23706">
        <ele>1008.014</ele>
        <time>2018-07-22T09:37:51Z</time>
      </trkpt>
      <trkpt lat="40.83454" lon="-4.23701">
        <ele>1008.054</ele>
        <time>2018-07-22T09:37:52Z</time>
      </trkpt>
      <trkpt lat="40.83469" lon="-4.23641">
        <ele>1008.709</ele>
        <time>2018-07-22T09:38:03Z</time>
      </trkpt>
      <trkpt lat="40.83478" lon="-4.23615">
        <ele>1009.408</ele>
        <time>2018-07-22T09:38:08Z</time>
      </trkpt>
      <trkpt lat="40.83499" lon="-4.2355">
        <ele>1010.583</ele>
        <time>2018-07-22T09:38:21Z</time>
      </trkpt>
      <trkpt lat="40.83509" lon="-4.23519">
        <ele>1011.018</ele>
        <time>2018-07-22T09:38:27Z</time>
      </trkpt>
      <trkpt lat="40.83512" lon="-4.23509">
        <ele>1011.231</ele>
        <time>2018-07-22T09:38:29Z</time>
      </trkpt>
      <trkpt lat="40.83539" lon="-4.23442">
        <ele>1012.538</ele>
        <time>2018-07-22T09:38:43Z</time>
      </trkpt>
      <trkpt lat="40.83552" lon="-4.23415">
        <ele>1012.476</ele>
        <time>2018-07-22T09:38:49Z</time>
      </trkpt>
      <trkpt lat="40.83557" lon="-4.23406">
        <ele>1012.421</ele>
        <time>2018-07-22T09:38:51Z</time>
      </trkpt>
      <trkpt lat="40.8359" lon="-4.23344">
        <ele>1013.055</ele>
        <time>2018-07-22T09:39:04Z</time>
      </trkpt>
      <trkpt lat="40.83621" lon="-4.23282">
        <ele>1014.224</ele>
        <time>2018-07-22T09:39:17Z</time>
      </trkpt>
      <trkpt lat="40.83624" lon="-4.23277">
        <ele>1014.215</ele>
        <time>2018-07-22T09:39:18Z</time>
      </trkpt>
      <trkpt lat="40.83628" lon="-4.23266">
        <ele>1014.265</ele>
        <time>2018-07-22T09:39:20Z</time>
      </trkpt>
      <trkpt lat="40.83655" lon="-4.23204">
        <ele>1014.411</ele>
        <time>2018-07-22T09:39:31Z</time>
      </trkpt>
      <trkpt lat="40.83683" lon="-4.23138">
        <ele>1015.408</ele>
        <time>2018-07-22T09:39:43Z</time>
      </trkpt>
      <trkpt lat="40.83711" lon="-4.23084">
        <ele>1016.733</ele>
        <time>2018-07-22T09:39:54Z</time>
      </trkpt>
      <trkpt lat="40.83716" lon="-4.23073">
        <ele>1016.718</ele>
        <time>2018-07-22T09:39:56Z</time>
      </trkpt>
      <trkpt lat="40.83732" lon="-4.23044">
        <ele>1017.441</ele>
        <time>2018-07-22T09:40:02Z</time>
      </trkpt>
      <trkpt lat="40.8377" lon="-4.22985">
        <ele>1018.438</ele>
        <time>2018-07-22T09:40:15Z</time>
      </trkpt>
      <trkpt lat="40.83811" lon="-4.22932">
        <ele>1019.766</ele>
        <time>2018-07-22T09:40:28Z</time>
      </trkpt>
      <trkpt lat="40.83856" lon="-4.22887">
        <ele>1020.711</ele>
        <time>2018-07-22T09:40:41Z</time>
      </trkpt>
      <trkpt lat="40.83901" lon="-4.22841">
        <ele>1022.465</ele>
        <time>2018-07-22T09:40:54Z</time>
      </trkpt>
      <trkpt lat="40.83924" lon="-4.22821">
        <ele>1022.524</ele>
        <time>2018-07-22T09:41:00Z</time>
      </trkpt>
      <trkpt lat="40.83976" lon="-4.22785">
        <ele>1021.249</ele>
        <time>2018-07-22T09:41:11Z</time>
      </trkpt>
      <trkpt lat="40.84024" lon="-4.2274">
        <ele>1019.702</ele>
        <time>2018-07-22T09:41:20Z</time>
      </trkpt>
      <trkpt lat="40.84073" lon="-4.22694">
        <ele>1018.422</ele>
        <time>2018-07-22T09:41:28Z</time>
      </trkpt>
      <trkpt lat="40.84124" lon="-4.22651">
        <ele>1017.508</ele>
        <time>2018-07-22T09:41:36Z</time>
      </trkpt>
      <trkpt lat="40.8418" lon="-4.22622">
        <ele>1016.466</ele>
        <time>2018-07-22T09:41:44Z</time>
      </trkpt>
      <trkpt lat="40.84235" lon="-4.22603">
        <ele>1015.491</ele>
        <time>2018-07-22T09:41:51Z</time>
      </trkpt>
      <trkpt lat="40.84291" lon="-4.22587">
        <ele>1013.544</ele>
        <time>2018-07-22T09:41:58Z</time>
      </trkpt>
      <trkpt lat="40.8435" lon="-4.22575">
        <ele>1012.221</ele>
        <time>2018-07-22T09:42:05Z</time>
      </trkpt>
      <trkpt lat="40.8441" lon="-4.22561">
        <ele>1010.569</ele>
        <time>2018-07-22T09:42:12Z</time>
      </trkpt>
      <trkpt lat="40.84469" lon="-4.22551">
        <ele>1009.294</ele>
        <time>2018-07-22T09:42:19Z</time>
      </trkpt>
      <trkpt lat="40.84525" lon="-4.22536">
        <ele>1007.568</ele>
        <time>2018-07-22T09:42:26Z</time>
      </trkpt>
      <trkpt lat="40.84583" lon="-4.22518">
        <ele>1006.067</ele>
        <time>2018-07-22T09:42:34Z</time>
      </trkpt>
      <trkpt lat="40.84637" lon="-4.22491">
        <ele>1004.569</ele>
        <time>2018-07-22T09:42:42Z</time>
      </trkpt>
      <trkpt lat="40.84694" lon="-4.22474">
        <ele>1002.504</ele>
        <time>2018-07-22T09:42:50Z</time>
      </trkpt>
      <trkpt lat="40.84751" lon="-4.22455">
        <ele>1000.724</ele>
        <time>2018-07-22T09:42:58Z</time>
      </trkpt>
      <trkpt lat="40.84757" lon="-4.22451">
        <ele>1000.508</ele>
        <time>2018-07-22T09:42:59Z</time>
      </trkpt>
      <trkpt lat="40.8477" lon="-4.22443">
        <ele>1000.428</ele>
        <time>2018-07-22T09:43:01Z</time>
      </trkpt>
      <trkpt lat="40.84825" lon="-4.22422">
        <ele>998.743</ele>
        <time>2018-07-22T09:43:09Z</time>
      </trkpt>
      <trkpt lat="40.84853" lon="-4.22416">
        <ele>998.566</ele>
        <time>2018-07-22T09:43:13Z</time>
      </trkpt>
      <trkpt lat="40.84873" lon="-4.22418">
        <ele>998.783</ele>
        <time>2018-07-22T09:43:16Z</time>
      </trkpt>
      <trkpt lat="40.849" lon="-4.22418">
        <ele>999.291</ele>
        <time>2018-07-22T09:43:20Z</time>
      </trkpt>
      <trkpt lat="40.84942" lon="-4.22403">
        <ele>997.286</ele>
        <time>2018-07-22T09:43:27Z</time>
      </trkpt>
      <trkpt lat="40.84951" lon="-4.22392">
        <ele>996.510</ele>
        <time>2018-07-22T09:43:29Z</time>
      </trkpt>
      <trkpt lat="40.84951" lon="-4.22376">
        <ele>996.449</ele>
        <time>2018-07-22T09:43:31Z</time>
      </trkpt>
      <trkpt lat="40.84945" lon="-4.22363">
        <ele>996.755</ele>
        <time>2018-07-22T09:43:33Z</time>
      </trkpt>
      <trkpt lat="40.84938" lon="-4.22344">
        <ele>997.407</ele>
        <time>2018-07-22T09:43:36Z</time>
      </trkpt>
      <trkpt lat="40.84937" lon="-4.22331">
        <ele>997.217</ele>
        <time>2018-07-22T09:43:38Z</time>
      </trkpt>
      <trkpt lat="40.84943" lon="-4.22319">
        <ele>997.008</ele>
        <time>2018-07-22T09:43:40Z</time>
      </trkpt>
      <trkpt lat="40.84954" lon="-4.2231">
        <ele>996.567</ele>
        <time>2018-07-22T09:43:42Z</time>
      </trkpt>
      <trkpt lat="40.85008" lon="-4.22279">
        <ele>994.582</ele>
        <time>2018-07-22T09:43:51Z</time>
      </trkpt>
      <trkpt lat="40.85059" lon="-4.22245">
        <ele>993.295</ele>
        <time>2018-07-22T09:43:59Z</time>
      </trkpt>
      <trkpt lat="40.85107" lon="-4.2221">
        <ele>992.242</ele>
        <time>2018-07-22T09:44:07Z</time>
      </trkpt>
      <trkpt lat="40.8512" lon="-4.22203">
        <ele>992.050</ele>
        <time>2018-07-22T09:44:09Z</time>
      </trkpt>
      <trkpt lat="40.8513" lon="-4.22193">
        <ele>991.765</ele>
        <time>2018-07-22T09:44:11Z</time>
      </trkpt>
      <trkpt lat="40.85138" lon="-4.2218">
        <ele>991.249</ele>
        <time>2018-07-22T09:44:13Z</time>
      </trkpt>
      <trkpt lat="40.85148" lon="-4.22159">
        <ele>990.528</ele>
        <time>2018-07-22T09:44:16Z</time>
      </trkpt>
      <trkpt lat="40.85173" lon="-4.22134">
        <ele>990.421</ele>
        <time>2018-07-22T09:44:21Z</time>
      </trkpt>
      <trkpt lat="40.85185" lon="-4.22125">
        <ele>990.241</ele>
        <time>2018-07-22T09:44:23Z</time>
      </trkpt>
      <trkpt lat="40.85234" lon="-4.22084">
        <ele>989.005</ele>
        <time>2018-07-22T09:44:32Z</time>
      </trkpt>
      <trkpt lat="40.85285" lon="-4.22043">
        <ele>987.508</ele>
        <time>2018-07-22T09:44:41Z</time>
      </trkpt>
      <trkpt lat="40.85336" lon="-4.22004">
        <ele>987.014</ele>
        <time>2018-07-22T09:44:50Z</time>
      </trkpt>
      <trkpt lat="40.85388" lon="-4.21962">
        <ele>986.549</ele>
        <time>2018-07-22T09:44:59Z</time>
      </trkpt>
      <trkpt lat="40.8544" lon="-4.21923">
        <ele>986.492</ele>
        <time>2018-07-22T09:45:08Z</time>
      </trkpt>
      <trkpt lat="40.85453" lon="-4.21916">
        <ele>986.219</ele>
        <time>2018-07-22T09:45:10Z</time>
      </trkpt>
      <trkpt lat="40.85473" lon="-4.21911">
        <ele>986.017</ele>
        <time>2018-07-22T09:45:13Z</time>
      </trkpt>
      <trkpt lat="40.85494" lon="-4.21912">
        <ele>985.562</ele>
        <time>2018-07-22T09:45:16Z</time>
      </trkpt>
      <trkpt lat="40.85551" lon="-4.21918">
        <ele>984.796</ele>
        <time>2018-07-22T09:45:24Z</time>
      </trkpt>
      <trkpt lat="40.85608" lon="-4.21916">
        <ele>984.065</ele>
        <time>2018-07-22T09:45:32Z</time>
      </trkpt>
      <trkpt lat="40.85649" lon="-4.21909">
        <ele>983.711</ele>
        <time>2018-07-22T09:45:38Z</time>
      </trkpt>
      <trkpt lat="40.85706" lon="-4.21887">
        <ele>983.521</ele>
        <time>2018-07-22T09:45:47Z</time>
      </trkpt>
      <trkpt lat="40.85756" lon="-4.2186">
        <ele>983.003</ele>
        <time>2018-07-22T09:45:55Z</time>
      </trkpt>
      <trkpt lat="40.85805" lon="-4.21829">
        <ele>982.708</ele>
        <time>2018-07-22T09:46:03Z</time>
      </trkpt>
      <trkpt lat="40.85855" lon="-4.21797">
        <ele>982.573</ele>
        <time>2018-07-22T09:46:12Z</time>
      </trkpt>
      <trkpt lat="40.85906" lon="-4.21763">
        <ele>979.798</ele>
        <time>2018-07-22T09:46:20Z</time>
      </trkpt>
      <trkpt lat="40.85958" lon="-4.21731">
        <ele>979.221</ele>
        <time>2018-07-22T09:46:28Z</time>
      </trkpt>
      <trkpt lat="40.8597" lon="-4.21724">
        <ele>979.058</ele>
        <time>2018-07-22T09:46:30Z</time>
      </trkpt>
      <trkpt lat="40.85981" lon="-4.21714">
        <ele>978.546</ele>
        <time>2018-07-22T09:46:32Z</time>
      </trkpt>
      <trkpt lat="40.85988" lon="-4.217">
        <ele>978.481</ele>
        <time>2018-07-22T09:46:34Z</time>
      </trkpt>
      <trkpt lat="40.86017" lon="-4.21631">
        <ele>977.455</ele>
        <time>2018-07-22T09:46:43Z</time>
      </trkpt>
      <trkpt lat="40.86047" lon="-4.21571">
        <ele>976.444</ele>
        <time>2018-07-22T09:46:51Z</time>
      </trkpt>
      <trkpt lat="40.86075" lon="-4.21509">
        <ele>975.774</ele>
        <time>2018-07-22T09:46:59Z</time>
      </trkpt>
      <trkpt lat="40.86084" lon="-4.21496">
        <ele>975.556</ele>
        <time>2018-07-22T09:47:01Z</time>
      </trkpt>
      <trkpt lat="40.861" lon="-4.21479">
        <ele>975.221</ele>
        <time>2018-07-22T09:47:04Z</time>
      </trkpt>
      <trkpt lat="40.86115" lon="-4.21449">
        <ele>975.008</ele>
        <time>2018-07-22T09:47:08Z</time>
      </trkpt>
      <trkpt lat="40.8613" lon="-4.21388">
        <ele>974.299</ele>
        <time>2018-07-22T09:47:15Z</time>
      </trkpt>
      <trkpt lat="40.86138" lon="-4.21373">
        <ele>973.594</ele>
        <time>2018-07-22T09:47:17Z</time>
      </trkpt>
      <trkpt lat="40.86154" lon="-4.21353">
        <ele>972.757</ele>
        <time>2018-07-22T09:47:20Z</time>
      </trkpt>
      <trkpt lat="40.8618" lon="-4.21283">
        <ele>971.724</ele>
        <time>2018-07-22T09:47:28Z</time>
      </trkpt>
      <trkpt lat="40.86201" lon="-4.21209">
        <ele>970.762</ele>
        <time>2018-07-22T09:47:36Z</time>
      </trkpt>
      <trkpt lat="40.86215" lon="-4.21137">
        <ele>969.777</ele>
        <time>2018-07-22T09:47:44Z</time>
      </trkpt>
      <trkpt lat="40.86216" lon="-4.21118">
        <ele>969.581</ele>
        <time>2018-07-22T09:47:46Z</time>
      </trkpt>
      <trkpt lat="40.86212" lon="-4.211">
        <ele>969.460</ele>
        <time>2018-07-22T09:47:48Z</time>
      </trkpt>
      <trkpt lat="40.86196" lon="-4.21062">
        <ele>969.234</ele>
        <time>2018-07-22T09:47:53Z</time>
      </trkpt>
      <trkpt lat="40.86194" lon="-4.21045">
        <ele>969.255</ele>
        <time>2018-07-22T09:47:55Z</time>
      </trkpt>
      <trkpt lat="40.86196" lon="-4.21029">
        <ele>969.210</ele>
        <time>2018-07-22T09:47:57Z</time>
      </trkpt>
      <trkpt lat="40.86201" lon="-4.21014">
        <ele>968.708</ele>
        <time>2018-07-22T09:47:59Z</time>
      </trkpt>
      <trkpt lat="40.86216" lon="-4.20986">
        <ele>968.485</ele>
        <time>2018-07-22T09:48:03Z</time>
      </trkpt>
      <trkpt lat="40.86227" lon="-4.20976">
        <ele>968.040</ele>
        <time>2018-07-22T09:48:05Z</time>
      </trkpt>
      <trkpt lat="40.8628" lon="-4.20959">
        <ele>967.023</ele>
        <time>2018-07-22T09:48:13Z</time>
      </trkpt>
      <trkpt lat="40.86307" lon="-4.20949">
        <ele>966.570</ele>
        <time>2018-07-22T09:48:17Z</time>
      </trkpt>
      <trkpt lat="40.86352" lon="-4.20918">
        <ele>966.468</ele>
        <time>2018-07-22T09:48:25Z</time>
      </trkpt>
      <trkpt lat="40.86391" lon="-4.20899">
        <ele>965.573</ele>
        <time>2018-07-22T09:48:32Z</time>
      </trkpt>
      <trkpt lat="40.86445" lon="-4.20874">
        <ele>964.577</ele>
        <time>2018-07-22T09:48:41Z</time>
      </trkpt>
      <trkpt lat="40.86497" lon="-4.2084">
        <ele>964.246</ele>
        <time>2018-07-22T09:48:51Z</time>
      </trkpt>
      <trkpt lat="40.86521" lon="-4.20832">
        <ele>963.438</ele>
        <time>2018-07-22T09:48:55Z</time>
      </trkpt>
      <trkpt lat="40.86533" lon="-4.20828">
        <ele>963.270</ele>
        <time>2018-07-22T09:48:57Z</time>
      </trkpt>
      <trkpt lat="40.86571" lon="-4.2082">
        <ele>962.417</ele>
        <time>2018-07-22T09:49:07Z</time>
      </trkpt>
      <trkpt lat="40.86573" lon="-4.20813">
        <ele>963.008</ele>
        <time>2018-07-22T09:49:09Z</time>
      </trkpt>
      <trkpt lat="40.86525" lon="-4.20775">
        <ele>966.525</ele>
        <time>2018-07-22T09:49:25Z</time>
      </trkpt>
      <trkpt lat="40.86509" lon="-4.20758">
        <ele>968.010</ele>
        <time>2018-07-22T09:49:31Z</time>
      </trkpt>
      <trkpt lat="40.8648" lon="-4.20729">
        <ele>968.073</ele>
        <time>2018-07-22T09:49:42Z</time>
      </trkpt>
      <trkpt lat="40.8646" lon="-4.2071">
        <ele>967.740</ele>
        <time>2018-07-22T09:49:49Z</time>
      </trkpt>
      <trkpt lat="40.86408" lon="-4.20695">
        <ele>972.058</ele>
        <time>2018-07-22T09:50:05Z</time>
      </trkpt>
      <trkpt lat="40.86356" lon="-4.20724">
        <ele>973.523</ele>
        <time>2018-07-22T09:50:20Z</time>
      </trkpt>
      <trkpt lat="40.86305" lon="-4.2075">
        <ele>974.767</ele>
        <time>2018-07-22T09:50:34Z</time>
      </trkpt>
      <trkpt lat="40.86253" lon="-4.20777">
        <ele>975.726</ele>
        <time>2018-07-22T09:50:48Z</time>
      </trkpt>
      <trkpt lat="40.86203" lon="-4.20804">
        <ele>976.737</ele>
        <time>2018-07-22T09:51:04Z</time>
      </trkpt>
      <trkpt lat="40.86199" lon="-4.20807">
        <ele>976.749</ele>
        <time>2018-07-22T09:51:06Z</time>
      </trkpt>
      <trkpt lat="40.86192" lon="-4.2081">
        <ele>977.013</ele>
        <time>2018-07-22T09:51:09Z</time>
      </trkpt>
      <trkpt lat="40.86182" lon="-4.20817">
        <ele>976.708</ele>
        <time>2018-07-22T09:51:16Z</time>
      </trkpt>
      <trkpt lat="40.86179" lon="-4.20819">
        <ele>977.055</ele>
        <time>2018-07-22T09:51:19Z</time>
      </trkpt>
      <trkpt lat="40.86178" lon="-4.2082">
        <ele>977.250</ele>
        <time>2018-07-22T09:51:20Z</time>
      </trkpt>
      <trkpt lat="40.86171" lon="-4.20822">
        <ele>976.733</ele>
        <time>2018-07-22T09:51:26Z</time>
      </trkpt>
      <trkpt lat="40.86164" lon="-4.20811">
        <ele>977.420</ele>
        <time>2018-07-22T09:56:16Z</time>
      </trkpt>
      <trkpt lat="40.86162" lon="-4.2081">
        <ele>977.548</ele>
        <time>2018-07-22T09:56:17Z</time>
      </trkpt>
      <trkpt lat="40.86149" lon="-4.20796">
        <ele>976.473</ele>
        <time>2018-07-22T09:56:24Z</time>
      </trkpt>
      <trkpt lat="40.86142" lon="-4.20787">
        <ele>976.077</ele>
        <time>2018-07-22T09:56:27Z</time>
      </trkpt>
      <trkpt lat="40.86141" lon="-4.20783">
        <ele>976.076</ele>
        <time>2018-07-22T09:56:28Z</time>
      </trkpt>
      <trkpt lat="40.8614" lon="-4.20778">
        <ele>976.091</ele>
        <time>2018-07-22T09:56:29Z</time>
      </trkpt>
      <trkpt lat="40.86146" lon="-4.20733">
        <ele>973.481</ele>
        <time>2018-07-22T09:56:41Z</time>
      </trkpt>
      <trkpt lat="40.86154" lon="-4.20688">
        <ele>970.719</ele>
        <time>2018-07-22T09:56:55Z</time>
      </trkpt>
      <trkpt lat="40.8614" lon="-4.2062">
        <ele>968.508</ele>
        <time>2018-07-22T09:57:25Z</time>
      </trkpt>
      <trkpt lat="40.86131" lon="-4.20589">
        <ele>968.281</ele>
        <time>2018-07-22T09:57:36Z</time>
      </trkpt>
      <trkpt lat="40.86119" lon="-4.20544">
        <ele>967.526</ele>
        <time>2018-07-22T09:57:50Z</time>
      </trkpt>
      <trkpt lat="40.86099" lon="-4.20474">
        <ele>964.519</ele>
        <time>2018-07-22T09:58:09Z</time>
      </trkpt>
      <trkpt lat="40.86097" lon="-4.20456">
        <ele>963.716</ele>
        <time>2018-07-22T09:58:15Z</time>
      </trkpt>
      <trkpt lat="40.86086" lon="-4.20441">
        <ele>963.494</ele>
        <time>2018-07-22T09:58:25Z</time>
      </trkpt>
      <trkpt lat="40.86081" lon="-4.20432">
        <ele>963.229</ele>
        <time>2018-07-22T09:58:30Z</time>
      </trkpt>
      <trkpt lat="40.86052" lon="-4.20415">
        <ele>963.453</ele>
        <time>2018-07-22T09:58:41Z</time>
      </trkpt>
      <trkpt lat="40.86032" lon="-4.20404">
        <ele>963.432</ele>
        <time>2018-07-22T09:58:51Z</time>
      </trkpt>
      <trkpt lat="40.86011" lon="-4.20393">
        <ele>963.283</ele>
        <time>2018-07-22T09:59:02Z</time>
      </trkpt>
      <trkpt lat="40.85978" lon="-4.20388">
        <ele>964.525</ele>
        <time>2018-07-22T09:59:19Z</time>
      </trkpt>
      <trkpt lat="40.85966" lon="-4.20383">
        <ele>965.217</ele>
        <time>2018-07-22T09:59:29Z</time>
      </trkpt>
      <trkpt lat="40.85961" lon="-4.20382">
        <ele>965.408</ele>
        <time>2018-07-22T09:59:31Z</time>
      </trkpt>
      <trkpt lat="40.85915" lon="-4.20409">
        <ele>967.240</ele>
        <time>2018-07-22T09:59:51Z</time>
      </trkpt>
      <trkpt lat="40.85906" lon="-4.20412">
        <ele>967.575</ele>
        <time>2018-07-22T09:59:54Z</time>
      </trkpt>
      <trkpt lat="40.85872" lon="-4.20429">
        <ele>972.098</ele>
        <time>2018-07-22T10:00:14Z</time>
      </trkpt>
      <trkpt lat="40.8586" lon="-4.20433">
        <ele>974.045</ele>
        <time>2018-07-22T10:00:21Z</time>
      </trkpt>
      <trkpt lat="40.85845" lon="-4.20429">
        <ele>976.713</ele>
        <time>2018-07-22T10:00:29Z</time>
      </trkpt>
      <trkpt lat="40.85836" lon="-4.2043">
        <ele>978.228</ele>
        <time>2018-07-22T10:00:33Z</time>
      </trkpt>
      <trkpt lat="40.85811" lon="-4.20429">
        <ele>982.062</ele>
        <time>2018-07-22T10:00:43Z</time>
      </trkpt>
      <trkpt lat="40.85802" lon="-4.20427">
        <ele>985.051</ele>
        <time>2018-07-22T10:00:51Z</time>
      </trkpt>
      <trkpt lat="40.85782" lon="-4.20418">
        <ele>984.268</ele>
        <time>2018-07-22T10:01:28Z</time>
      </trkpt>
      <trkpt lat="40.85755" lon="-4.20408">
        <ele>983.542</ele>
        <time>2018-07-22T10:01:38Z</time>
      </trkpt>
      <trkpt lat="40.85714" lon="-4.20378">
        <ele>982.726</ele>
        <time>2018-07-22T10:01:52Z</time>
      </trkpt>
      <trkpt lat="40.8571" lon="-4.20376">
        <ele>982.508</ele>
        <time>2018-07-22T10:01:53Z</time>
      </trkpt>
      <trkpt lat="40.8566" lon="-4.20349">
        <ele>981.268</ele>
        <time>2018-07-22T10:02:08Z</time>
      </trkpt>
      <trkpt lat="40.85606" lon="-4.20321">
        <ele>978.213</ele>
        <time>2018-07-22T10:02:23Z</time>
      </trkpt>
      <trkpt lat="40.85583" lon="-4.20311">
        <ele>977.526</ele>
        <time>2018-07-22T10:02:28Z</time>
      </trkpt>
      <trkpt lat="40.85577" lon="-4.20303">
        <ele>977.093</ele>
        <time>2018-07-22T10:02:30Z</time>
      </trkpt>
      <trkpt lat="40.85551" lon="-4.20277">
        <ele>973.451</ele>
        <time>2018-07-22T10:02:42Z</time>
      </trkpt>
      <trkpt lat="40.8554" lon="-4.20268">
        <ele>972.566</ele>
        <time>2018-07-22T10:02:46Z</time>
      </trkpt>
      <trkpt lat="40.85536" lon="-4.20265">
        <ele>972.590</ele>
        <time>2018-07-22T10:02:47Z</time>
      </trkpt>
      <trkpt lat="40.85527" lon="-4.20259">
        <ele>972.059</ele>
        <time>2018-07-22T10:02:50Z</time>
      </trkpt>
      <trkpt lat="40.85521" lon="-4.20255">
        <ele>971.596</ele>
        <time>2018-07-22T10:02:52Z</time>
      </trkpt>
      <trkpt lat="40.85467" lon="-4.20232">
        <ele>970.531</ele>
        <time>2018-07-22T10:03:08Z</time>
      </trkpt>
      <trkpt lat="40.8544" lon="-4.20222">
        <ele>972.024</ele>
        <time>2018-07-22T10:03:17Z</time>
      </trkpt>
      <trkpt lat="40.85402" lon="-4.20209">
        <ele>974.508</ele>
        <time>2018-07-22T10:03:29Z</time>
      </trkpt>
      <trkpt lat="40.85347" lon="-4.20203">
        <ele>977.221</ele>
        <time>2018-07-22T10:03:41Z</time>
      </trkpt>
      <trkpt lat="40.85296" lon="-4.20192">
        <ele>979.716</ele>
        <time>2018-07-22T10:03:57Z</time>
      </trkpt>
      <trkpt lat="40.85268" lon="-4.2017">
        <ele>981.729</ele>
        <time>2018-07-22T10:04:10Z</time>
      </trkpt>
      <trkpt lat="40.85238" lon="-4.20137">
        <ele>984.246</ele>
        <time>2018-07-22T10:04:27Z</time>
      </trkpt>
      <trkpt lat="40.85221" lon="-4.20105">
        <ele>984.564</ele>
        <time>2018-07-22T10:04:40Z</time>
      </trkpt>
      <trkpt lat="40.85191" lon="-4.20046">
        <ele>989.729</ele>
        <time>2018-07-22T10:05:07Z</time>
      </trkpt>
      <trkpt lat="40.85155" lon="-4.20012">
        <ele>995.293</ele>
        <time>2018-07-22T10:05:32Z</time>
      </trkpt>
      <trkpt lat="40.85153" lon="-4.20011">
        <ele>995.452</ele>
        <time>2018-07-22T10:05:33Z</time>
      </trkpt>
      <trkpt lat="40.85146" lon="-4.19999">
        <ele>995.792</ele>
        <time>2018-07-22T10:05:39Z</time>
      </trkpt>
      <trkpt lat="40.85131" lon="-4.1997">
        <ele>996.073</ele>
        <time>2018-07-22T10:05:51Z</time>
      </trkpt>
      <trkpt lat="40.85115" lon="-4.19945">
        <ele>998.720</ele>
        <time>2018-07-22T10:06:04Z</time>
      </trkpt>
      <trkpt lat="40.85098" lon="-4.19925">
        <ele>1003.208</ele>
        <time>2018-07-22T10:06:17Z</time>
      </trkpt>
      <trkpt lat="40.85066" lon="-4.19867">
        <ele>1009.481</ele>
        <time>2018-07-22T10:06:47Z</time>
      </trkpt>
      <trkpt lat="40.85036" lon="-4.19807">
        <ele>1012.456</ele>
        <time>2018-07-22T10:07:11Z</time>
      </trkpt>
      <trkpt lat="40.85014" lon="-4.19765">
        <ele>1015.489</ele>
        <time>2018-07-22T10:07:28Z</time>
      </trkpt>
      <trkpt lat="40.8499" lon="-4.19714">
        <ele>1017.756</ele>
        <time>2018-07-22T10:07:50Z</time>
      </trkpt>
      <trkpt lat="40.84951" lon="-4.19666">
        <ele>1022.084</ele>
        <time>2018-07-22T10:08:16Z</time>
      </trkpt>
      <trkpt lat="40.84928" lon="-4.196">
        <ele>1028.169</ele>
        <time>2018-07-22T10:08:41Z</time>
      </trkpt>
      <trkpt lat="40.84912" lon="-4.1958">
        <ele>1030.183</ele>
        <time>2018-07-22T10:08:50Z</time>
      </trkpt>
      <trkpt lat="40.84902" lon="-4.19561">
        <ele>1032.882</ele>
        <time>2018-07-22T10:08:57Z</time>
      </trkpt>
      <trkpt lat="40.84872" lon="-4.19502">
        <ele>1036.542</ele>
        <time>2018-07-22T10:09:19Z</time>
      </trkpt>
      <trkpt lat="40.8485" lon="-4.19469">
        <ele>1038.122</ele>
        <time>2018-07-22T10:09:30Z</time>
      </trkpt>
      <trkpt lat="40.84829" lon="-4.19405">
        <ele>1038.414</ele>
        <time>2018-07-22T10:09:47Z</time>
      </trkpt>
      <trkpt lat="40.84801" lon="-4.19348">
        <ele>1038.008</ele>
        <time>2018-07-22T10:10:05Z</time>
      </trkpt>
      <trkpt lat="40.84748" lon="-4.19351">
        <ele>1040.586</ele>
        <time>2018-07-22T10:10:24Z</time>
      </trkpt>
      <trkpt lat="40.84726" lon="-4.19358">
        <ele>1042.481</ele>
        <time>2018-07-22T10:10:31Z</time>
      </trkpt>
      <trkpt lat="40.84689" lon="-4.19329">
        <ele>1047.864</ele>
        <time>2018-07-22T10:10:48Z</time>
      </trkpt>
      <trkpt lat="40.8466" lon="-4.19293">
        <ele>1052.161</ele>
        <time>2018-07-22T10:11:04Z</time>
      </trkpt>
      <trkpt lat="40.84619" lon="-4.19248">
        <ele>1056.129</ele>
        <time>2018-07-22T10:11:26Z</time>
      </trkpt>
      <trkpt lat="40.84564" lon="-4.19243">
        <ele>1056.114</ele>
        <time>2018-07-22T10:11:43Z</time>
      </trkpt>
      <trkpt lat="40.84548" lon="-4.19189">
        <ele>1059.048</ele>
        <time>2018-07-22T10:12:00Z</time>
      </trkpt>
      <trkpt lat="40.84517" lon="-4.19131">
        <ele>1061.157</ele>
        <time>2018-07-22T10:12:17Z</time>
      </trkpt>
      <trkpt lat="40.84485" lon="-4.19075">
        <ele>1064.023</ele>
        <time>2018-07-22T10:12:34Z</time>
      </trkpt>
      <trkpt lat="40.84441" lon="-4.19031">
        <ele>1067.483</ele>
        <time>2018-07-22T10:12:49Z</time>
      </trkpt>
      <trkpt lat="40.84423" lon="-4.18971">
        <ele>1071.411</ele>
        <time>2018-07-22T10:13:06Z</time>
      </trkpt>
      <trkpt lat="40.84397" lon="-4.18936">
        <ele>1074.408</ele>
        <time>2018-07-22T10:13:20Z</time>
      </trkpt>
      <trkpt lat="40.84344" lon="-4.18939">
        <ele>1074.494</ele>
        <time>2018-07-22T10:13:38Z</time>
      </trkpt>
      <trkpt lat="40.84324" lon="-4.18874">
        <ele>1077.129</ele>
        <time>2018-07-22T10:13:57Z</time>
      </trkpt>
      <trkpt lat="40.84297" lon="-4.18826">
        <ele>1081.572</ele>
        <time>2018-07-22T10:14:18Z</time>
      </trkpt>
      <trkpt lat="40.84252" lon="-4.18782">
        <ele>1085.559</ele>
        <time>2018-07-22T10:14:39Z</time>
      </trkpt>
      <trkpt lat="40.84226" lon="-4.1872">
        <ele>1091.417</ele>
        <time>2018-07-22T10:15:03Z</time>
      </trkpt>
      <trkpt lat="40.84209" lon="-4.18695">
        <ele>1090.162</ele>
        <time>2018-07-22T10:15:12Z</time>
      </trkpt>
      <trkpt lat="40.84197" lon="-4.18676">
        <ele>1088.126</ele>
        <time>2018-07-22T10:15:16Z</time>
      </trkpt>
      <trkpt lat="40.84172" lon="-4.18618">
        <ele>1086.885</ele>
        <time>2018-07-22T10:15:29Z</time>
      </trkpt>
      <trkpt lat="40.84161" lon="-4.18582">
        <ele>1090.028</ele>
        <time>2018-07-22T10:15:38Z</time>
      </trkpt>
      <trkpt lat="40.84136" lon="-4.18557">
        <ele>1092.589</ele>
        <time>2018-07-22T10:15:48Z</time>
      </trkpt>
      <trkpt lat="40.84093" lon="-4.1851">
        <ele>1094.017</ele>
        <time>2018-07-22T10:16:05Z</time>
      </trkpt>
      <trkpt lat="40.84074" lon="-4.18452">
        <ele>1097.408</ele>
        <time>2018-07-22T10:16:24Z</time>
      </trkpt>
      <trkpt lat="40.84087" lon="-4.18386">
        <ele>1100.014</ele>
        <time>2018-07-22T10:16:42Z</time>
      </trkpt>
      <trkpt lat="40.84058" lon="-4.18324">
        <ele>1100.169</ele>
        <time>2018-07-22T10:17:00Z</time>
      </trkpt>
      <trkpt lat="40.84036" lon="-4.18257">
        <ele>1103.082</ele>
        <time>2018-07-22T10:17:23Z</time>
      </trkpt>
      <trkpt lat="40.84033" lon="-4.18186">
        <ele>1107.029</ele>
        <time>2018-07-22T10:17:39Z</time>
      </trkpt>
      <trkpt lat="40.84062" lon="-4.18123">
        <ele>1108.457</ele>
        <time>2018-07-22T10:17:56Z</time>
      </trkpt>
      <trkpt lat="40.84068" lon="-4.18112">
        <ele>1108.592</ele>
        <time>2018-07-22T10:18:00Z</time>
      </trkpt>
      <trkpt lat="40.84068" lon="-4.18109">
        <ele>1108.866</ele>
        <time>2018-07-22T10:18:02Z</time>
      </trkpt>
      <trkpt lat="40.8407" lon="-4.18103">
        <ele>1106.475</ele>
        <time>2018-07-22T10:20:13Z</time>
      </trkpt>
      <trkpt lat="40.84064" lon="-4.18104">
        <ele>1106.592</ele>
        <time>2018-07-22T10:20:23Z</time>
      </trkpt>
      <trkpt lat="40.84064" lon="-4.18103">
        <ele>1106.573</ele>
        <time>2018-07-22T10:20:24Z</time>
      </trkpt>
      <trkpt lat="40.8409" lon="-4.18095">
        <ele>1106.520</ele>
        <time>2018-07-22T10:28:50Z</time>
      </trkpt>
      <trkpt lat="40.84112" lon="-4.1806">
        <ele>1106.408</ele>
        <time>2018-07-22T10:29:00Z</time>
      </trkpt>
      <trkpt lat="40.84115" lon="-4.18046">
        <ele>1106.831</ele>
        <time>2018-07-22T10:29:03Z</time>
      </trkpt>
      <trkpt lat="40.84118" lon="-4.18031">
        <ele>1107.046</ele>
        <time>2018-07-22T10:29:06Z</time>
      </trkpt>
      <trkpt lat="40.84119" lon="-4.17966">
        <ele>1107.589</ele>
        <time>2018-07-22T10:29:19Z</time>
      </trkpt>
      <trkpt lat="40.84093" lon="-4.17948">
        <ele>1109.186</ele>
        <time>2018-07-22T10:29:28Z</time>
      </trkpt>
      <trkpt lat="40.8407" lon="-4.17927">
        <ele>1109.554</ele>
        <time>2018-07-22T10:29:37Z</time>
      </trkpt>
      <trkpt lat="40.84047" lon="-4.17869">
        <ele>1107.569</ele>
        <time>2018-07-22T10:29:53Z</time>
      </trkpt>
      <trkpt lat="40.84043" lon="-4.17811">
        <ele>1108.063</ele>
        <time>2018-07-22T10:30:04Z</time>
      </trkpt>
      <trkpt lat="40.84034" lon="-4.17745">
        <ele>1111.452</ele>
        <time>2018-07-22T10:30:17Z</time>
      </trkpt>
      <trkpt lat="40.84039" lon="-4.17708">
        <ele>1110.483</ele>
        <time>2018-07-22T10:30:22Z</time>
      </trkpt>
      <trkpt lat="40.84041" lon="-4.17701">
        <ele>1110.425</ele>
        <time>2018-07-22T10:30:23Z</time>
      </trkpt>
      <trkpt lat="40.84042" lon="-4.17693">
        <ele>1110.417</ele>
        <time>2018-07-22T10:30:24Z</time>
      </trkpt>
      <trkpt lat="40.84044" lon="-4.17685">
        <ele>1110.808</ele>
        <time>2018-07-22T10:30:25Z</time>
      </trkpt>
      <trkpt lat="40.84046" lon="-4.1767">
        <ele>1111.090</ele>
        <time>2018-07-22T10:30:27Z</time>
      </trkpt>
      <trkpt lat="40.8405" lon="-4.1764">
        <ele>1111.495</ele>
        <time>2018-07-22T10:30:31Z</time>
      </trkpt>
      <trkpt lat="40.84054" lon="-4.17596">
        <ele>1111.828</ele>
        <time>2018-07-22T10:30:37Z</time>
      </trkpt>
      <trkpt lat="40.84051" lon="-4.17565">
        <ele>1112.565</ele>
        <time>2018-07-22T10:30:42Z</time>
      </trkpt>
      <trkpt lat="40.8405" lon="-4.17543">
        <ele>1113.023</ele>
        <time>2018-07-22T10:30:46Z</time>
      </trkpt>
      <trkpt lat="40.84053" lon="-4.17521">
        <ele>1113.038</ele>
        <time>2018-07-22T10:30:50Z</time>
      </trkpt>
      <trkpt lat="40.84057" lon="-4.17504">
        <ele>1113.442</ele>
        <time>2018-07-22T10:30:53Z</time>
      </trkpt>
      <trkpt lat="40.84064" lon="-4.17487">
        <ele>1113.881</ele>
        <time>2018-07-22T10:30:57Z</time>
      </trkpt>
      <trkpt lat="40.8407" lon="-4.1746">
        <ele>1114.843</ele>
        <time>2018-07-22T10:31:03Z</time>
      </trkpt>
      <trkpt lat="40.8407" lon="-4.17422">
        <ele>1117.064</ele>
        <time>2018-07-22T10:31:11Z</time>
      </trkpt>
      <trkpt lat="40.84067" lon="-4.17347">
        <ele>1118.010</ele>
        <time>2018-07-22T10:31:26Z</time>
      </trkpt>
      <trkpt lat="40.84072" lon="-4.17299">
        <ele>1118.508</ele>
        <time>2018-07-22T10:31:35Z</time>
      </trkpt>
      <trkpt lat="40.8407" lon="-4.17226">
        <ele>1117.016</ele>
        <time>2018-07-22T10:31:45Z</time>
      </trkpt>
      <trkpt lat="40.84069" lon="-4.17203">
        <ele>1116.861</ele>
        <time>2018-07-22T10:31:48Z</time>
      </trkpt>
      <trkpt lat="40.84065" lon="-4.1713">
        <ele>1117.034</ele>
        <time>2018-07-22T10:32:01Z</time>
      </trkpt>
      <trkpt lat="40.84044" lon="-4.17076">
        <ele>1116.011</ele>
        <time>2018-07-22T10:32:23Z</time>
      </trkpt>
      <trkpt lat="40.83999" lon="-4.17049">
        <ele>1115.039</ele>
        <time>2018-07-22T10:32:57Z</time>
      </trkpt>
      <trkpt lat="40.83997" lon="-4.1704">
        <ele>1114.174</ele>
        <time>2018-07-22T10:33:00Z</time>
      </trkpt>
      <trkpt lat="40.83994" lon="-4.17037">
        <ele>1113.848</ele>
        <time>2018-07-22T10:33:01Z</time>
      </trkpt>
      <trkpt lat="40.83972" lon="-4.17021">
        <ele>1110.197</ele>
        <time>2018-07-22T10:33:15Z</time>
      </trkpt>
      <trkpt lat="40.8393" lon="-4.16996">
        <ele>1116.412</ele>
        <time>2018-07-22T10:34:15Z</time>
      </trkpt>
      <trkpt lat="40.83904" lon="-4.16984">
        <ele>1118.532</ele>
        <time>2018-07-22T10:34:28Z</time>
      </trkpt>
      <trkpt lat="40.83904" lon="-4.16954">
        <ele>1120.105</ele>
        <time>2018-07-22T10:34:40Z</time>
      </trkpt>
      <trkpt lat="40.83905" lon="-4.16943">
        <ele>1121.408</ele>
        <time>2018-07-22T10:34:44Z</time>
      </trkpt>
      <trkpt lat="40.83909" lon="-4.16902">
        <ele>1127.543</ele>
        <time>2018-07-22T10:35:02Z</time>
      </trkpt>
      <trkpt lat="40.83909" lon="-4.169">
        <ele>1128.068</ele>
        <time>2018-07-22T10:35:03Z</time>
      </trkpt>
      <trkpt lat="40.83909" lon="-4.16896">
        <ele>1128.571</ele>
        <time>2018-07-22T10:35:05Z</time>
      </trkpt>
      <trkpt lat="40.83911" lon="-4.16889">
        <ele>1129.518</ele>
        <time>2018-07-22T10:35:08Z</time>
      </trkpt>
      <trkpt lat="40.83913" lon="-4.16886">
        <ele>1130.096</ele>
        <time>2018-07-22T10:35:10Z</time>
      </trkpt>
      <trkpt lat="40.83916" lon="-4.1688">
        <ele>1131.061</ele>
        <time>2018-07-22T10:35:13Z</time>
      </trkpt>
      <trkpt lat="40.83925" lon="-4.16841">
        <ele>1134.015</ele>
        <time>2018-07-22T10:35:27Z</time>
      </trkpt>
      <trkpt lat="40.83911" lon="-4.16792">
        <ele>1135.124</ele>
        <time>2018-07-22T10:35:50Z</time>
      </trkpt>
      <trkpt lat="40.83909" lon="-4.16786">
        <ele>1135.437</ele>
        <time>2018-07-22T10:35:56Z</time>
      </trkpt>
      <trkpt lat="40.8391" lon="-4.16778">
        <ele>1135.149</ele>
        <time>2018-07-22T10:36:10Z</time>
      </trkpt>
      <trkpt lat="40.83906" lon="-4.16734">
        <ele>1135.813</ele>
        <time>2018-07-22T10:36:24Z</time>
      </trkpt>
      <trkpt lat="40.839" lon="-4.16697">
        <ele>1136.808</ele>
        <time>2018-07-22T10:36:37Z</time>
      </trkpt>
      <trkpt lat="40.83901" lon="-4.16668">
        <ele>1137.035</ele>
        <time>2018-07-22T10:36:47Z</time>
      </trkpt>
      <trkpt lat="40.83888" lon="-4.16598">
        <ele>1137.510</ele>
        <time>2018-07-22T10:37:04Z</time>
      </trkpt>
      <trkpt lat="40.83874" lon="-4.16544">
        <ele>1138.463</ele>
        <time>2018-07-22T10:37:16Z</time>
      </trkpt>
      <trkpt lat="40.83862" lon="-4.165">
        <ele>1139.460</ele>
        <time>2018-07-22T10:37:25Z</time>
      </trkpt>
      <trkpt lat="40.83848" lon="-4.1646">
        <ele>1140.098</ele>
        <time>2018-07-22T10:37:33Z</time>
      </trkpt>
      <trkpt lat="40.8384" lon="-4.16439">
        <ele>1140.143</ele>
        <time>2018-07-22T10:37:37Z</time>
      </trkpt>
      <trkpt lat="40.83838" lon="-4.16429">
        <ele>1140.157</ele>
        <time>2018-07-22T10:37:39Z</time>
      </trkpt>
      <trkpt lat="40.83831" lon="-4.16357">
        <ele>1141.026</ele>
        <time>2018-07-22T10:37:53Z</time>
      </trkpt>
      <trkpt lat="40.83833" lon="-4.16343">
        <ele>1141.443</ele>
        <time>2018-07-22T10:37:55Z</time>
      </trkpt>
      <trkpt lat="40.83832" lon="-4.16301">
        <ele>1141.864</ele>
        <time>2018-07-22T10:38:02Z</time>
      </trkpt>
      <trkpt lat="40.83827" lon="-4.16281">
        <ele>1141.510</ele>
        <time>2018-07-22T10:38:06Z</time>
      </trkpt>
      <trkpt lat="40.83827" lon="-4.16277">
        <ele>1141.508</ele>
        <time>2018-07-22T10:38:07Z</time>
      </trkpt>
      <trkpt lat="40.83833" lon="-4.16269">
        <ele>1141.526</ele>
        <time>2018-07-22T10:38:09Z</time>
      </trkpt>
      <trkpt lat="40.83865" lon="-4.16221">
        <ele>1141.091</ele>
        <time>2018-07-22T10:38:19Z</time>
      </trkpt>
      <trkpt lat="40.83875" lon="-4.16197">
        <ele>1140.554</ele>
        <time>2018-07-22T10:38:23Z</time>
      </trkpt>
      <trkpt lat="40.83886" lon="-4.16184">
        <ele>1140.481</ele>
        <time>2018-07-22T10:38:26Z</time>
      </trkpt>
      <trkpt lat="40.83904" lon="-4.16171">
        <ele>1139.839</ele>
        <time>2018-07-22T10:38:30Z</time>
      </trkpt>
      <trkpt lat="40.83917" lon="-4.16158">
        <ele>1139.194</ele>
        <time>2018-07-22T10:38:33Z</time>
      </trkpt>
      <trkpt lat="40.83933" lon="-4.1615">
        <ele>1138.428</ele>
        <time>2018-07-22T10:38:36Z</time>
      </trkpt>
      <trkpt lat="40.83943" lon="-4.16142">
        <ele>1138.087</ele>
        <time>2018-07-22T10:38:38Z</time>
      </trkpt>
      <trkpt lat="40.8395" lon="-4.1613">
        <ele>1137.817</ele>
        <time>2018-07-22T10:38:40Z</time>
      </trkpt>
      <trkpt lat="40.83956" lon="-4.1611">
        <ele>1137.587</ele>
        <time>2018-07-22T10:38:43Z</time>
      </trkpt>
      <trkpt lat="40.83961" lon="-4.16096">
        <ele>1137.115</ele>
        <time>2018-07-22T10:38:45Z</time>
      </trkpt>
      <trkpt lat="40.83981" lon="-4.16062">
        <ele>1136.108</ele>
        <time>2018-07-22T10:38:50Z</time>
      </trkpt>
      <trkpt lat="40.84" lon="-4.16028">
        <ele>1133.813</ele>
        <time>2018-07-22T10:38:54Z</time>
      </trkpt>
      <trkpt lat="40.84005" lon="-4.16019">
        <ele>1133.188</ele>
        <time>2018-07-22T10:38:55Z</time>
      </trkpt>
      <trkpt lat="40.8401" lon="-4.1601">
        <ele>1132.461</ele>
        <time>2018-07-22T10:38:56Z</time>
      </trkpt>
      <trkpt lat="40.84018" lon="-4.15996">
        <ele>1131.458</ele>
        <time>2018-07-22T10:38:58Z</time>
      </trkpt>
      <trkpt lat="40.84024" lon="-4.15983">
        <ele>1131.196</ele>
        <time>2018-07-22T10:39:00Z</time>
      </trkpt>
      <trkpt lat="40.84032" lon="-4.15968">
        <ele>1130.161</ele>
        <time>2018-07-22T10:39:03Z</time>
      </trkpt>
      <trkpt lat="40.84052" lon="-4.15935">
        <ele>1127.035</ele>
        <time>2018-07-22T10:39:10Z</time>
      </trkpt>
      <trkpt lat="40.84061" lon="-4.15929">
        <ele>1126.164</ele>
        <time>2018-07-22T10:39:12Z</time>
      </trkpt>
      <trkpt lat="40.84104" lon="-4.1591">
        <ele>1123.813</ele>
        <time>2018-07-22T10:39:20Z</time>
      </trkpt>
      <trkpt lat="40.84122" lon="-4.15902">
        <ele>1123.143</ele>
        <time>2018-07-22T10:39:23Z</time>
      </trkpt>
      <trkpt lat="40.84142" lon="-4.15892">
        <ele>1122.807</ele>
        <time>2018-07-22T10:39:27Z</time>
      </trkpt>
      <trkpt lat="40.84152" lon="-4.15887">
        <ele>1122.408</ele>
        <time>2018-07-22T10:39:29Z</time>
      </trkpt>
      <trkpt lat="40.84206" lon="-4.15862">
        <ele>1120.193</ele>
        <time>2018-07-22T10:39:40Z</time>
      </trkpt>
      <trkpt lat="40.84237" lon="-4.15844">
        <ele>1118.418</ele>
        <time>2018-07-22T10:39:47Z</time>
      </trkpt>
      <trkpt lat="40.84242" lon="-4.15842">
        <ele>1118.141</ele>
        <time>2018-07-22T10:39:48Z</time>
      </trkpt>
      <trkpt lat="40.84297" lon="-4.15827">
        <ele>1119.178</ele>
        <time>2018-07-22T10:40:00Z</time>
      </trkpt>
      <trkpt lat="40.84343" lon="-4.15831">
        <ele>1117.576</ele>
        <time>2018-07-22T10:40:08Z</time>
      </trkpt>
      <trkpt lat="40.84362" lon="-4.15831">
        <ele>1116.161</ele>
        <time>2018-07-22T10:40:15Z</time>
      </trkpt>
      <trkpt lat="40.84363" lon="-4.1583">
        <ele>1116.055</ele>
        <time>2018-07-22T10:40:16Z</time>
      </trkpt>
      <trkpt lat="40.84361" lon="-4.15823">
        <ele>1115.434</ele>
        <time>2018-07-22T10:40:20Z</time>
      </trkpt>
      <trkpt lat="40.84348" lon="-4.15812">
        <ele>1115.158</ele>
        <time>2018-07-22T10:40:28Z</time>
      </trkpt>
      <trkpt lat="40.84346" lon="-4.15812">
        <ele>1115.452</ele>
        <time>2018-07-22T10:40:29Z</time>
      </trkpt>
      <trkpt lat="40.84344" lon="-4.15811">
        <ele>1115.417</ele>
        <time>2018-07-22T10:40:30Z</time>
      </trkpt>
      <trkpt lat="40.84339" lon="-4.15811">
        <ele>1115.408</ele>
        <time>2018-07-22T10:40:32Z</time>
      </trkpt>
      <trkpt lat="40.84329" lon="-4.15807">
        <ele>1116.077</ele>
        <time>2018-07-22T10:40:37Z</time>
      </trkpt>
      <trkpt lat="40.84325" lon="-4.15805">
        <ele>1116.052</ele>
        <time>2018-07-22T10:40:39Z</time>
      </trkpt>
      <trkpt lat="40.84318" lon="-4.15793">
        <ele>1115.125</ele>
        <time>2018-07-22T10:40:44Z</time>
      </trkpt>
      <trkpt lat="40.84292" lon="-4.15731">
        <ele>1115.142</ele>
        <time>2018-07-22T10:41:06Z</time>
      </trkpt>
      <trkpt lat="40.84269" lon="-4.15699">
        <ele>1116.520</ele>
        <time>2018-07-22T10:41:21Z</time>
      </trkpt>
      <trkpt lat="40.8426" lon="-4.15689">
        <ele>1115.595</ele>
        <time>2018-07-22T10:41:28Z</time>
      </trkpt>
      <trkpt lat="40.84269" lon="-4.15625">
        <ele>1118.599</ele>
        <time>2018-07-22T10:41:50Z</time>
      </trkpt>
      <trkpt lat="40.84274" lon="-4.15601">
        <ele>1119.828</ele>
        <time>2018-07-22T10:41:57Z</time>
      </trkpt>
      <trkpt lat="40.843" lon="-4.15536">
        <ele>1123.163</ele>
        <time>2018-07-22T10:42:18Z</time>
      </trkpt>
      <trkpt lat="40.84321" lon="-4.15467">
        <ele>1127.544</ele>
        <time>2018-07-22T10:42:39Z</time>
      </trkpt>
      <trkpt lat="40.84332" lon="-4.15406">
        <ele>1130.018</ele>
        <time>2018-07-22T10:42:56Z</time>
      </trkpt>
      <trkpt lat="40.84343" lon="-4.15334">
        <ele>1132.508</ele>
        <time>2018-07-22T10:43:15Z</time>
      </trkpt>
      <trkpt lat="40.84345" lon="-4.15318">
        <ele>1132.878</ele>
        <time>2018-07-22T10:43:19Z</time>
      </trkpt>
      <trkpt lat="40.84384" lon="-4.15278">
        <ele>1133.423</ele>
        <time>2018-07-22T10:43:36Z</time>
      </trkpt>
      <trkpt lat="40.84416" lon="-4.15286">
        <ele>1132.896</ele>
        <time>2018-07-22T10:43:46Z</time>
      </trkpt>
      <trkpt lat="40.84418" lon="-4.15275">
        <ele>1133.463</ele>
        <time>2018-07-22T10:43:50Z</time>
      </trkpt>
      <trkpt lat="40.84368" lon="-4.15256">
        <ele>1134.121</ele>
        <time>2018-07-22T10:44:08Z</time>
      </trkpt>
      <trkpt lat="40.84368" lon="-4.15216">
        <ele>1135.196</ele>
        <time>2018-07-22T10:44:19Z</time>
      </trkpt>
      <trkpt lat="40.84356" lon="-4.15221">
        <ele>1134.840</ele>
        <time>2018-07-22T10:44:23Z</time>
      </trkpt>
      <trkpt lat="40.84352" lon="-4.15231">
        <ele>1134.149</ele>
        <time>2018-07-22T10:44:25Z</time>
      </trkpt>
      <trkpt lat="40.84348" lon="-4.15242">
        <ele>1133.845</ele>
        <time>2018-07-22T10:44:27Z</time>
      </trkpt>
      <trkpt lat="40.84342" lon="-4.1525">
        <ele>1133.547</ele>
        <time>2018-07-22T10:44:29Z</time>
      </trkpt>
      <trkpt lat="40.8432" lon="-4.15269">
        <ele>1133.411</ele>
        <time>2018-07-22T10:44:35Z</time>
      </trkpt>
      <trkpt lat="40.84288" lon="-4.153">
        <ele>1133.408</ele>
        <time>2018-07-22T10:44:44Z</time>
      </trkpt>
      <trkpt lat="40.84257" lon="-4.15334">
        <ele>1130.856</ele>
        <time>2018-07-22T10:44:52Z</time>
      </trkpt>
      <trkpt lat="40.8421" lon="-4.15371">
        <ele>1128.191</ele>
        <time>2018-07-22T10:45:01Z</time>
      </trkpt>
      <trkpt lat="40.84165" lon="-4.15412">
        <ele>1127.894</ele>
        <time>2018-07-22T10:45:15Z</time>
      </trkpt>
      <trkpt lat="40.84151" lon="-4.15439">
        <ele>1128.421</ele>
        <time>2018-07-22T10:45:21Z</time>
      </trkpt>
      <trkpt lat="40.84136" lon="-4.15455">
        <ele>1128.579</ele>
        <time>2018-07-22T10:45:25Z</time>
      </trkpt>
      <trkpt lat="40.84108" lon="-4.15478">
        <ele>1130.114</ele>
        <time>2018-07-22T10:45:32Z</time>
      </trkpt>
      <trkpt lat="40.84093" lon="-4.15489">
        <ele>1131.148</ele>
        <time>2018-07-22T10:45:36Z</time>
      </trkpt>
      <trkpt lat="40.84039" lon="-4.15522">
        <ele>1131.457</ele>
        <time>2018-07-22T10:45:48Z</time>
      </trkpt>
      <trkpt lat="40.84034" lon="-4.15524">
        <ele>1131.478</ele>
        <time>2018-07-22T10:45:49Z</time>
      </trkpt>
      <trkpt lat="40.83978" lon="-4.15548">
        <ele>1132.033</ele>
        <time>2018-07-22T10:46:01Z</time>
      </trkpt>
      <trkpt lat="40.83924" lon="-4.15567">
        <ele>1137.026</ele>
        <time>2018-07-22T10:46:18Z</time>
      </trkpt>
      <trkpt lat="40.83908" lon="-4.15575">
        <ele>1139.108</ele>
        <time>2018-07-22T10:46:25Z</time>
      </trkpt>
      <trkpt lat="40.83881" lon="-4.15583">
        <ele>1141.859</ele>
        <time>2018-07-22T10:46:37Z</time>
      </trkpt>
      <trkpt lat="40.8385" lon="-4.1557">
        <ele>1140.444</ele>
        <time>2018-07-22T10:46:48Z</time>
      </trkpt>
      <trkpt lat="40.83813" lon="-4.15517">
        <ele>1139.087</ele>
        <time>2018-07-22T10:47:06Z</time>
      </trkpt>
      <trkpt lat="40.83759" lon="-4.15523">
        <ele>1144.114</ele>
        <time>2018-07-22T10:47:28Z</time>
      </trkpt>
      <trkpt lat="40.83704" lon="-4.15524">
        <ele>1147.512</ele>
        <time>2018-07-22T10:47:49Z</time>
      </trkpt>
      <trkpt lat="40.83679" lon="-4.15522">
        <ele>1148.887</ele>
        <time>2018-07-22T10:47:57Z</time>
      </trkpt>
      <trkpt lat="40.83653" lon="-4.15515">
        <ele>1150.171</ele>
        <time>2018-07-22T10:48:06Z</time>
      </trkpt>
      <trkpt lat="40.83608" lon="-4.15473">
        <ele>1152.530</ele>
        <time>2018-07-22T10:48:26Z</time>
      </trkpt>
      <trkpt lat="40.83563" lon="-4.1543">
        <ele>1156.584</ele>
        <time>2018-07-22T10:48:47Z</time>
      </trkpt>
      <trkpt lat="40.83524" lon="-4.15375">
        <ele>1160.007</ele>
        <time>2018-07-22T10:49:07Z</time>
      </trkpt>
      <trkpt lat="40.8349" lon="-4.15317">
        <ele>1163.817</ele>
        <time>2018-07-22T10:49:26Z</time>
      </trkpt>
      <trkpt lat="40.83446" lon="-4.15271">
        <ele>1168.408</ele>
        <time>2018-07-22T10:49:46Z</time>
      </trkpt>
      <trkpt lat="40.83405" lon="-4.15221">
        <ele>1171.840</ele>
        <time>2018-07-22T10:50:06Z</time>
      </trkpt>
      <trkpt lat="40.83366" lon="-4.15171">
        <ele>1174.195</ele>
        <time>2018-07-22T10:50:26Z</time>
      </trkpt>
      <trkpt lat="40.83359" lon="-4.15154">
        <ele>1174.558</ele>
        <time>2018-07-22T10:50:34Z</time>
      </trkpt>
      <trkpt lat="40.83357" lon="-4.15151">
        <ele>1175.045</ele>
        <time>2018-07-22T10:50:53Z</time>
      </trkpt>
      <trkpt lat="40.83356" lon="-4.15149">
        <ele>1175.073</ele>
        <time>2018-07-22T10:50:54Z</time>
      </trkpt>
      <trkpt lat="40.83311" lon="-4.1511">
        <ele>1177.838</ele>
        <time>2018-07-22T10:51:11Z</time>
      </trkpt>
      <trkpt lat="40.83275" lon="-4.15054">
        <ele>1182.422</ele>
        <time>2018-07-22T10:51:31Z</time>
      </trkpt>
      <trkpt lat="40.83235" lon="-4.15001">
        <ele>1185.491</ele>
        <time>2018-07-22T10:51:50Z</time>
      </trkpt>
      <trkpt lat="40.83213" lon="-4.14974">
        <ele>1186.879</ele>
        <time>2018-07-22T10:52:01Z</time>
      </trkpt>
      <trkpt lat="40.83174" lon="-4.14922">
        <ele>1189.805</ele>
        <time>2018-07-22T10:52:21Z</time>
      </trkpt>
      <trkpt lat="40.83132" lon="-4.14873">
        <ele>1191.825</ele>
        <time>2018-07-22T10:52:39Z</time>
      </trkpt>
      <trkpt lat="40.83098" lon="-4.14836">
        <ele>1194.408</ele>
        <time>2018-07-22T10:52:54Z</time>
      </trkpt>
      <trkpt lat="40.83061" lon="-4.14781">
        <ele>1197.829</ele>
        <time>2018-07-22T10:53:14Z</time>
      </trkpt>
      <trkpt lat="40.83022" lon="-4.1474">
        <ele>1201.824</ele>
        <time>2018-07-22T10:53:34Z</time>
      </trkpt>
      <trkpt lat="40.82986" lon="-4.14686">
        <ele>1206.827</ele>
        <time>2018-07-22T10:53:58Z</time>
      </trkpt>
      <trkpt lat="40.82975" lon="-4.1467">
        <ele>1208.554</ele>
        <time>2018-07-22T10:54:06Z</time>
      </trkpt>
      <trkpt lat="40.82933" lon="-4.14624">
        <ele>1212.472</ele>
        <time>2018-07-22T10:54:32Z</time>
      </trkpt>
      <trkpt lat="40.82891" lon="-4.14579">
        <ele>1216.537</ele>
        <time>2018-07-22T10:54:58Z</time>
      </trkpt>
      <trkpt lat="40.82853" lon="-4.14526">
        <ele>1221.441</ele>
        <time>2018-07-22T10:55:27Z</time>
      </trkpt>
      <trkpt lat="40.82811" lon="-4.14478">
        <ele>1225.860</ele>
        <time>2018-07-22T10:55:54Z</time>
      </trkpt>
      <trkpt lat="40.82769" lon="-4.14432">
        <ele>1229.849</ele>
        <time>2018-07-22T10:56:18Z</time>
      </trkpt>
      <trkpt lat="40.82729" lon="-4.14382">
        <ele>1234.102</ele>
        <time>2018-07-22T10:56:44Z</time>
      </trkpt>
      <trkpt lat="40.82691" lon="-4.14331">
        <ele>1238.822</ele>
        <time>2018-07-22T10:57:10Z</time>
      </trkpt>
      <trkpt lat="40.82655" lon="-4.14278">
        <ele>1241.808</ele>
        <time>2018-07-22T10:57:34Z</time>
      </trkpt>
      <trkpt lat="40.82617" lon="-4.14226">
        <ele>1247.546</ele>
        <time>2018-07-22T10:58:01Z</time>
      </trkpt>
      <trkpt lat="40.8261" lon="-4.14217">
        <ele>1249.821</ele>
        <time>2018-07-22T10:58:07Z</time>
      </trkpt>
      <trkpt lat="40.82601" lon="-4.14215">
        <ele>1251.124</ele>
        <time>2018-07-22T10:58:13Z</time>
      </trkpt>
      <trkpt lat="40.82581" lon="-4.14287">
        <ele>1249.181</ele>
        <time>2018-07-22T10:58:30Z</time>
      </trkpt>
      <trkpt lat="40.8256" lon="-4.1436">
        <ele>1245.519</ele>
        <time>2018-07-22T10:58:38Z</time>
      </trkpt>
      <trkpt lat="40.82554" lon="-4.1438">
        <ele>1245.074</ele>
        <time>2018-07-22T10:58:40Z</time>
      </trkpt>
      <trkpt lat="40.82534" lon="-4.14422">
        <ele>1245.518</ele>
        <time>2018-07-22T10:58:45Z</time>
      </trkpt>
      <trkpt lat="40.82528" lon="-4.14453">
        <ele>1245.497</ele>
        <time>2018-07-22T10:58:49Z</time>
      </trkpt>
      <trkpt lat="40.82509" lon="-4.14509">
        <ele>1245.584</ele>
        <time>2018-07-22T10:58:57Z</time>
      </trkpt>
      <trkpt lat="40.82505" lon="-4.14545">
        <ele>1246.007</ele>
        <time>2018-07-22T10:59:02Z</time>
      </trkpt>
      <trkpt lat="40.82507" lon="-4.14612">
        <ele>1241.417</ele>
        <time>2018-07-22T10:59:09Z</time>
      </trkpt>
      <trkpt lat="40.82503" lon="-4.14634">
        <ele>1240.408</ele>
        <time>2018-07-22T10:59:11Z</time>
      </trkpt>
      <trkpt lat="40.82495" lon="-4.14656">
        <ele>1239.430</ele>
        <time>2018-07-22T10:59:13Z</time>
      </trkpt>
      <trkpt lat="40.82476" lon="-4.14714">
        <ele>1237.085</ele>
        <time>2018-07-22T10:59:18Z</time>
      </trkpt>
      <trkpt lat="40.82475" lon="-4.14737">
        <ele>1237.148</ele>
        <time>2018-07-22T10:59:20Z</time>
      </trkpt>
      <trkpt lat="40.82476" lon="-4.14768">
        <ele>1237.445</ele>
        <time>2018-07-22T10:59:23Z</time>
      </trkpt>
      <trkpt lat="40.82469" lon="-4.14819">
        <ele>1236.143</ele>
        <time>2018-07-22T10:59:28Z</time>
      </trkpt>
      <trkpt lat="40.82455" lon="-4.14894">
        <ele>1233.538</ele>
        <time>2018-07-22T10:59:35Z</time>
      </trkpt>
      <trkpt lat="40.82433" lon="-4.1496">
        <ele>1228.882</ele>
        <time>2018-07-22T10:59:41Z</time>
      </trkpt>
      <trkpt lat="40.82411" lon="-4.15036">
        <ele>1225.031</ele>
        <time>2018-07-22T10:59:47Z</time>
      </trkpt>
      <trkpt lat="40.82394" lon="-4.15117">
        <ele>1221.427</ele>
        <time>2018-07-22T10:59:53Z</time>
      </trkpt>
      <trkpt lat="40.82376" lon="-4.15185">
        <ele>1219.168</ele>
        <time>2018-07-22T10:59:58Z</time>
      </trkpt>
      <trkpt lat="40.82359" lon="-4.15253">
        <ele>1219.014</ele>
        <time>2018-07-22T11:00:04Z</time>
      </trkpt>
      <trkpt lat="40.82355" lon="-4.15263">
        <ele>1219.008</ele>
        <time>2018-07-22T11:00:05Z</time>
      </trkpt>
      <trkpt lat="40.82339" lon="-4.15301">
        <ele>1220.054</ele>
        <time>2018-07-22T11:00:09Z</time>
      </trkpt>
      <trkpt lat="40.82326" lon="-4.15347">
        <ele>1220.589</ele>
        <time>2018-07-22T11:00:14Z</time>
      </trkpt>
      <trkpt lat="40.82316" lon="-4.15378">
        <ele>1221.082</ele>
        <time>2018-07-22T11:00:18Z</time>
      </trkpt>
      <trkpt lat="40.82302" lon="-4.15451">
        <ele>1222.039</ele>
        <time>2018-07-22T11:00:27Z</time>
      </trkpt>
      <trkpt lat="40.82285" lon="-4.15528">
        <ele>1221.157</ele>
        <time>2018-07-22T11:00:36Z</time>
      </trkpt>
      <trkpt lat="40.82281" lon="-4.15544">
        <ele>1221.182</ele>
        <time>2018-07-22T11:00:38Z</time>
      </trkpt>
      <trkpt lat="40.82264" lon="-4.15612">
        <ele>1221.186</ele>
        <time>2018-07-22T11:00:47Z</time>
      </trkpt>
      <trkpt lat="40.82261" lon="-4.15626">
        <ele>1220.515</ele>
        <time>2018-07-22T11:00:49Z</time>
      </trkpt>
      <trkpt lat="40.82255" lon="-4.1564">
        <ele>1220.096</ele>
        <time>2018-07-22T11:00:51Z</time>
      </trkpt>
      <trkpt lat="40.82247" lon="-4.15651">
        <ele>1219.431</ele>
        <time>2018-07-22T11:00:53Z</time>
      </trkpt>
      <trkpt lat="40.82239" lon="-4.15658">
        <ele>1218.824</ele>
        <time>2018-07-22T11:00:55Z</time>
      </trkpt>
      <trkpt lat="40.82226" lon="-4.15665">
        <ele>1218.008</ele>
        <time>2018-07-22T11:00:58Z</time>
      </trkpt>
      <trkpt lat="40.82202" lon="-4.15686">
        <ele>1213.561</ele>
        <time>2018-07-22T11:01:06Z</time>
      </trkpt>
      <trkpt lat="40.82208" lon="-4.15711">
        <ele>1211.116</ele>
        <time>2018-07-22T11:01:12Z</time>
      </trkpt>
      <trkpt lat="40.82204" lon="-4.15724">
        <ele>1210.419</ele>
        <time>2018-07-22T11:01:16Z</time>
      </trkpt>
      <trkpt lat="40.82187" lon="-4.1578">
        <ele>1218.016</ele>
        <time>2018-07-22T11:01:36Z</time>
      </trkpt>
      <trkpt lat="40.82175" lon="-4.15784">
        <ele>1219.084</ele>
        <time>2018-07-22T11:01:41Z</time>
      </trkpt>
      <trkpt lat="40.82153" lon="-4.15779">
        <ele>1219.889</ele>
        <time>2018-07-22T11:01:56Z</time>
      </trkpt>
      <trkpt lat="40.82157" lon="-4.15791">
        <ele>1221.163</ele>
        <time>2018-07-22T11:14:59Z</time>
      </trkpt>
      <trkpt lat="40.82157" lon="-4.15793">
        <ele>1221.182</ele>
        <time>2018-07-22T11:15:00Z</time>
      </trkpt>
      <trkpt lat="40.82152" lon="-4.15853">
        <ele>1220.891</ele>
        <time>2018-07-22T11:15:18Z</time>
      </trkpt>
      <trkpt lat="40.82152" lon="-4.1589">
        <ele>1221.181</ele>
        <time>2018-07-22T11:15:28Z</time>
      </trkpt>
      <trkpt lat="40.82148" lon="-4.15905">
        <ele>1222.019</ele>
        <time>2018-07-22T11:15:32Z</time>
      </trkpt>
      <trkpt lat="40.82143" lon="-4.15922">
        <ele>1221.808</ele>
        <time>2018-07-22T11:15:36Z</time>
      </trkpt>
      <trkpt lat="40.8214" lon="-4.15934">
        <ele>1221.441</ele>
        <time>2018-07-22T11:15:39Z</time>
      </trkpt>
      <trkpt lat="40.82119" lon="-4.15974">
        <ele>1220.016</ele>
        <time>2018-07-22T11:15:46Z</time>
      </trkpt>
      <trkpt lat="40.8211" lon="-4.16021">
        <ele>1218.859</ele>
        <time>2018-07-22T11:15:52Z</time>
      </trkpt>
      <trkpt lat="40.82106" lon="-4.16044">
        <ele>1218.146</ele>
        <time>2018-07-22T11:15:55Z</time>
      </trkpt>
      <trkpt lat="40.8209" lon="-4.1611">
        <ele>1215.554</ele>
        <time>2018-07-22T11:16:04Z</time>
      </trkpt>
      <trkpt lat="40.82059" lon="-4.16177">
        <ele>1211.429</ele>
        <time>2018-07-22T11:16:11Z</time>
      </trkpt>
      <trkpt lat="40.82051" lon="-4.16195">
        <ele>1211.163</ele>
        <time>2018-07-22T11:16:13Z</time>
      </trkpt>
      <trkpt lat="40.82048" lon="-4.16205">
        <ele>1210.842</ele>
        <time>2018-07-22T11:16:14Z</time>
      </trkpt>
      <trkpt lat="40.82046" lon="-4.16225">
        <ele>1210.496</ele>
        <time>2018-07-22T11:16:16Z</time>
      </trkpt>
      <trkpt lat="40.82048" lon="-4.16253">
        <ele>1209.831</ele>
        <time>2018-07-22T11:16:19Z</time>
      </trkpt>
      <trkpt lat="40.82048" lon="-4.16264">
        <ele>1209.124</ele>
        <time>2018-07-22T11:16:20Z</time>
      </trkpt>
      <trkpt lat="40.82041" lon="-4.16311">
        <ele>1207.508</ele>
        <time>2018-07-22T11:16:24Z</time>
      </trkpt>
      <trkpt lat="40.82039" lon="-4.16365">
        <ele>1209.871</ele>
        <time>2018-07-22T11:16:29Z</time>
      </trkpt>
      <trkpt lat="40.82034" lon="-4.16381">
        <ele>1209.566</ele>
        <time>2018-07-22T11:16:31Z</time>
      </trkpt>
      <trkpt lat="40.82024" lon="-4.16389">
        <ele>1210.159</ele>
        <time>2018-07-22T11:16:33Z</time>
      </trkpt>
      <trkpt lat="40.8201" lon="-4.16394">
        <ele>1211.086</ele>
        <time>2018-07-22T11:16:36Z</time>
      </trkpt>
      <trkpt lat="40.82003" lon="-4.164">
        <ele>1211.434</ele>
        <time>2018-07-22T11:16:38Z</time>
      </trkpt>
      <trkpt lat="40.81998" lon="-4.16409">
        <ele>1211.449</ele>
        <time>2018-07-22T11:16:40Z</time>
      </trkpt>
      <trkpt lat="40.81995" lon="-4.16421">
        <ele>1211.563</ele>
        <time>2018-07-22T11:16:42Z</time>
      </trkpt>
      <trkpt lat="40.81992" lon="-4.16454">
        <ele>1212.162</ele>
        <time>2018-07-22T11:16:47Z</time>
      </trkpt>
      <trkpt lat="40.81993" lon="-4.16474">
        <ele>1212.515</ele>
        <time>2018-07-22T11:16:50Z</time>
      </trkpt>
      <trkpt lat="40.81998" lon="-4.16486">
        <ele>1212.565</ele>
        <time>2018-07-22T11:16:52Z</time>
      </trkpt>
      <trkpt lat="40.82004" lon="-4.16497">
        <ele>1212.411</ele>
        <time>2018-07-22T11:16:54Z</time>
      </trkpt>
      <trkpt lat="40.82008" lon="-4.16511">
        <ele>1212.008</ele>
        <time>2018-07-22T11:16:56Z</time>
      </trkpt>
      <trkpt lat="40.82006" lon="-4.16526">
        <ele>1211.823</ele>
        <time>2018-07-22T11:16:58Z</time>
      </trkpt>
      <trkpt lat="40.82" lon="-4.16536">
        <ele>1211.138</ele>
        <time>2018-07-22T11:17:00Z</time>
      </trkpt>
      <trkpt lat="40.81997" lon="-4.16542">
        <ele>1211.021</ele>
        <time>2018-07-22T11:17:01Z</time>
      </trkpt>
      <trkpt lat="40.81995" lon="-4.16547">
        <ele>1211.058</ele>
        <time>2018-07-22T11:17:02Z</time>
      </trkpt>
      <trkpt lat="40.81975" lon="-4.16619">
        <ele>1210.096</ele>
        <time>2018-07-22T11:17:15Z</time>
      </trkpt>
      <trkpt lat="40.81974" lon="-4.16633">
        <ele>1209.481</ele>
        <time>2018-07-22T11:17:17Z</time>
      </trkpt>
      <trkpt lat="40.81975" lon="-4.16706">
        <ele>1205.545</ele>
        <time>2018-07-22T11:17:26Z</time>
      </trkpt>
      <trkpt lat="40.81975" lon="-4.16715">
        <ele>1205.164</ele>
        <time>2018-07-22T11:17:27Z</time>
      </trkpt>
      <trkpt lat="40.81975" lon="-4.16723">
        <ele>1204.449</ele>
        <time>2018-07-22T11:17:28Z</time>
      </trkpt>
      <trkpt lat="40.81976" lon="-4.16732">
        <ele>1204.402</ele>
        <time>2018-07-22T11:17:29Z</time>
      </trkpt>
      <trkpt lat="40.81977" lon="-4.16741">
        <ele>1203.822</ele>
        <time>2018-07-22T11:17:30Z</time>
      </trkpt>
      <trkpt lat="40.81978" lon="-4.16758">
        <ele>1202.508</ele>
        <time>2018-07-22T11:17:32Z</time>
      </trkpt>
      <trkpt lat="40.81976" lon="-4.16788">
        <ele>1200.856</ele>
        <time>2018-07-22T11:17:36Z</time>
      </trkpt>
      <trkpt lat="40.8198" lon="-4.16802">
        <ele>1199.441</ele>
        <time>2018-07-22T11:17:38Z</time>
      </trkpt>
      <trkpt lat="40.81995" lon="-4.16835">
        <ele>1196.134</ele>
        <time>2018-07-22T11:17:42Z</time>
      </trkpt>
      <trkpt lat="40.82002" lon="-4.16853">
        <ele>1194.841</ele>
        <time>2018-07-22T11:17:44Z</time>
      </trkpt>
      <trkpt lat="40.82008" lon="-4.16868">
        <ele>1193.549</ele>
        <time>2018-07-22T11:17:46Z</time>
      </trkpt>
      <trkpt lat="40.82009" lon="-4.16884">
        <ele>1193.134</ele>
        <time>2018-07-22T11:17:48Z</time>
      </trkpt>
      <trkpt lat="40.82003" lon="-4.16929">
        <ele>1192.858</ele>
        <time>2018-07-22T11:17:54Z</time>
      </trkpt>
      <trkpt lat="40.82002" lon="-4.16948">
        <ele>1192.457</ele>
        <time>2018-07-22T11:17:57Z</time>
      </trkpt>
      <trkpt lat="40.81996" lon="-4.16973">
        <ele>1191.538</ele>
        <time>2018-07-22T11:18:01Z</time>
      </trkpt>
      <trkpt lat="40.81996" lon="-4.1698">
        <ele>1191.070</ele>
        <time>2018-07-22T11:18:02Z</time>
      </trkpt>
      <trkpt lat="40.81997" lon="-4.16988">
        <ele>1190.517</ele>
        <time>2018-07-22T11:18:03Z</time>
      </trkpt>
      <trkpt lat="40.82001" lon="-4.17003">
        <ele>1189.408</ele>
        <time>2018-07-22T11:18:05Z</time>
      </trkpt>
      <trkpt lat="40.82008" lon="-4.17016">
        <ele>1188.145</ele>
        <time>2018-07-22T11:18:07Z</time>
      </trkpt>
      <trkpt lat="40.82014" lon="-4.17025">
        <ele>1187.050</ele>
        <time>2018-07-22T11:18:09Z</time>
      </trkpt>
      <trkpt lat="40.82028" lon="-4.17037">
        <ele>1184.863</ele>
        <time>2018-07-22T11:18:12Z</time>
      </trkpt>
      <trkpt lat="40.82038" lon="-4.17041">
        <ele>1183.040</ele>
        <time>2018-07-22T11:18:14Z</time>
      </trkpt>
      <trkpt lat="40.82048" lon="-4.17047">
        <ele>1181.488</ele>
        <time>2018-07-22T11:18:16Z</time>
      </trkpt>
      <trkpt lat="40.82069" lon="-4.17064">
        <ele>1178.493</ele>
        <time>2018-07-22T11:18:20Z</time>
      </trkpt>
      <trkpt lat="40.82078" lon="-4.1707">
        <ele>1177.157</ele>
        <time>2018-07-22T11:18:22Z</time>
      </trkpt>
      <trkpt lat="40.82091" lon="-4.17086">
        <ele>1175.126</ele>
        <time>2018-07-22T11:18:25Z</time>
      </trkpt>
      <trkpt lat="40.82115" lon="-4.17107">
        <ele>1171.878</ele>
        <time>2018-07-22T11:18:29Z</time>
      </trkpt>
      <trkpt lat="40.82131" lon="-4.17122">
        <ele>1169.533</ele>
        <time>2018-07-22T11:18:32Z</time>
      </trkpt>
      <trkpt lat="40.82138" lon="-4.17134">
        <ele>1168.426</ele>
        <time>2018-07-22T11:18:34Z</time>
      </trkpt>
      <trkpt lat="40.82143" lon="-4.17155">
        <ele>1167.508</ele>
        <time>2018-07-22T11:18:37Z</time>
      </trkpt>
      <trkpt lat="40.82142" lon="-4.17171">
        <ele>1167.099</ele>
        <time>2018-07-22T11:18:39Z</time>
      </trkpt>
      <trkpt lat="40.82137" lon="-4.17201">
        <ele>1166.024</ele>
        <time>2018-07-22T11:18:43Z</time>
      </trkpt>
      <trkpt lat="40.82139" lon="-4.17213">
        <ele>1164.817</ele>
        <time>2018-07-22T11:18:45Z</time>
      </trkpt>
      <trkpt lat="40.82144" lon="-4.17222">
        <ele>1163.044</ele>
        <time>2018-07-22T11:18:47Z</time>
      </trkpt>
      <trkpt lat="40.82181" lon="-4.17248">
        <ele>1156.062</ele>
        <time>2018-07-22T11:19:04Z</time>
      </trkpt>
      <trkpt lat="40.82185" lon="-4.17323">
        <ele>1157.427</ele>
        <time>2018-07-22T11:19:22Z</time>
      </trkpt>
      <trkpt lat="40.82185" lon="-4.17335">
        <ele>1157.091</ele>
        <time>2018-07-22T11:19:24Z</time>
      </trkpt>
      <trkpt lat="40.82184" lon="-4.17347">
        <ele>1157.180</ele>
        <time>2018-07-22T11:19:26Z</time>
      </trkpt>
      <trkpt lat="40.82184" lon="-4.17386">
        <ele>1159.818</ele>
        <time>2018-07-22T11:19:33Z</time>
      </trkpt>
      <trkpt lat="40.82182" lon="-4.17414">
        <ele>1162.098</ele>
        <time>2018-07-22T11:19:38Z</time>
      </trkpt>
      <trkpt lat="40.82175" lon="-4.17461">
        <ele>1163.117</ele>
        <time>2018-07-22T11:19:46Z</time>
      </trkpt>
      <trkpt lat="40.82168" lon="-4.17524">
        <ele>1163.808</ele>
        <time>2018-07-22T11:19:55Z</time>
      </trkpt>
      <trkpt lat="40.8216" lon="-4.17599">
        <ele>1164.033</ele>
        <time>2018-07-22T11:20:05Z</time>
      </trkpt>
      <trkpt lat="40.82152" lon="-4.17667">
        <ele>1164.898</ele>
        <time>2018-07-22T11:20:14Z</time>
      </trkpt>
      <trkpt lat="40.82146" lon="-4.17694">
        <ele>1164.821</ele>
        <time>2018-07-22T11:20:18Z</time>
      </trkpt>
      <trkpt lat="40.82137" lon="-4.17765">
        <ele>1163.878</ele>
        <time>2018-07-22T11:20:27Z</time>
      </trkpt>
      <trkpt lat="40.82129" lon="-4.17797">
        <ele>1163.536</ele>
        <time>2018-07-22T11:20:31Z</time>
      </trkpt>
      <trkpt lat="40.82118" lon="-4.17819">
        <ele>1163.881</ele>
        <time>2018-07-22T11:20:34Z</time>
      </trkpt>
      <trkpt lat="40.82104" lon="-4.17892">
        <ele>1163.815</ele>
        <time>2018-07-22T11:20:44Z</time>
      </trkpt>
      <trkpt lat="40.82093" lon="-4.17948">
        <ele>1164.084</ele>
        <time>2018-07-22T11:20:53Z</time>
      </trkpt>
      <trkpt lat="40.82093" lon="-4.17969">
        <ele>1163.596</ele>
        <time>2018-07-22T11:20:56Z</time>
      </trkpt>
      <trkpt lat="40.8209" lon="-4.17996">
        <ele>1163.531</ele>
        <time>2018-07-22T11:21:00Z</time>
      </trkpt>
      <trkpt lat="40.82083" lon="-4.18033">
        <ele>1163.824</ele>
        <time>2018-07-22T11:21:06Z</time>
      </trkpt>
      <trkpt lat="40.82072" lon="-4.18104">
        <ele>1165.408</ele>
        <time>2018-07-22T11:21:19Z</time>
      </trkpt>
      <trkpt lat="40.82063" lon="-4.18175">
        <ele>1164.081</ele>
        <time>2018-07-22T11:21:31Z</time>
      </trkpt>
      <trkpt lat="40.82049" lon="-4.18248">
        <ele>1163.516</ele>
        <time>2018-07-22T11:21:42Z</time>
      </trkpt>
      <trkpt lat="40.82034" lon="-4.18323">
        <ele>1164.449</ele>
        <time>2018-07-22T11:21:54Z</time>
      </trkpt>
      <trkpt lat="40.82022" lon="-4.18397">
        <ele>1164.436</ele>
        <time>2018-07-22T11:22:06Z</time>
      </trkpt>
      <trkpt lat="40.82012" lon="-4.18467">
        <ele>1164.514</ele>
        <time>2018-07-22T11:22:17Z</time>
      </trkpt>
      <trkpt lat="40.82007" lon="-4.18495">
        <ele>1165.049</ele>
        <time>2018-07-22T11:22:22Z</time>
      </trkpt>
      <trkpt lat="40.82004" lon="-4.18507">
        <ele>1165.063</ele>
        <time>2018-07-22T11:22:24Z</time>
      </trkpt>
      <trkpt lat="40.81982" lon="-4.18574">
        <ele>1166.172</ele>
        <time>2018-07-22T11:22:37Z</time>
      </trkpt>
      <trkpt lat="40.8195" lon="-4.18634">
        <ele>1168.536</ele>
        <time>2018-07-22T11:22:53Z</time>
      </trkpt>
      <trkpt lat="40.81933" lon="-4.18664">
        <ele>1170.117</ele>
        <time>2018-07-22T11:23:02Z</time>
      </trkpt>
      <trkpt lat="40.8193" lon="-4.1867">
        <ele>1170.518</ele>
        <time>2018-07-22T11:23:04Z</time>
      </trkpt>
      <trkpt lat="40.81923" lon="-4.18685">
        <ele>1172.008</ele>
        <time>2018-07-22T11:23:10Z</time>
      </trkpt>
      <trkpt lat="40.81893" lon="-4.18735">
        <ele>1172.125</ele>
        <time>2018-07-22T11:23:26Z</time>
      </trkpt>
      <trkpt lat="40.81875" lon="-4.18762">
        <ele>1171.190</ele>
        <time>2018-07-22T11:23:39Z</time>
      </trkpt>
      <trkpt lat="40.81872" lon="-4.18768">
        <ele>1171.473</ele>
        <time>2018-07-22T11:23:44Z</time>
      </trkpt>
      <trkpt lat="40.81869" lon="-4.18774">
        <ele>1170.830</ele>
        <time>2018-07-22T11:24:42Z</time>
      </trkpt>
      <trkpt lat="40.81829" lon="-4.18804">
        <ele>1172.418</ele>
        <time>2018-07-22T11:24:57Z</time>
      </trkpt>
      <trkpt lat="40.81808" lon="-4.18818">
        <ele>1173.183</ele>
        <time>2018-07-22T11:25:06Z</time>
      </trkpt>
      <trkpt lat="40.81766" lon="-4.18864">
        <ele>1175.887</ele>
        <time>2018-07-22T11:25:24Z</time>
      </trkpt>
      <trkpt lat="40.81734" lon="-4.18898">
        <ele>1179.186</ele>
        <time>2018-07-22T11:25:39Z</time>
      </trkpt>
      <trkpt lat="40.81698" lon="-4.1894">
        <ele>1179.871</ele>
        <time>2018-07-22T11:25:52Z</time>
      </trkpt>
      <trkpt lat="40.81677" lon="-4.18954">
        <ele>1181.041</ele>
        <time>2018-07-22T11:26:00Z</time>
      </trkpt>
      <trkpt lat="40.8165" lon="-4.19001">
        <ele>1182.015</ele>
        <time>2018-07-22T11:26:14Z</time>
      </trkpt>
      <trkpt lat="40.81614" lon="-4.1906">
        <ele>1184.508</ele>
        <time>2018-07-22T11:26:32Z</time>
      </trkpt>
      <trkpt lat="40.81584" lon="-4.19121">
        <ele>1187.869</ele>
        <time>2018-07-22T11:26:51Z</time>
      </trkpt>
      <trkpt lat="40.81559" lon="-4.19183">
        <ele>1189.484</ele>
        <time>2018-07-22T11:27:09Z</time>
      </trkpt>
      <trkpt lat="40.81549" lon="-4.19202">
        <ele>1191.057</ele>
        <time>2018-07-22T11:27:15Z</time>
      </trkpt>
      <trkpt lat="40.81515" lon="-4.19261">
        <ele>1191.594</ele>
        <time>2018-07-22T11:27:34Z</time>
      </trkpt>
      <trkpt lat="40.81514" lon="-4.19265">
        <ele>1191.442</ele>
        <time>2018-07-22T11:27:35Z</time>
      </trkpt>
      <trkpt lat="40.81511" lon="-4.19274">
        <ele>1190.897</ele>
        <time>2018-07-22T11:27:37Z</time>
      </trkpt>
      <trkpt lat="40.81499" lon="-4.19297">
        <ele>1190.821</ele>
        <time>2018-07-22T11:27:42Z</time>
      </trkpt>
      <trkpt lat="40.81487" lon="-4.19313">
        <ele>1192.080</ele>
        <time>2018-07-22T11:27:46Z</time>
      </trkpt>
      <trkpt lat="40.81453" lon="-4.19374">
        <ele>1191.162</ele>
        <time>2018-07-22T11:27:58Z</time>
      </trkpt>
      <trkpt lat="40.81442" lon="-4.19391">
        <ele>1191.883</ele>
        <time>2018-07-22T11:28:01Z</time>
      </trkpt>
      <trkpt lat="40.81415" lon="-4.19461">
        <ele>1190.411</ele>
        <time>2018-07-22T11:28:11Z</time>
      </trkpt>
      <trkpt lat="40.81408" lon="-4.19475">
        <ele>1190.408</ele>
        <time>2018-07-22T11:28:13Z</time>
      </trkpt>
      <trkpt lat="40.81384" lon="-4.19505">
        <ele>1191.588</ele>
        <time>2018-07-22T11:28:19Z</time>
      </trkpt>
      <trkpt lat="40.8138" lon="-4.19517">
        <ele>1191.813</ele>
        <time>2018-07-22T11:28:21Z</time>
      </trkpt>
      <trkpt lat="40.81372" lon="-4.19549">
        <ele>1192.816</ele>
        <time>2018-07-22T11:28:26Z</time>
      </trkpt>
      <trkpt lat="40.81357" lon="-4.19589">
        <ele>1194.033</ele>
        <time>2018-07-22T11:28:33Z</time>
      </trkpt>
      <trkpt lat="40.81348" lon="-4.19604">
        <ele>1195.011</ele>
        <time>2018-07-22T11:28:36Z</time>
      </trkpt>
      <trkpt lat="40.81308" lon="-4.19652">
        <ele>1198.056</ele>
        <time>2018-07-22T11:28:48Z</time>
      </trkpt>
      <trkpt lat="40.81279" lon="-4.19693">
        <ele>1200.540</ele>
        <time>2018-07-22T11:28:59Z</time>
      </trkpt>
      <trkpt lat="40.81237" lon="-4.19741">
        <ele>1203.149</ele>
        <time>2018-07-22T11:29:14Z</time>
      </trkpt>
      <trkpt lat="40.81186" lon="-4.19777">
        <ele>1205.436</ele>
        <time>2018-07-22T11:29:30Z</time>
      </trkpt>
      <trkpt lat="40.8114" lon="-4.19816">
        <ele>1207.517</ele>
        <time>2018-07-22T11:29:46Z</time>
      </trkpt>
      <trkpt lat="40.81096" lon="-4.19863">
        <ele>1207.818</ele>
        <time>2018-07-22T11:29:58Z</time>
      </trkpt>
      <trkpt lat="40.81052" lon="-4.19895">
        <ele>1209.408</ele>
        <time>2018-07-22T11:30:11Z</time>
      </trkpt>
      <trkpt lat="40.81044" lon="-4.199">
        <ele>1208.825</ele>
        <time>2018-07-22T11:30:13Z</time>
      </trkpt>
      <trkpt lat="40.81035" lon="-4.19912">
        <ele>1208.070</ele>
        <time>2018-07-22T11:30:15Z</time>
      </trkpt>
      <trkpt lat="40.81028" lon="-4.19925">
        <ele>1207.863</ele>
        <time>2018-07-22T11:30:17Z</time>
      </trkpt>
      <trkpt lat="40.81009" lon="-4.19945">
        <ele>1208.820</ele>
        <time>2018-07-22T11:30:21Z</time>
      </trkpt>
      <trkpt lat="40.80986" lon="-4.19967">
        <ele>1210.168</ele>
        <time>2018-07-22T11:30:29Z</time>
      </trkpt>
      <trkpt lat="40.80961" lon="-4.19976">
        <ele>1212.073</ele>
        <time>2018-07-22T11:30:36Z</time>
      </trkpt>
      <trkpt lat="40.80953" lon="-4.19979">
        <ele>1212.117</ele>
        <time>2018-07-22T11:30:38Z</time>
      </trkpt>
      <trkpt lat="40.80903" lon="-4.20006">
        <ele>1212.026</ele>
        <time>2018-07-22T11:30:49Z</time>
      </trkpt>
      <trkpt lat="40.80898" lon="-4.20009">
        <ele>1212.162</ele>
        <time>2018-07-22T11:30:50Z</time>
      </trkpt>
      <trkpt lat="40.80883" lon="-4.20017">
        <ele>1212.483</ele>
        <time>2018-07-22T11:30:53Z</time>
      </trkpt>
      <trkpt lat="40.80874" lon="-4.20023">
        <ele>1213.011</ele>
        <time>2018-07-22T11:30:55Z</time>
      </trkpt>
      <trkpt lat="40.80859" lon="-4.20036">
        <ele>1213.008</ele>
        <time>2018-07-22T11:30:59Z</time>
      </trkpt>
      <trkpt lat="40.80852" lon="-4.20042">
        <ele>1213.058</ele>
        <time>2018-07-22T11:31:01Z</time>
      </trkpt>
      <trkpt lat="40.80803" lon="-4.20078">
        <ele>1216.423</ele>
        <time>2018-07-22T11:31:15Z</time>
      </trkpt>
      <trkpt lat="40.80795" lon="-4.20083">
        <ele>1216.156</ele>
        <time>2018-07-22T11:31:17Z</time>
      </trkpt>
      <trkpt lat="40.80773" lon="-4.20091">
        <ele>1217.413</ele>
        <time>2018-07-22T11:31:22Z</time>
      </trkpt>
      <trkpt lat="40.80752" lon="-4.201">
        <ele>1217.411</ele>
        <time>2018-07-22T11:31:27Z</time>
      </trkpt>
      <trkpt lat="40.80736" lon="-4.20098">
        <ele>1218.046</ele>
        <time>2018-07-22T11:31:31Z</time>
      </trkpt>
      <trkpt lat="40.80681" lon="-4.2011">
        <ele>1218.850</ele>
        <time>2018-07-22T11:31:42Z</time>
      </trkpt>
      <trkpt lat="40.80625" lon="-4.20113">
        <ele>1221.469</ele>
        <time>2018-07-22T11:31:56Z</time>
      </trkpt>
      <trkpt lat="40.80569" lon="-4.20135">
        <ele>1216.867</ele>
        <time>2018-07-22T11:32:07Z</time>
      </trkpt>
      <trkpt lat="40.80523" lon="-4.20172">
        <ele>1216.181</ele>
        <time>2018-07-22T11:32:14Z</time>
      </trkpt>
      <trkpt lat="40.80487" lon="-4.20229">
        <ele>1212.819</ele>
        <time>2018-07-22T11:32:21Z</time>
      </trkpt>
      <trkpt lat="40.80482" lon="-4.20239">
        <ele>1212.108</ele>
        <time>2018-07-22T11:32:22Z</time>
      </trkpt>
      <trkpt lat="40.80457" lon="-4.20275">
        <ele>1211.158</ele>
        <time>2018-07-22T11:32:26Z</time>
      </trkpt>
      <trkpt lat="40.80422" lon="-4.20335">
        <ele>1208.813</ele>
        <time>2018-07-22T11:32:34Z</time>
      </trkpt>
      <trkpt lat="40.80418" lon="-4.20345">
        <ele>1220.0</ele>
        <time>2019-03-03T09:30:08Z</time>
      </trkpt>
      <trkpt lat="40.80414" lon="-4.20356">
        <ele>1219.0</ele>
        <time>2019-03-03T09:30:10Z</time>
      </trkpt>
      <trkpt lat="40.8041" lon="-4.20368">
        <ele>1218.0</ele>
        <time>2019-03-03T09:30:12Z</time>
      </trkpt>
      <trkpt lat="40.80406" lon="-4.20379">
        <ele>1216.0</ele>
        <time>2019-03-03T09:30:14Z</time>
      </trkpt>
      <trkpt lat="40.80402" lon="-4.20389">
        <ele>1215.0</ele>
        <time>2019-03-03T09:30:17Z</time>
      </trkpt>
      <trkpt lat="40.80399" lon="-4.204">
        <ele>1215.0</ele>
        <time>2019-03-03T09:30:20Z</time>
      </trkpt>
      <trkpt lat="40.80396" lon="-4.2041">
        <ele>1216.0</ele>
        <time>2019-03-03T09:30:24Z</time>
      </trkpt>
      <trkpt lat="40.8039" lon="-4.20421">
        <ele>1205.0</ele>
        <time>2019-03-03T09:30:38Z</time>
      </trkpt>
      <trkpt lat="40.80385" lon="-4.20429">
        <ele>1212.0</ele>
        <time>2019-03-03T09:30:45Z</time>
      </trkpt>
      <trkpt lat="40.8038" lon="-4.20438">
        <ele>1211.0</ele>
        <time>2019-03-03T09:30:49Z</time>
      </trkpt>
      <trkpt lat="40.80376" lon="-4.20447">
        <ele>1212.0</ele>
        <time>2019-03-03T09:30:52Z</time>
      </trkpt>
      <trkpt lat="40.80371" lon="-4.20456">
        <ele>1211.0</ele>
        <time>2019-03-03T09:30:55Z</time>
      </trkpt>
      <trkpt lat="40.80365" lon="-4.20466">
        <ele>1211.0</ele>
        <time>2019-03-03T09:30:58Z</time>
      </trkpt>
      <trkpt lat="40.80361" lon="-4.20476">
        <ele>1212.0</ele>
        <time>2019-03-03T09:31:01Z</time>
      </trkpt>
      <trkpt lat="40.80355" lon="-4.20485">
        <ele>1211.0</ele>
        <time>2019-03-03T09:31:04Z</time>
      </trkpt>
      <trkpt lat="40.80351" lon="-4.20495">
        <ele>1212.0</ele>
        <time>2019-03-03T09:31:07Z</time>
      </trkpt>
      <trkpt lat="40.80347" lon="-4.20506">
        <ele>1213.0</ele>
        <time>2019-03-03T09:31:10Z</time>
      </trkpt>
      <trkpt lat="40.80343" lon="-4.20517">
        <ele>1214.0</ele>
        <time>2019-03-03T09:31:13Z</time>
      </trkpt>
      <trkpt lat="40.80339" lon="-4.20528">
        <ele>1215.0</ele>
        <time>2019-03-03T09:31:16Z</time>
      </trkpt>
      <trkpt lat="40.80332" lon="-4.20537">
        <ele>1214.0</ele>
        <time>2019-03-03T09:31:19Z</time>
      </trkpt>
      <trkpt lat="40.80324" lon="-4.20541">
        <ele>1215.0</ele>
        <time>2019-03-03T09:31:22Z</time>
      </trkpt>
      <trkpt lat="40.80315" lon="-4.20544">
        <ele>1215.0</ele>
        <time>2019-03-03T09:31:25Z</time>
      </trkpt>
      <trkpt lat="40.80308" lon="-4.20548">
        <ele>1215.0</ele>
        <time>2019-03-03T09:31:28Z</time>
      </trkpt>
      <trkpt lat="40.803" lon="-4.20553">
        <ele>1215.0</ele>
        <time>2019-03-03T09:31:31Z</time>
      </trkpt>
      <trkpt lat="40.80292" lon="-4.20558">
        <ele>1216.0</ele>
        <time>2019-03-03T09:31:34Z</time>
      </trkpt>
      <trkpt lat="40.80283" lon="-4.20563">
        <ele>1213.0</ele>
        <time>2019-03-03T09:31:37Z</time>
      </trkpt>
      <trkpt lat="40.80276" lon="-4.20566">
        <ele>1214.0</ele>
        <time>2019-03-03T09:31:39Z</time>
      </trkpt>
      <trkpt lat="40.80269" lon="-4.2057">
        <ele>1214.0</ele>
        <time>2019-03-03T09:31:41Z</time>
      </trkpt>
      <trkpt lat="40.80262" lon="-4.20575">
        <ele>1214.0</ele>
        <time>2019-03-03T09:31:43Z</time>
      </trkpt>
      <trkpt lat="40.80252" lon="-4.20581">
        <ele>1215.0</ele>
        <time>2019-03-03T09:31:46Z</time>
      </trkpt>
      <trkpt lat="40.80244" lon="-4.20587">
        <ele>1213.0</ele>
        <time>2019-03-03T09:31:48Z</time>
      </trkpt>
      <trkpt lat="40.80236" lon="-4.20593">
        <ele>1213.0</ele>
        <time>2019-03-03T09:31:50Z</time>
      </trkpt>
      <trkpt lat="40.80227" lon="-4.20599">
        <ele>1213.0</ele>
        <time>2019-03-03T09:31:52Z</time>
      </trkpt>
      <trkpt lat="40.8022" lon="-4.20606">
        <ele>1214.0</ele>
        <time>2019-03-03T09:31:54Z</time>
      </trkpt>
      <trkpt lat="40.80214" lon="-4.20615">
        <ele>1215.0</ele>
        <time>2019-03-03T09:31:56Z</time>
      </trkpt>
      <trkpt lat="40.80207" lon="-4.20623">
        <ele>1214.0</ele>
        <time>2019-03-03T09:31:58Z</time>
      </trkpt>
      <trkpt lat="40.802" lon="-4.20632">
        <ele>1213.0</ele>
        <time>2019-03-03T09:32:00Z</time>
      </trkpt>
      <trkpt lat="40.80195" lon="-4.20639">
        <ele>1212.0</ele>
        <time>2019-03-03T09:32:02Z</time>
      </trkpt>
      <trkpt lat="40.80188" lon="-4.20649">
        <ele>1212.0</ele>
        <time>2019-03-03T09:32:05Z</time>
      </trkpt>
      <trkpt lat="40.8018" lon="-4.20656">
        <ele>1211.0</ele>
        <time>2019-03-03T09:32:08Z</time>
      </trkpt>
      <trkpt lat="40.80171" lon="-4.20663">
        <ele>1209.0</ele>
        <time>2019-03-03T09:32:11Z</time>
      </trkpt>
      <trkpt lat="40.80163" lon="-4.20672">
        <ele>1211.0</ele>
        <time>2019-03-03T09:32:14Z</time>
      </trkpt>
      <trkpt lat="40.80157" lon="-4.20684">
        <ele>1213.0</ele>
        <time>2019-03-03T09:32:17Z</time>
      </trkpt>
      <trkpt lat="40.80154" lon="-4.20693">
        <ele>1213.0</ele>
        <time>2019-03-03T09:32:19Z</time>
      </trkpt>
      <trkpt lat="40.8015" lon="-4.20702">
        <ele>1213.0</ele>
        <time>2019-03-03T09:32:21Z</time>
      </trkpt>
      <trkpt lat="40.80145" lon="-4.20711">
        <ele>1214.0</ele>
        <time>2019-03-03T09:32:23Z</time>
      </trkpt>
      <trkpt lat="40.80141" lon="-4.20719">
        <ele>1213.0</ele>
        <time>2019-03-03T09:32:25Z</time>
      </trkpt>
      <trkpt lat="40.80135" lon="-4.20728">
        <ele>1211.0</ele>
        <time>2019-03-03T09:32:27Z</time>
      </trkpt>
      <trkpt lat="40.80128" lon="-4.20737">
        <ele>1212.0</ele>
        <time>2019-03-03T09:32:29Z</time>
      </trkpt>
      <trkpt lat="40.80121" lon="-4.20746">
        <ele>1212.0</ele>
        <time>2019-03-03T09:32:31Z</time>
      </trkpt>
      <trkpt lat="40.80113" lon="-4.20757">
        <ele>1210.0</ele>
        <time>2019-03-03T09:32:33Z</time>
      </trkpt>
      <trkpt lat="40.80106" lon="-4.20771">
        <ele>1208.0</ele>
        <time>2019-03-03T09:32:35Z</time>
      </trkpt>
      <trkpt lat="40.80099" lon="-4.20786">
        <ele>1206.0</ele>
        <time>2019-03-03T09:32:37Z</time>
      </trkpt>
      <trkpt lat="40.80094" lon="-4.20794">
        <ele>1205.0</ele>
        <time>2019-03-03T09:32:38Z</time>
      </trkpt>
      <trkpt lat="40.80088" lon="-4.20801">
        <ele>1204.0</ele>
        <time>2019-03-03T09:32:39Z</time>
      </trkpt>
      <trkpt lat="40.80081" lon="-4.20805">
        <ele>1204.0</ele>
        <time>2019-03-03T09:32:40Z</time>
      </trkpt>
      <trkpt lat="40.80075" lon="-4.20809">
        <ele>1204.0</ele>
        <time>2019-03-03T09:32:41Z</time>
      </trkpt>
      <trkpt lat="40.80065" lon="-4.20821">
        <ele>1205.0</ele>
        <time>2019-03-03T09:32:43Z</time>
      </trkpt>
      <trkpt lat="40.80061" lon="-4.2083">
        <ele>1204.0</ele>
        <time>2019-03-03T09:32:44Z</time>
      </trkpt>
      <trkpt lat="40.80057" lon="-4.20838">
        <ele>1204.0</ele>
        <time>2019-03-03T09:32:45Z</time>
      </trkpt>
      <trkpt lat="40.80049" lon="-4.20855">
        <ele>1202.0</ele>
        <time>2019-03-03T09:32:47Z</time>
      </trkpt>
      <trkpt lat="40.80045" lon="-4.20865">
        <ele>1203.0</ele>
        <time>2019-03-03T09:32:48Z</time>
      </trkpt>
      <trkpt lat="40.8004" lon="-4.20873">
        <ele>1203.0</ele>
        <time>2019-03-03T09:32:49Z</time>
      </trkpt>
      <trkpt lat="40.80036" lon="-4.2088">
        <ele>1204.0</ele>
        <time>2019-03-03T09:32:50Z</time>
      </trkpt>
      <trkpt lat="40.80029" lon="-4.20893">
        <ele>1204.0</ele>
        <time>2019-03-03T09:32:52Z</time>
      </trkpt>
      <trkpt lat="40.80021" lon="-4.20905">
        <ele>1203.0</ele>
        <time>2019-03-03T09:32:54Z</time>
      </trkpt>
      <trkpt lat="40.80012" lon="-4.20918">
        <ele>1202.0</ele>
        <time>2019-03-03T09:32:56Z</time>
      </trkpt>
      <trkpt lat="40.80003" lon="-4.20929">
        <ele>1201.0</ele>
        <time>2019-03-03T09:32:58Z</time>
      </trkpt>
      <trkpt lat="40.79994" lon="-4.20941">
        <ele>1201.0</ele>
        <time>2019-03-03T09:33:00Z</time>
      </trkpt>
      <trkpt lat="40.79986" lon="-4.20951">
        <ele>1201.0</ele>
        <time>2019-03-03T09:33:02Z</time>
      </trkpt>
      <trkpt lat="40.7998" lon="-4.20961">
        <ele>1201.0</ele>
        <time>2019-03-03T09:33:04Z</time>
      </trkpt>
      <trkpt lat="40.7997" lon="-4.20965">
        <ele>1203.0</ele>
        <time>2019-03-03T09:33:06Z</time>
      </trkpt>
      <trkpt lat="40.79963" lon="-4.2097">
        <ele>1202.0</ele>
        <time>2019-03-03T09:33:08Z</time>
      </trkpt>
      <trkpt lat="40.79954" lon="-4.20975">
        <ele>1202.0</ele>
        <time>2019-03-03T09:33:10Z</time>
      </trkpt>
      <trkpt lat="40.79947" lon="-4.2098">
        <ele>1203.0</ele>
        <time>2019-03-03T09:33:12Z</time>
      </trkpt>
      <trkpt lat="40.79938" lon="-4.20984">
        <ele>1205.0</ele>
        <time>2019-03-03T09:33:15Z</time>
      </trkpt>
      <trkpt lat="40.79929" lon="-4.20987">
        <ele>1208.0</ele>
        <time>2019-03-03T09:33:18Z</time>
      </trkpt>
      <trkpt lat="40.79919" lon="-4.20989">
        <ele>1208.0</ele>
        <time>2019-03-03T09:33:21Z</time>
      </trkpt>
      <trkpt lat="40.79909" lon="-4.20991">
        <ele>1209.0</ele>
        <time>2019-03-03T09:33:24Z</time>
      </trkpt>
      <trkpt lat="40.79901" lon="-4.20991">
        <ele>1211.0</ele>
        <time>2019-03-03T09:33:27Z</time>
      </trkpt>
      <trkpt lat="40.79894" lon="-4.20994">
        <ele>1211.0</ele>
        <time>2019-03-03T09:33:30Z</time>
      </trkpt>
      <trkpt lat="40.79887" lon="-4.21002">
        <ele>1212.0</ele>
        <time>2019-03-03T09:33:34Z</time>
      </trkpt>
      <trkpt lat="40.79883" lon="-4.21012">
        <ele>1214.0</ele>
        <time>2019-03-03T09:33:38Z</time>
      </trkpt>
      <trkpt lat="40.79881" lon="-4.21023">
        <ele>1214.0</ele>
        <time>2019-03-03T09:33:42Z</time>
      </trkpt>
      <trkpt lat="40.7988" lon="-4.21036">
        <ele>1212.0</ele>
        <time>2019-03-03T09:33:45Z</time>
      </trkpt>
      <trkpt lat="40.79881" lon="-4.21046">
        <ele>1213.0</ele>
        <time>2019-03-03T09:33:47Z</time>
      </trkpt>
      <trkpt lat="40.7988" lon="-4.21056">
        <ele>1212.0</ele>
        <time>2019-03-03T09:33:49Z</time>
      </trkpt>
      <trkpt lat="40.79877" lon="-4.21066">
        <ele>1213.0</ele>
        <time>2019-03-03T09:33:51Z</time>
      </trkpt>
      <trkpt lat="40.79872" lon="-4.21075">
        <ele>1210.0</ele>
        <time>2019-03-03T09:33:53Z</time>
      </trkpt>
      <trkpt lat="40.79868" lon="-4.21083">
        <ele>1209.0</ele>
        <time>2019-03-03T09:33:55Z</time>
      </trkpt>
      <trkpt lat="40.79864" lon="-4.21095">
        <ele>1210.0</ele>
        <time>2019-03-03T09:33:58Z</time>
      </trkpt>
      <trkpt lat="40.79862" lon="-4.21109">
        <ele>1211.0</ele>
        <time>2019-03-03T09:34:01Z</time>
      </trkpt>
      <trkpt lat="40.7986" lon="-4.21123">
        <ele>1210.0</ele>
        <time>2019-03-03T09:34:04Z</time>
      </trkpt>
      <trkpt lat="40.79856" lon="-4.21133">
        <ele>1209.0</ele>
        <time>2019-03-03T09:34:06Z</time>
      </trkpt>
      <trkpt lat="40.79853" lon="-4.21142">
        <ele>1209.0</ele>
        <time>2019-03-03T09:34:08Z</time>
      </trkpt>
      <trkpt lat="40.79849" lon="-4.21152">
        <ele>1210.0</ele>
        <time>2019-03-03T09:34:10Z</time>
      </trkpt>
      <trkpt lat="40.79845" lon="-4.21163">
        <ele>1212.0</ele>
        <time>2019-03-03T09:34:13Z</time>
      </trkpt>
      <trkpt lat="40.7984" lon="-4.21174">
        <ele>1210.0</ele>
        <time>2019-03-03T09:34:16Z</time>
      </trkpt>
      <trkpt lat="40.79835" lon="-4.21183">
        <ele>1209.0</ele>
        <time>2019-03-03T09:34:19Z</time>
      </trkpt>
      <trkpt lat="40.79831" lon="-4.21192">
        <ele>1211.0</ele>
        <time>2019-03-03T09:34:22Z</time>
      </trkpt>
      <trkpt lat="40.79826" lon="-4.21201">
        <ele>1211.0</ele>
        <time>2019-03-03T09:34:25Z</time>
      </trkpt>
      <trkpt lat="40.7982" lon="-4.21213">
        <ele>1210.0</ele>
        <time>2019-03-03T09:34:28Z</time>
      </trkpt>
      <trkpt lat="40.79817" lon="-4.21222">
        <ele>1210.0</ele>
        <time>2019-03-03T09:34:30Z</time>
      </trkpt>
      <trkpt lat="40.79812" lon="-4.21233">
        <ele>1209.0</ele>
        <time>2019-03-03T09:34:33Z</time>
      </trkpt>
      <trkpt lat="40.79807" lon="-4.21241">
        <ele>1210.0</ele>
        <time>2019-03-03T09:34:36Z</time>
      </trkpt>
      <trkpt lat="40.79802" lon="-4.21251">
        <ele>1212.0</ele>
        <time>2019-03-03T09:34:40Z</time>
      </trkpt>
      <trkpt lat="40.79798" lon="-4.21261">
        <ele>1213.0</ele>
        <time>2019-03-03T09:34:44Z</time>
      </trkpt>
      <trkpt lat="40.79794" lon="-4.21272">
        <ele>1212.0</ele>
        <time>2019-03-03T09:34:48Z</time>
      </trkpt>
      <trkpt lat="40.79788" lon="-4.21282">
        <ele>1215.0</ele>
        <time>2019-03-03T09:34:52Z</time>
      </trkpt>
      <trkpt lat="40.79785" lon="-4.2129">
        <ele>1215.0</ele>
        <time>2019-03-03T09:34:55Z</time>
      </trkpt>
      <trkpt lat="40.79782" lon="-4.21299">
        <ele>1215.0</ele>
        <time>2019-03-03T09:34:58Z</time>
      </trkpt>
      <trkpt lat="40.79778" lon="-4.2131">
        <ele>1215.0</ele>
        <time>2019-03-03T09:35:02Z</time>
      </trkpt>
      <trkpt lat="40.79772" lon="-4.21318">
        <ele>1218.0</ele>
        <time>2019-03-03T09:35:06Z</time>
      </trkpt>
      <trkpt lat="40.79768" lon="-4.21327">
        <ele>1220.0</ele>
        <time>2019-03-03T09:35:10Z</time>
      </trkpt>
      <trkpt lat="40.79764" lon="-4.21336">
        <ele>1220.0</ele>
        <time>2019-03-03T09:35:14Z</time>
      </trkpt>
      <trkpt lat="40.7976" lon="-4.21344">
        <ele>1220.0</ele>
        <time>2019-03-03T09:35:18Z</time>
      </trkpt>
      <trkpt lat="40.79755" lon="-4.21354">
        <ele>1220.0</ele>
        <time>2019-03-03T09:35:22Z</time>
      </trkpt>
      <trkpt lat="40.7975" lon="-4.21363">
        <ele>1222.0</ele>
        <time>2019-03-03T09:35:26Z</time>
      </trkpt>
      <trkpt lat="40.79746" lon="-4.21374">
        <ele>1222.0</ele>
        <time>2019-03-03T09:35:30Z</time>
      </trkpt>
      <trkpt lat="40.79742" lon="-4.21385">
        <ele>1223.0</ele>
        <time>2019-03-03T09:35:34Z</time>
      </trkpt>
      <trkpt lat="40.79738" lon="-4.21395">
        <ele>1223.0</ele>
        <time>2019-03-03T09:35:38Z</time>
      </trkpt>
      <trkpt lat="40.79734" lon="-4.21404">
        <ele>1224.0</ele>
        <time>2019-03-03T09:35:41Z</time>
      </trkpt>
      <trkpt lat="40.7973" lon="-4.21413">
        <ele>1225.0</ele>
        <time>2019-03-03T09:35:44Z</time>
      </trkpt>
      <trkpt lat="40.79727" lon="-4.21422">
        <ele>1225.0</ele>
        <time>2019-03-03T09:35:47Z</time>
      </trkpt>
      <trkpt lat="40.79724" lon="-4.21433">
        <ele>1228.0</ele>
        <time>2019-03-03T09:35:51Z</time>
      </trkpt>
      <trkpt lat="40.7972" lon="-4.21444">
        <ele>1228.0</ele>
        <time>2019-03-03T09:35:55Z</time>
      </trkpt>
      <trkpt lat="40.79716" lon="-4.21452">
        <ele>1232.0</ele>
        <time>2019-03-03T09:35:59Z</time>
      </trkpt>
      <trkpt lat="40.79711" lon="-4.21462">
        <ele>1234.0</ele>
        <time>2019-03-03T09:36:04Z</time>
      </trkpt>
      <trkpt lat="40.7971" lon="-4.21468">
        <ele>1233.0</ele>
        <time>2019-03-03T09:36:11Z</time>
      </trkpt>
      <trkpt lat="40.79702" lon="-4.21477">
        <ele>1233.0</ele>
        <time>2019-03-03T09:39:12Z</time>
      </trkpt>
      <trkpt lat="40.79697" lon="-4.21485">
        <ele>1233.0</ele>
        <time>2019-03-03T09:39:16Z</time>
      </trkpt>
      <trkpt lat="40.79691" lon="-4.21495">
        <ele>1232.0</ele>
        <time>2019-03-03T09:39:20Z</time>
      </trkpt>
      <trkpt lat="40.79685" lon="-4.21504">
        <ele>1232.0</ele>
        <time>2019-03-03T09:39:24Z</time>
      </trkpt>
      <trkpt lat="40.79677" lon="-4.21511">
        <ele>1233.0</ele>
        <time>2019-03-03T09:39:28Z</time>
      </trkpt>
      <trkpt lat="40.79671" lon="-4.21518">
        <ele>1234.0</ele>
        <time>2019-03-03T09:39:32Z</time>
      </trkpt>
      <trkpt lat="40.79663" lon="-4.21525">
        <ele>1234.0</ele>
        <time>2019-03-03T09:39:36Z</time>
      </trkpt>
      <trkpt lat="40.79657" lon="-4.21532">
        <ele>1236.0</ele>
        <time>2019-03-03T09:39:39Z</time>
      </trkpt>
      <trkpt lat="40.79649" lon="-4.21538">
        <ele>1237.0</ele>
        <time>2019-03-03T09:39:42Z</time>
      </trkpt>
      <trkpt lat="40.79641" lon="-4.21543">
        <ele>1237.0</ele>
        <time>2019-03-03T09:39:45Z</time>
      </trkpt>
      <trkpt lat="40.79633" lon="-4.21548">
        <ele>1237.0</ele>
        <time>2019-03-03T09:39:48Z</time>
      </trkpt>
      <trkpt lat="40.79626" lon="-4.21553">
        <ele>1236.0</ele>
        <time>2019-03-03T09:39:51Z</time>
      </trkpt>
      <trkpt lat="40.79617" lon="-4.21558">
        <ele>1235.0</ele>
        <time>2019-03-03T09:39:54Z</time>
      </trkpt>
      <trkpt lat="40.79609" lon="-4.21562">
        <ele>1234.0</ele>
        <time>2019-03-03T09:39:56Z</time>
      </trkpt>
      <trkpt lat="40.79599" lon="-4.21566">
        <ele>1234.0</ele>
        <time>2019-03-03T09:39:59Z</time>
      </trkpt>
      <trkpt lat="40.79589" lon="-4.21571">
        <ele>1233.0</ele>
        <time>2019-03-03T09:40:02Z</time>
      </trkpt>
      <trkpt lat="40.79579" lon="-4.21575">
        <ele>1232.0</ele>
        <time>2019-03-03T09:40:05Z</time>
      </trkpt>
      <trkpt lat="40.79571" lon="-4.21581">
        <ele>1231.0</ele>
        <time>2019-03-03T09:40:07Z</time>
      </trkpt>
      <trkpt lat="40.79563" lon="-4.21583">
        <ele>1230.0</ele>
        <time>2019-03-03T09:40:09Z</time>
      </trkpt>
      <trkpt lat="40.79556" lon="-4.21586">
        <ele>1229.0</ele>
        <time>2019-03-03T09:40:11Z</time>
      </trkpt>
      <trkpt lat="40.79549" lon="-4.2159">
        <ele>1228.0</ele>
        <time>2019-03-03T09:40:13Z</time>
      </trkpt>
      <trkpt lat="40.7954" lon="-4.21594">
        <ele>1227.0</ele>
        <time>2019-03-03T09:40:15Z</time>
      </trkpt>
      <trkpt lat="40.7953" lon="-4.21599">
        <ele>1224.0</ele>
        <time>2019-03-03T09:40:17Z</time>
      </trkpt>
      <trkpt lat="40.79517" lon="-4.21599">
        <ele>1224.0</ele>
        <time>2019-03-03T09:40:19Z</time>
      </trkpt>
      <trkpt lat="40.79504" lon="-4.21601">
        <ele>1223.0</ele>
        <time>2019-03-03T09:40:21Z</time>
      </trkpt>
      <trkpt lat="40.79497" lon="-4.21603">
        <ele>1222.0</ele>
        <time>2019-03-03T09:40:22Z</time>
      </trkpt>
      <trkpt lat="40.79484" lon="-4.21606">
        <ele>1222.0</ele>
        <time>2019-03-03T09:40:24Z</time>
      </trkpt>
      <trkpt lat="40.79471" lon="-4.21607">
        <ele>1220.0</ele>
        <time>2019-03-03T09:40:26Z</time>
      </trkpt>
      <trkpt lat="40.79457" lon="-4.21604">
        <ele>1221.0</ele>
        <time>2019-03-03T09:40:28Z</time>
      </trkpt>
      <trkpt lat="40.79449" lon="-4.21603">
        <ele>1219.0</ele>
        <time>2019-03-03T09:40:29Z</time>
      </trkpt>
      <trkpt lat="40.79441" lon="-4.21603">
        <ele>1220.0</ele>
        <time>2019-03-03T09:40:30Z</time>
      </trkpt>
      <trkpt lat="40.79432" lon="-4.21601">
        <ele>1219.0</ele>
        <time>2019-03-03T09:40:31Z</time>
      </trkpt>
      <trkpt lat="40.79423" lon="-4.21598">
        <ele>1219.0</ele>
        <time>2019-03-03T09:40:32Z</time>
      </trkpt>
      <trkpt lat="40.79415" lon="-4.21596">
        <ele>1218.0</ele>
        <time>2019-03-03T09:40:33Z</time>
      </trkpt>
      <trkpt lat="40.79406" lon="-4.21594">
        <ele>1215.0</ele>
        <time>2019-03-03T09:40:34Z</time>
      </trkpt>
      <trkpt lat="40.79397" lon="-4.21592">
        <ele>1214.0</ele>
        <time>2019-03-03T09:40:35Z</time>
      </trkpt>
      <trkpt lat="40.79387" lon="-4.21589">
        <ele>1217.0</ele>
        <time>2019-03-03T09:40:36Z</time>
      </trkpt>
      <trkpt lat="40.79378" lon="-4.21587">
        <ele>1216.0</ele>
        <time>2019-03-03T09:40:37Z</time>
      </trkpt>
      <trkpt lat="40.79369" lon="-4.21585">
        <ele>1216.0</ele>
        <time>2019-03-03T09:40:38Z</time>
      </trkpt>
      <trkpt lat="40.79361" lon="-4.21584">
        <ele>1216.0</ele>
        <time>2019-03-03T09:40:39Z</time>
      </trkpt>
      <trkpt lat="40.79353" lon="-4.21584">
        <ele>1214.0</ele>
        <time>2019-03-03T09:40:40Z</time>
      </trkpt>
      <trkpt lat="40.79341" lon="-4.21587">
        <ele>1211.0</ele>
        <time>2019-03-03T09:40:42Z</time>
      </trkpt>
      <trkpt lat="40.79332" lon="-4.21595">
        <ele>1208.0</ele>
        <time>2019-03-03T09:40:44Z</time>
      </trkpt>
      <trkpt lat="40.79327" lon="-4.21607">
        <ele>1208.0</ele>
        <time>2019-03-03T09:40:46Z</time>
      </trkpt>
      <trkpt lat="40.79321" lon="-4.21625">
        <ele>1208.0</ele>
        <time>2019-03-03T09:40:49Z</time>
      </trkpt>
      <trkpt lat="40.79314" lon="-4.21635">
        <ele>1209.0</ele>
        <time>2019-03-03T09:40:51Z</time>
      </trkpt>
      <trkpt lat="40.7931" lon="-4.21643">
        <ele>1208.0</ele>
        <time>2019-03-03T09:40:52Z</time>
      </trkpt>
      <trkpt lat="40.79304" lon="-4.21651">
        <ele>1207.0</ele>
        <time>2019-03-03T09:40:53Z</time>
      </trkpt>
      <trkpt lat="40.79299" lon="-4.21658">
        <ele>1208.0</ele>
        <time>2019-03-03T09:40:54Z</time>
      </trkpt>
      <trkpt lat="40.79289" lon="-4.2167">
        <ele>1208.0</ele>
        <time>2019-03-03T09:40:56Z</time>
      </trkpt>
      <trkpt lat="40.79282" lon="-4.21674">
        <ele>1208.0</ele>
        <time>2019-03-03T09:40:57Z</time>
      </trkpt>
      <trkpt lat="40.79275" lon="-4.21679">
        <ele>1207.0</ele>
        <time>2019-03-03T09:40:58Z</time>
      </trkpt>
      <trkpt lat="40.79268" lon="-4.21683">
        <ele>1206.0</ele>
        <time>2019-03-03T09:40:59Z</time>
      </trkpt>
      <trkpt lat="40.7926" lon="-4.21686">
        <ele>1205.0</ele>
        <time>2019-03-03T09:41:00Z</time>
      </trkpt>
      <trkpt lat="40.79248" lon="-4.21687">
        <ele>1206.0</ele>
        <time>2019-03-03T09:41:02Z</time>
      </trkpt>
      <trkpt lat="40.79237" lon="-4.21687">
        <ele>1205.0</ele>
        <time>2019-03-03T09:41:04Z</time>
      </trkpt>
      <trkpt lat="40.79229" lon="-4.21689">
        <ele>1204.0</ele>
        <time>2019-03-03T09:41:06Z</time>
      </trkpt>
      <trkpt lat="40.79221" lon="-4.21699">
        <ele>1204.0</ele>
        <time>2019-03-03T09:41:09Z</time>
      </trkpt>
      <trkpt lat="40.79216" lon="-4.21709">
        <ele>1203.0</ele>
        <time>2019-03-03T09:41:11Z</time>
      </trkpt>
      <trkpt lat="40.7921" lon="-4.21718">
        <ele>1202.0</ele>
        <time>2019-03-03T09:41:13Z</time>
      </trkpt>
      <trkpt lat="40.79204" lon="-4.21727">
        <ele>1204.0</ele>
        <time>2019-03-03T09:41:15Z</time>
      </trkpt>
      <trkpt lat="40.79194" lon="-4.21732">
        <ele>1205.0</ele>
        <time>2019-03-03T09:41:17Z</time>
      </trkpt>
      <trkpt lat="40.79184" lon="-4.21731">
        <ele>1203.0</ele>
        <time>2019-03-03T09:41:19Z</time>
      </trkpt>
      <trkpt lat="40.79176" lon="-4.21725">
        <ele>1203.0</ele>
        <time>2019-03-03T09:41:21Z</time>
      </trkpt>
      <trkpt lat="40.7917" lon="-4.2172">
        <ele>1205.0</ele>
        <time>2019-03-03T09:41:23Z</time>
      </trkpt>
      <trkpt lat="40.79163" lon="-4.21716">
        <ele>1206.0</ele>
        <time>2019-03-03T09:41:25Z</time>
      </trkpt>
      <trkpt lat="40.79153" lon="-4.21714">
        <ele>1208.0</ele>
        <time>2019-03-03T09:41:28Z</time>
      </trkpt>
      <trkpt lat="40.79143" lon="-4.21716">
        <ele>1202.0</ele>
        <time>2019-03-03T09:41:30Z</time>
      </trkpt>
      <trkpt lat="40.79135" lon="-4.21718">
        <ele>1201.0</ele>
        <time>2019-03-03T09:41:32Z</time>
      </trkpt>
      <trkpt lat="40.79127" lon="-4.21722">
        <ele>1200.0</ele>
        <time>2019-03-03T09:41:34Z</time>
      </trkpt>
      <trkpt lat="40.79118" lon="-4.21727">
        <ele>1197.0</ele>
        <time>2019-03-03T09:41:36Z</time>
      </trkpt>
      <trkpt lat="40.7911" lon="-4.21734">
        <ele>1195.0</ele>
        <time>2019-03-03T09:41:38Z</time>
      </trkpt>
      <trkpt lat="40.79104" lon="-4.21742">
        <ele>1199.0</ele>
        <time>2019-03-03T09:41:40Z</time>
      </trkpt>
      <trkpt lat="40.79098" lon="-4.2175">
        <ele>1198.0</ele>
        <time>2019-03-03T09:41:42Z</time>
      </trkpt>
      <trkpt lat="40.79092" lon="-4.21757">
        <ele>1198.0</ele>
        <time>2019-03-03T09:41:44Z</time>
      </trkpt>
      <trkpt lat="40.79084" lon="-4.21762">
        <ele>1199.0</ele>
        <time>2019-03-03T09:41:46Z</time>
      </trkpt>
      <trkpt lat="40.79078" lon="-4.21768">
        <ele>1198.0</ele>
        <time>2019-03-03T09:41:48Z</time>
      </trkpt>
      <trkpt lat="40.7907" lon="-4.21776">
        <ele>1198.0</ele>
        <time>2019-03-03T09:41:51Z</time>
      </trkpt>
      <trkpt lat="40.79065" lon="-4.21783">
        <ele>1199.0</ele>
        <time>2019-03-03T09:41:53Z</time>
      </trkpt>
      <trkpt lat="40.7906" lon="-4.2179">
        <ele>1200.0</ele>
        <time>2019-03-03T09:41:55Z</time>
      </trkpt>
      <trkpt lat="40.79057" lon="-4.21799">
        <ele>1199.0</ele>
        <time>2019-03-03T09:41:57Z</time>
      </trkpt>
      <trkpt lat="40.79058" lon="-4.2181">
        <ele>1199.0</ele>
        <time>2019-03-03T09:41:59Z</time>
      </trkpt>
      <trkpt lat="40.79061" lon="-4.21821">
        <ele>1199.0</ele>
        <time>2019-03-03T09:42:01Z</time>
      </trkpt>
      <trkpt lat="40.79067" lon="-4.21834">
        <ele>1198.0</ele>
        <time>2019-03-03T09:42:03Z</time>
      </trkpt>
      <trkpt lat="40.79075" lon="-4.21846">
        <ele>1199.0</ele>
        <time>2019-03-03T09:42:05Z</time>
      </trkpt>
      <trkpt lat="40.79085" lon="-4.21858">
        <ele>1199.0</ele>
        <time>2019-03-03T09:42:07Z</time>
      </trkpt>
      <trkpt lat="40.79096" lon="-4.21867">
        <ele>1198.0</ele>
        <time>2019-03-03T09:42:09Z</time>
      </trkpt>
      <trkpt lat="40.79109" lon="-4.21874">
        <ele>1194.0</ele>
        <time>2019-03-03T09:42:11Z</time>
      </trkpt>
      <trkpt lat="40.79116" lon="-4.21878">
        <ele>1193.0</ele>
        <time>2019-03-03T09:42:12Z</time>
      </trkpt>
      <trkpt lat="40.79122" lon="-4.21884">
        <ele>1193.0</ele>
        <time>2019-03-03T09:42:13Z</time>
      </trkpt>
      <trkpt lat="40.79128" lon="-4.2189">
        <ele>1193.0</ele>
        <time>2019-03-03T09:42:14Z</time>
      </trkpt>
      <trkpt lat="40.79135" lon="-4.21895">
        <ele>1193.0</ele>
        <time>2019-03-03T09:42:15Z</time>
      </trkpt>
      <trkpt lat="40.79144" lon="-4.219">
        <ele>1193.0</ele>
        <time>2019-03-03T09:42:16Z</time>
      </trkpt>
      <trkpt lat="40.79152" lon="-4.21904">
        <ele>1193.0</ele>
        <time>2019-03-03T09:42:17Z</time>
      </trkpt>
      <trkpt lat="40.79161" lon="-4.21908">
        <ele>1193.0</ele>
        <time>2019-03-03T09:42:18Z</time>
      </trkpt>
      <trkpt lat="40.79169" lon="-4.21909">
        <ele>1193.0</ele>
        <time>2019-03-03T09:42:19Z</time>
      </trkpt>
      <trkpt lat="40.79177" lon="-4.21909">
        <ele>1193.0</ele>
        <time>2019-03-03T09:42:20Z</time>
      </trkpt>
      <trkpt lat="40.79186" lon="-4.21912">
        <ele>1192.0</ele>
        <time>2019-03-03T09:42:21Z</time>
      </trkpt>
      <trkpt lat="40.79193" lon="-4.21918">
        <ele>1192.0</ele>
        <time>2019-03-03T09:42:22Z</time>
      </trkpt>
      <trkpt lat="40.79198" lon="-4.21927">
        <ele>1191.0</ele>
        <time>2019-03-03T09:42:23Z</time>
      </trkpt>
      <trkpt lat="40.79202" lon="-4.21936">
        <ele>1190.0</ele>
        <time>2019-03-03T09:42:24Z</time>
      </trkpt>
      <trkpt lat="40.79205" lon="-4.21946">
        <ele>1189.0</ele>
        <time>2019-03-03T09:42:25Z</time>
      </trkpt>
      <trkpt lat="40.79207" lon="-4.21957">
        <ele>1189.0</ele>
        <time>2019-03-03T09:42:26Z</time>
      </trkpt>
      <trkpt lat="40.79205" lon="-4.21973">
        <ele>1189.0</ele>
        <time>2019-03-03T09:42:28Z</time>
      </trkpt>
      <trkpt lat="40.79199" lon="-4.21988">
        <ele>1188.0</ele>
        <time>2019-03-03T09:42:30Z</time>
      </trkpt>
      <trkpt lat="40.79194" lon="-4.22">
        <ele>1188.0</ele>
        <time>2019-03-03T09:42:32Z</time>
      </trkpt>
      <trkpt lat="40.79185" lon="-4.22005">
        <ele>1190.0</ele>
        <time>2019-03-03T09:42:34Z</time>
      </trkpt>
      <trkpt lat="40.79177" lon="-4.22004">
        <ele>1191.0</ele>
        <time>2019-03-03T09:42:36Z</time>
      </trkpt>
      <trkpt lat="40.79169" lon="-4.22001">
        <ele>1192.0</ele>
        <time>2019-03-03T09:42:39Z</time>
      </trkpt>
      <trkpt lat="40.7916" lon="-4.21997">
        <ele>1193.0</ele>
        <time>2019-03-03T09:42:42Z</time>
      </trkpt>
      <trkpt lat="40.79151" lon="-4.21993">
        <ele>1195.0</ele>
        <time>2019-03-03T09:42:45Z</time>
      </trkpt>
      <trkpt lat="40.79142" lon="-4.21989">
        <ele>1197.0</ele>
        <time>2019-03-03T09:42:48Z</time>
      </trkpt>
      <trkpt lat="40.79135" lon="-4.21984">
        <ele>1196.0</ele>
        <time>2019-03-03T09:42:51Z</time>
      </trkpt>
      <trkpt lat="40.79127" lon="-4.21978">
        <ele>1196.0</ele>
        <time>2019-03-03T09:42:54Z</time>
      </trkpt>
      <trkpt lat="40.7912" lon="-4.21973">
        <ele>1195.0</ele>
        <time>2019-03-03T09:42:57Z</time>
      </trkpt>
      <trkpt lat="40.79113" lon="-4.21968">
        <ele>1195.0</ele>
        <time>2019-03-03T09:43:00Z</time>
      </trkpt>
      <trkpt lat="40.79106" lon="-4.21964">
        <ele>1197.0</ele>
        <time>2019-03-03T09:43:03Z</time>
      </trkpt>
      <trkpt lat="40.79099" lon="-4.21961">
        <ele>1198.0</ele>
        <time>2019-03-03T09:43:06Z</time>
      </trkpt>
      <trkpt lat="40.79091" lon="-4.21956">
        <ele>1198.0</ele>
        <time>2019-03-03T09:43:10Z</time>
      </trkpt>
      <trkpt lat="40.79083" lon="-4.21952">
        <ele>1201.0</ele>
        <time>2019-03-03T09:43:14Z</time>
      </trkpt>
      <trkpt lat="40.79074" lon="-4.21947">
        <ele>1201.0</ele>
        <time>2019-03-03T09:43:18Z</time>
      </trkpt>
      <trkpt lat="40.79067" lon="-4.21942">
        <ele>1202.0</ele>
        <time>2019-03-03T09:43:21Z</time>
      </trkpt>
      <trkpt lat="40.7906" lon="-4.21938">
        <ele>1202.0</ele>
        <time>2019-03-03T09:43:24Z</time>
      </trkpt>
      <trkpt lat="40.79053" lon="-4.21934">
        <ele>1203.0</ele>
        <time>2019-03-03T09:43:27Z</time>
      </trkpt>
      <trkpt lat="40.79046" lon="-4.21929">
        <ele>1204.0</ele>
        <time>2019-03-03T09:43:30Z</time>
      </trkpt>
      <trkpt lat="40.79038" lon="-4.21923">
        <ele>1206.0</ele>
        <time>2019-03-03T09:43:33Z</time>
      </trkpt>
      <trkpt lat="40.7903" lon="-4.21917">
        <ele>1206.0</ele>
        <time>2019-03-03T09:43:36Z</time>
      </trkpt>
      <trkpt lat="40.79021" lon="-4.2191">
        <ele>1204.0</ele>
        <time>2019-03-03T09:43:39Z</time>
      </trkpt>
      <trkpt lat="40.79013" lon="-4.21904">
        <ele>1204.0</ele>
        <time>2019-03-03T09:43:42Z</time>
      </trkpt>
      <trkpt lat="40.79005" lon="-4.21898">
        <ele>1203.0</ele>
        <time>2019-03-03T09:43:45Z</time>
      </trkpt>
      <trkpt lat="40.78997" lon="-4.21892">
        <ele>1202.0</ele>
        <time>2019-03-03T09:43:48Z</time>
      </trkpt>
      <trkpt lat="40.7899" lon="-4.21887">
        <ele>1203.0</ele>
        <time>2019-03-03T09:43:51Z</time>
      </trkpt>
      <trkpt lat="40.78982" lon="-4.21881">
        <ele>1203.0</ele>
        <time>2019-03-03T09:43:54Z</time>
      </trkpt>
      <trkpt lat="40.78973" lon="-4.21875">
        <ele>1200.0</ele>
        <time>2019-03-03T09:43:57Z</time>
      </trkpt>
      <trkpt lat="40.78966" lon="-4.2187">
        <ele>1197.0</ele>
        <time>2019-03-03T09:43:59Z</time>
      </trkpt>
      <trkpt lat="40.78958" lon="-4.21864">
        <ele>1197.0</ele>
        <time>2019-03-03T09:44:01Z</time>
      </trkpt>
      <trkpt lat="40.78948" lon="-4.21861">
        <ele>1198.0</ele>
        <time>2019-03-03T09:44:03Z</time>
      </trkpt>
      <trkpt lat="40.78938" lon="-4.21864">
        <ele>1198.0</ele>
        <time>2019-03-03T09:44:05Z</time>
      </trkpt>
      <trkpt lat="40.78928" lon="-4.21873">
        <ele>1196.0</ele>
        <time>2019-03-03T09:44:07Z</time>
      </trkpt>
      <trkpt lat="40.78922" lon="-4.2188">
        <ele>1195.0</ele>
        <time>2019-03-03T09:44:08Z</time>
      </trkpt>
      <trkpt lat="40.78915" lon="-4.21886">
        <ele>1195.0</ele>
        <time>2019-03-03T09:44:09Z</time>
      </trkpt>
      <trkpt lat="40.78908" lon="-4.21892">
        <ele>1195.0</ele>
        <time>2019-03-03T09:44:10Z</time>
      </trkpt>
      <trkpt lat="40.789" lon="-4.219">
        <ele>1194.0</ele>
        <time>2019-03-03T09:44:11Z</time>
      </trkpt>
      <trkpt lat="40.78893" lon="-4.21907">
        <ele>1193.0</ele>
        <time>2019-03-03T09:44:12Z</time>
      </trkpt>
      <trkpt lat="40.78885" lon="-4.21916">
        <ele>1192.0</ele>
        <time>2019-03-03T09:44:13Z</time>
      </trkpt>
      <trkpt lat="40.78877" lon="-4.21923">
        <ele>1191.0</ele>
        <time>2019-03-03T09:44:14Z</time>
      </trkpt>
      <trkpt lat="40.78869" lon="-4.2193">
        <ele>1190.0</ele>
        <time>2019-03-03T09:44:15Z</time>
      </trkpt>
      <trkpt lat="40.7886" lon="-4.21937">
        <ele>1190.0</ele>
        <time>2019-03-03T09:44:16Z</time>
      </trkpt>
      <trkpt lat="40.78853" lon="-4.21944">
        <ele>1189.0</ele>
        <time>2019-03-03T09:44:17Z</time>
      </trkpt>
      <trkpt lat="40.78844" lon="-4.2195">
        <ele>1188.0</ele>
        <time>2019-03-03T09:44:18Z</time>
      </trkpt>
      <trkpt lat="40.78833" lon="-4.21957">
        <ele>1187.0</ele>
        <time>2019-03-03T09:44:19Z</time>
      </trkpt>
      <trkpt lat="40.78826" lon="-4.21964">
        <ele>1186.0</ele>
        <time>2019-03-03T09:44:20Z</time>
      </trkpt>
      <trkpt lat="40.78818" lon="-4.21971">
        <ele>1186.0</ele>
        <time>2019-03-03T09:44:21Z</time>
      </trkpt>
      <trkpt lat="40.78811" lon="-4.21979">
        <ele>1185.0</ele>
        <time>2019-03-03T09:44:22Z</time>
      </trkpt>
      <trkpt lat="40.78806" lon="-4.21987">
        <ele>1184.0</ele>
        <time>2019-03-03T09:44:23Z</time>
      </trkpt>
      <trkpt lat="40.78802" lon="-4.21996">
        <ele>1183.0</ele>
        <time>2019-03-03T09:44:24Z</time>
      </trkpt>
      <trkpt lat="40.78795" lon="-4.22013">
        <ele>1181.0</ele>
        <time>2019-03-03T09:44:26Z</time>
      </trkpt>
      <trkpt lat="40.78791" lon="-4.22021">
        <ele>1180.0</ele>
        <time>2019-03-03T09:44:27Z</time>
      </trkpt>
      <trkpt lat="40.78784" lon="-4.22029">
        <ele>1179.0</ele>
        <time>2019-03-03T09:44:28Z</time>
      </trkpt>
      <trkpt lat="40.78776" lon="-4.22033">
        <ele>1176.0</ele>
        <time>2019-03-03T09:44:29Z</time>
      </trkpt>
      <trkpt lat="40.78768" lon="-4.22037">
        <ele>1175.0</ele>
        <time>2019-03-03T09:44:30Z</time>
      </trkpt>
      <trkpt lat="40.78759" lon="-4.2204">
        <ele>1175.0</ele>
        <time>2019-03-03T09:44:31Z</time>
      </trkpt>
      <trkpt lat="40.78752" lon="-4.22043">
        <ele>1175.0</ele>
        <time>2019-03-03T09:44:32Z</time>
      </trkpt>
      <trkpt lat="40.78745" lon="-4.22048">
        <ele>1173.0</ele>
        <time>2019-03-03T09:44:33Z</time>
      </trkpt>
      <trkpt lat="40.78733" lon="-4.22056">
        <ele>1173.0</ele>
        <time>2019-03-03T09:44:35Z</time>
      </trkpt>
      <trkpt lat="40.78722" lon="-4.22066">
        <ele>1173.0</ele>
        <time>2019-03-03T09:44:37Z</time>
      </trkpt>
      <trkpt lat="40.78711" lon="-4.22072">
        <ele>1173.0</ele>
        <time>2019-03-03T09:44:39Z</time>
      </trkpt>
      <trkpt lat="40.78699" lon="-4.22072">
        <ele>1173.0</ele>
        <time>2019-03-03T09:44:41Z</time>
      </trkpt>
      <trkpt lat="40.78689" lon="-4.22073">
        <ele>1173.0</ele>
        <time>2019-03-03T09:44:43Z</time>
      </trkpt>
      <trkpt lat="40.78678" lon="-4.22073">
        <ele>1174.0</ele>
        <time>2019-03-03T09:44:45Z</time>
      </trkpt>
      <trkpt lat="40.78668" lon="-4.22076">
        <ele>1175.0</ele>
        <time>2019-03-03T09:44:47Z</time>
      </trkpt>
      <trkpt lat="40.7866" lon="-4.22086">
        <ele>1175.0</ele>
        <time>2019-03-03T09:44:49Z</time>
      </trkpt>
      <trkpt lat="40.78652" lon="-4.22096">
        <ele>1174.0</ele>
        <time>2019-03-03T09:44:51Z</time>
      </trkpt>
      <trkpt lat="40.78643" lon="-4.22105">
        <ele>1173.0</ele>
        <time>2019-03-03T09:44:53Z</time>
      </trkpt>
      <trkpt lat="40.78633" lon="-4.22113">
        <ele>1172.0</ele>
        <time>2019-03-03T09:44:55Z</time>
      </trkpt>
      <trkpt lat="40.78625" lon="-4.22121">
        <ele>1172.0</ele>
        <time>2019-03-03T09:44:57Z</time>
      </trkpt>
      <trkpt lat="40.78618" lon="-4.22133">
        <ele>1171.0</ele>
        <time>2019-03-03T09:44:59Z</time>
      </trkpt>
      <trkpt lat="40.78611" lon="-4.2215">
        <ele>1169.0</ele>
        <time>2019-03-03T09:45:01Z</time>
      </trkpt>
      <trkpt lat="40.78606" lon="-4.22159">
        <ele>1168.0</ele>
        <time>2019-03-03T09:45:02Z</time>
      </trkpt>
      <trkpt lat="40.78601" lon="-4.22166">
        <ele>1166.0</ele>
        <time>2019-03-03T09:45:03Z</time>
      </trkpt>
      <trkpt lat="40.78594" lon="-4.22174">
        <ele>1165.0</ele>
        <time>2019-03-03T09:45:04Z</time>
      </trkpt>
      <trkpt lat="40.7859" lon="-4.22183">
        <ele>1164.0</ele>
        <time>2019-03-03T09:45:05Z</time>
      </trkpt>
      <trkpt lat="40.78587" lon="-4.22194">
        <ele>1163.0</ele>
        <time>2019-03-03T09:45:06Z</time>
      </trkpt>
      <trkpt lat="40.78584" lon="-4.22204">
        <ele>1162.0</ele>
        <time>2019-03-03T09:45:07Z</time>
      </trkpt>
      <trkpt lat="40.78582" lon="-4.22214">
        <ele>1162.0</ele>
        <time>2019-03-03T09:45:08Z</time>
      </trkpt>
      <trkpt lat="40.78576" lon="-4.22228">
        <ele>1162.0</ele>
        <time>2019-03-03T09:45:10Z</time>
      </trkpt>
      <trkpt lat="40.78567" lon="-4.2224">
        <ele>1162.0</ele>
        <time>2019-03-03T09:45:12Z</time>
      </trkpt>
      <trkpt lat="40.78558" lon="-4.22253">
        <ele>1165.0</ele>
        <time>2019-03-03T09:45:14Z</time>
      </trkpt>
      <trkpt lat="40.78554" lon="-4.22261">
        <ele>1164.0</ele>
        <time>2019-03-03T09:45:15Z</time>
      </trkpt>
      <trkpt lat="40.78547" lon="-4.22275">
        <ele>1163.0</ele>
        <time>2019-03-03T09:45:17Z</time>
      </trkpt>
      <trkpt lat="40.7854" lon="-4.22289">
        <ele>1164.0</ele>
        <time>2019-03-03T09:45:19Z</time>
      </trkpt>
      <trkpt lat="40.78532" lon="-4.22303">
        <ele>1164.0</ele>
        <time>2019-03-03T09:45:21Z</time>
      </trkpt>
      <trkpt lat="40.78525" lon="-4.22316">
        <ele>1165.0</ele>
        <time>2019-03-03T09:45:23Z</time>
      </trkpt>
      <trkpt lat="40.7852" lon="-4.22332">
        <ele>1165.0</ele>
        <time>2019-03-03T09:45:25Z</time>
      </trkpt>
      <trkpt lat="40.78517" lon="-4.22348">
        <ele>1166.0</ele>
        <time>2019-03-03T09:45:27Z</time>
      </trkpt>
      <trkpt lat="40.78508" lon="-4.22361">
        <ele>1167.0</ele>
        <time>2019-03-03T09:45:29Z</time>
      </trkpt>
      <trkpt lat="40.78498" lon="-4.22372">
        <ele>1166.0</ele>
        <time>2019-03-03T09:45:31Z</time>
      </trkpt>
      <trkpt lat="40.78489" lon="-4.22383">
        <ele>1165.0</ele>
        <time>2019-03-03T09:45:33Z</time>
      </trkpt>
      <trkpt lat="40.78482" lon="-4.2239">
        <ele>1164.0</ele>
        <time>2019-03-03T09:45:34Z</time>
      </trkpt>
      <trkpt lat="40.78476" lon="-4.22397">
        <ele>1164.0</ele>
        <time>2019-03-03T09:45:35Z</time>
      </trkpt>
      <trkpt lat="40.7847" lon="-4.22405">
        <ele>1164.0</ele>
        <time>2019-03-03T09:45:36Z</time>
      </trkpt>
      <trkpt lat="40.78466" lon="-4.22414">
        <ele>1164.0</ele>
        <time>2019-03-03T09:45:37Z</time>
      </trkpt>
      <trkpt lat="40.78464" lon="-4.22423">
        <ele>1164.0</ele>
        <time>2019-03-03T09:45:38Z</time>
      </trkpt>
      <trkpt lat="40.78458" lon="-4.22439">
        <ele>1162.0</ele>
        <time>2019-03-03T09:45:40Z</time>
      </trkpt>
      <trkpt lat="40.78453" lon="-4.22456">
        <ele>1161.0</ele>
        <time>2019-03-03T09:45:42Z</time>
      </trkpt>
      <trkpt lat="40.78446" lon="-4.22469">
        <ele>1159.0</ele>
        <time>2019-03-03T09:45:44Z</time>
      </trkpt>
      <trkpt lat="40.7844" lon="-4.22478">
        <ele>1159.0</ele>
        <time>2019-03-03T09:45:46Z</time>
      </trkpt>
      <trkpt lat="40.78433" lon="-4.22481">
        <ele>1156.0</ele>
        <time>2019-03-03T09:45:52Z</time>
      </trkpt>
      <trkpt lat="40.7843" lon="-4.22481">
        <ele>1157.0</ele>
        <time>2019-03-03T09:45:59Z</time>
      </trkpt>
      <trkpt lat="40.78429" lon="-4.22471">
        <ele>1161.0</ele>
        <time>2019-03-03T09:46:04Z</time>
      </trkpt>
      <trkpt lat="40.78425" lon="-4.22461">
        <ele>1160.0</ele>
        <time>2019-03-03T09:46:08Z</time>
      </trkpt>
      <trkpt lat="40.78421" lon="-4.22451">
        <ele>1160.0</ele>
        <time>2019-03-03T09:46:11Z</time>
      </trkpt>
      <trkpt lat="40.78418" lon="-4.22439">
        <ele>1159.0</ele>
        <time>2019-03-03T09:46:14Z</time>
      </trkpt>
      <trkpt lat="40.78415" lon="-4.22427">
        <ele>1159.0</ele>
        <time>2019-03-03T09:46:17Z</time>
      </trkpt>
      <trkpt lat="40.78412" lon="-4.22415">
        <ele>1160.0</ele>
        <time>2019-03-03T09:46:20Z</time>
      </trkpt>
      <trkpt lat="40.7841" lon="-4.22403">
        <ele>1162.0</ele>
        <time>2019-03-03T09:46:23Z</time>
      </trkpt>
      <trkpt lat="40.78408" lon="-4.22392">
        <ele>1166.0</ele>
        <time>2019-03-03T09:46:26Z</time>
      </trkpt>
      <trkpt lat="40.78405" lon="-4.22382">
        <ele>1168.0</ele>
        <time>2019-03-03T09:46:29Z</time>
      </trkpt>
      <trkpt lat="40.78403" lon="-4.22371">
        <ele>1168.0</ele>
        <time>2019-03-03T09:46:32Z</time>
      </trkpt>
      <trkpt lat="40.78399" lon="-4.22361">
        <ele>1167.0</ele>
        <time>2019-03-03T09:46:35Z</time>
      </trkpt>
      <trkpt lat="40.78396" lon="-4.2235">
        <ele>1167.0</ele>
        <time>2019-03-03T09:46:38Z</time>
      </trkpt>
      <trkpt lat="40.78393" lon="-4.22339">
        <ele>1166.0</ele>
        <time>2019-03-03T09:46:41Z</time>
      </trkpt>
      <trkpt lat="40.7839" lon="-4.22328">
        <ele>1166.0</ele>
        <time>2019-03-03T09:46:44Z</time>
      </trkpt>
      <trkpt lat="40.78388" lon="-4.22318">
        <ele>1167.0</ele>
        <time>2019-03-03T09:46:47Z</time>
      </trkpt>
      <trkpt lat="40.78385" lon="-4.22308">
        <ele>1161.0</ele>
        <time>2019-03-03T09:46:50Z</time>
      </trkpt>
      <trkpt lat="40.78379" lon="-4.22301">
        <ele>1160.0</ele>
        <time>2019-03-03T09:46:53Z</time>
      </trkpt>
      <trkpt lat="40.78371" lon="-4.22298">
        <ele>1159.0</ele>
        <time>2019-03-03T09:46:56Z</time>
      </trkpt>
      <trkpt lat="40.78362" lon="-4.22298">
        <ele>1159.0</ele>
        <time>2019-03-03T09:46:59Z</time>
      </trkpt>
      <trkpt lat="40.78351" lon="-4.22297">
        <ele>1159.0</ele>
        <time>2019-03-03T09:47:02Z</time>
      </trkpt>
      <trkpt lat="40.78343" lon="-4.22298">
        <ele>1159.0</ele>
        <time>2019-03-03T09:47:04Z</time>
      </trkpt>
      <trkpt lat="40.78334" lon="-4.22298">
        <ele>1159.0</ele>
        <time>2019-03-03T09:47:06Z</time>
      </trkpt>
      <trkpt lat="40.78324" lon="-4.22299">
        <ele>1158.0</ele>
        <time>2019-03-03T09:47:08Z</time>
      </trkpt>
      <trkpt lat="40.78313" lon="-4.22299">
        <ele>1160.0</ele>
        <time>2019-03-03T09:47:10Z</time>
      </trkpt>
      <trkpt lat="40.783" lon="-4.22298">
        <ele>1160.0</ele>
        <time>2019-03-03T09:47:12Z</time>
      </trkpt>
      <trkpt lat="40.78286" lon="-4.22299">
        <ele>1159.0</ele>
        <time>2019-03-03T09:47:14Z</time>
      </trkpt>
      <trkpt lat="40.78272" lon="-4.22299">
        <ele>1159.0</ele>
        <time>2019-03-03T09:47:16Z</time>
      </trkpt>
      <trkpt lat="40.78264" lon="-4.22297">
        <ele>1158.0</ele>
        <time>2019-03-03T09:47:17Z</time>
      </trkpt>
      <trkpt lat="40.78256" lon="-4.22297">
        <ele>1159.0</ele>
        <time>2019-03-03T09:47:18Z</time>
      </trkpt>
      <trkpt lat="40.78241" lon="-4.22298">
        <ele>1157.0</ele>
        <time>2019-03-03T09:47:20Z</time>
      </trkpt>
      <trkpt lat="40.78226" lon="-4.22298">
        <ele>1157.0</ele>
        <time>2019-03-03T09:47:22Z</time>
      </trkpt>
      <trkpt lat="40.78211" lon="-4.22298">
        <ele>1158.0</ele>
        <time>2019-03-03T09:47:24Z</time>
      </trkpt>
      <trkpt lat="40.78203" lon="-4.22298">
        <ele>1158.0</ele>
        <time>2019-03-03T09:47:25Z</time>
      </trkpt>
      <trkpt lat="40.78195" lon="-4.22298">
        <ele>1157.0</ele>
        <time>2019-03-03T09:47:26Z</time>
      </trkpt>
      <trkpt lat="40.78188" lon="-4.22299">
        <ele>1157.0</ele>
        <time>2019-03-03T09:47:27Z</time>
      </trkpt>
      <trkpt lat="40.78174" lon="-4.22299">
        <ele>1157.0</ele>
        <time>2019-03-03T09:47:29Z</time>
      </trkpt>
      <trkpt lat="40.78162" lon="-4.22298">
        <ele>1156.0</ele>
        <time>2019-03-03T09:47:31Z</time>
      </trkpt>
      <trkpt lat="40.7815" lon="-4.22299">
        <ele>1155.0</ele>
        <time>2019-03-03T09:47:33Z</time>
      </trkpt>
      <trkpt lat="40.78138" lon="-4.223">
        <ele>1155.0</ele>
        <time>2019-03-03T09:47:35Z</time>
      </trkpt>
      <trkpt lat="40.78125" lon="-4.22301">
        <ele>1152.0</ele>
        <time>2019-03-03T09:47:37Z</time>
      </trkpt>
      <trkpt lat="40.78116" lon="-4.22298">
        <ele>1152.0</ele>
        <time>2019-03-03T09:47:39Z</time>
      </trkpt>
      <trkpt lat="40.78108" lon="-4.22298">
        <ele>1154.0</ele>
        <time>2019-03-03T09:47:41Z</time>
      </trkpt>
      <trkpt lat="40.781" lon="-4.22298">
        <ele>1154.0</ele>
        <time>2019-03-03T09:47:43Z</time>
      </trkpt>
      <trkpt lat="40.78091" lon="-4.22298">
        <ele>1154.0</ele>
        <time>2019-03-03T09:47:45Z</time>
      </trkpt>
      <trkpt lat="40.78084" lon="-4.22298">
        <ele>1151.0</ele>
        <time>2019-03-03T09:47:47Z</time>
      </trkpt>
      <trkpt lat="40.78076" lon="-4.22297">
        <ele>1151.0</ele>
        <time>2019-03-03T09:47:49Z</time>
      </trkpt>
      <trkpt lat="40.78066" lon="-4.22296">
        <ele>1151.0</ele>
        <time>2019-03-03T09:47:52Z</time>
      </trkpt>
      <trkpt lat="40.78056" lon="-4.22296">
        <ele>1153.0</ele>
        <time>2019-03-03T09:47:55Z</time>
      </trkpt>
      <trkpt lat="40.78048" lon="-4.22297">
        <ele>1155.0</ele>
        <time>2019-03-03T09:47:58Z</time>
      </trkpt>
      <trkpt lat="40.78039" lon="-4.22299">
        <ele>1156.0</ele>
        <time>2019-03-03T09:48:01Z</time>
      </trkpt>
      <trkpt lat="40.78032" lon="-4.223">
        <ele>1158.0</ele>
        <time>2019-03-03T09:48:04Z</time>
      </trkpt>
      <trkpt lat="40.78023" lon="-4.22301">
        <ele>1155.0</ele>
        <time>2019-03-03T09:48:07Z</time>
      </trkpt>
      <trkpt lat="40.78014" lon="-4.22302">
        <ele>1159.0</ele>
        <time>2019-03-03T09:48:10Z</time>
      </trkpt>
      <trkpt lat="40.78006" lon="-4.22303">
        <ele>1158.0</ele>
        <time>2019-03-03T09:48:13Z</time>
      </trkpt>
      <trkpt lat="40.77998" lon="-4.22303">
        <ele>1159.0</ele>
        <time>2019-03-03T09:48:17Z</time>
      </trkpt>
      <trkpt lat="40.77989" lon="-4.22303">
        <ele>1163.0</ele>
        <time>2019-03-03T09:48:22Z</time>
      </trkpt>
      <trkpt lat="40.77981" lon="-4.22304">
        <ele>1163.0</ele>
        <time>2019-03-03T09:48:27Z</time>
      </trkpt>
      <trkpt lat="40.77973" lon="-4.22306">
        <ele>1167.0</ele>
        <time>2019-03-03T09:48:32Z</time>
      </trkpt>
      <trkpt lat="40.77966" lon="-4.22306">
        <ele>1170.0</ele>
        <time>2019-03-03T09:48:38Z</time>
      </trkpt>
      <trkpt lat="40.77958" lon="-4.22304">
        <ele>1174.0</ele>
        <time>2019-03-03T09:48:43Z</time>
      </trkpt>
      <trkpt lat="40.77949" lon="-4.22305">
        <ele>1176.0</ele>
        <time>2019-03-03T09:48:48Z</time>
      </trkpt>
      <trkpt lat="40.77941" lon="-4.22305">
        <ele>1179.0</ele>
        <time>2019-03-03T09:48:53Z</time>
      </trkpt>
      <trkpt lat="40.77933" lon="-4.22305">
        <ele>1179.0</ele>
        <time>2019-03-03T09:48:57Z</time>
      </trkpt>
      <trkpt lat="40.77924" lon="-4.22305">
        <ele>1178.0</ele>
        <time>2019-03-03T09:49:02Z</time>
      </trkpt>
      <trkpt lat="40.77917" lon="-4.22306">
        <ele>1176.0</ele>
        <time>2019-03-03T09:49:06Z</time>
      </trkpt>
      <trkpt lat="40.77909" lon="-4.22307">
        <ele>1179.0</ele>
        <time>2019-03-03T09:49:10Z</time>
      </trkpt>
      <trkpt lat="40.779" lon="-4.22307">
        <ele>1181.0</ele>
        <time>2019-03-03T09:49:15Z</time>
      </trkpt>
      <trkpt lat="40.77892" lon="-4.22308">
        <ele>1183.0</ele>
        <time>2019-03-03T09:49:20Z</time>
      </trkpt>
      <trkpt lat="40.77885" lon="-4.22307">
        <ele>1185.0</ele>
        <time>2019-03-03T09:49:25Z</time>
      </trkpt>
      <trkpt lat="40.77876" lon="-4.22307">
        <ele>1185.0</ele>
        <time>2019-03-03T09:49:30Z</time>
      </trkpt>
      <trkpt lat="40.77867" lon="-4.22306">
        <ele>1185.0</ele>
        <time>2019-03-03T09:49:34Z</time>
      </trkpt>
      <trkpt lat="40.77859" lon="-4.22305">
        <ele>1187.0</ele>
        <time>2019-03-03T09:49:38Z</time>
      </trkpt>
      <trkpt lat="40.77852" lon="-4.22305">
        <ele>1189.0</ele>
        <time>2019-03-03T09:49:42Z</time>
      </trkpt>
      <trkpt lat="40.77844" lon="-4.22305">
        <ele>1189.0</ele>
        <time>2019-03-03T09:49:46Z</time>
      </trkpt>
      <trkpt lat="40.77836" lon="-4.22306">
        <ele>1189.0</ele>
        <time>2019-03-03T09:49:50Z</time>
      </trkpt>
      <trkpt lat="40.77827" lon="-4.22306">
        <ele>1187.0</ele>
        <time>2019-03-03T09:49:54Z</time>
      </trkpt>
      <trkpt lat="40.77819" lon="-4.22306">
        <ele>1190.0</ele>
        <time>2019-03-03T09:49:57Z</time>
      </trkpt>
      <trkpt lat="40.77811" lon="-4.22307">
        <ele>1187.0</ele>
        <time>2019-03-03T09:50:00Z</time>
      </trkpt>
      <trkpt lat="40.77803" lon="-4.22308">
        <ele>1188.0</ele>
        <time>2019-03-03T09:50:03Z</time>
      </trkpt>
      <trkpt lat="40.77794" lon="-4.22308">
        <ele>1187.0</ele>
        <time>2019-03-03T09:50:06Z</time>
      </trkpt>
      <trkpt lat="40.77786" lon="-4.22308">
        <ele>1192.0</ele>
        <time>2019-03-03T09:50:10Z</time>
      </trkpt>
      <trkpt lat="40.77778" lon="-4.22312">
        <ele>1192.0</ele>
        <time>2019-03-03T09:50:15Z</time>
      </trkpt>
      <trkpt lat="40.77779" lon="-4.22322">
        <ele>1194.0</ele>
        <time>2019-03-03T09:50:19Z</time>
      </trkpt>
      <trkpt lat="40.77779" lon="-4.22334">
        <ele>1197.0</ele>
        <time>2019-03-03T09:50:23Z</time>
      </trkpt>
      <trkpt lat="40.77779" lon="-4.22346">
        <ele>1195.0</ele>
        <time>2019-03-03T09:50:26Z</time>
      </trkpt>
      <trkpt lat="40.7778" lon="-4.2236">
        <ele>1194.0</ele>
        <time>2019-03-03T09:50:29Z</time>
      </trkpt>
      <trkpt lat="40.7778" lon="-4.22371">
        <ele>1194.0</ele>
        <time>2019-03-03T09:50:31Z</time>
      </trkpt>
      <trkpt lat="40.77779" lon="-4.22384">
        <ele>1194.0</ele>
        <time>2019-03-03T09:50:33Z</time>
      </trkpt>
      <trkpt lat="40.77781" lon="-4.22396">
        <ele>1194.0</ele>
        <time>2019-03-03T09:50:35Z</time>
      </trkpt>
      <trkpt lat="40.77782" lon="-4.2241">
        <ele>1192.0</ele>
        <time>2019-03-03T09:50:37Z</time>
      </trkpt>
      <trkpt lat="40.77782" lon="-4.22422">
        <ele>1192.0</ele>
        <time>2019-03-03T09:50:39Z</time>
      </trkpt>
      <trkpt lat="40.77784" lon="-4.22436">
        <ele>1190.0</ele>
        <time>2019-03-03T09:50:41Z</time>
      </trkpt>
      <trkpt lat="40.77787" lon="-4.22451">
        <ele>1189.0</ele>
        <time>2019-03-03T09:50:43Z</time>
      </trkpt>
      <trkpt lat="40.77791" lon="-4.22468">
        <ele>1188.0</ele>
        <time>2019-03-03T09:50:45Z</time>
      </trkpt>
      <trkpt lat="40.77795" lon="-4.22483">
        <ele>1186.0</ele>
        <time>2019-03-03T09:50:47Z</time>
      </trkpt>
      <trkpt lat="40.77799" lon="-4.22502">
        <ele>1185.0</ele>
        <time>2019-03-03T09:50:49Z</time>
      </trkpt>
      <trkpt lat="40.77801" lon="-4.22512">
        <ele>1185.0</ele>
        <time>2019-03-03T09:50:50Z</time>
      </trkpt>
      <trkpt lat="40.77803" lon="-4.22522">
        <ele>1185.0</ele>
        <time>2019-03-03T09:50:51Z</time>
      </trkpt>
      <trkpt lat="40.77807" lon="-4.22532">
        <ele>1184.0</ele>
        <time>2019-03-03T09:50:52Z</time>
      </trkpt>
      <trkpt lat="40.77811" lon="-4.22542">
        <ele>1183.0</ele>
        <time>2019-03-03T09:50:53Z</time>
      </trkpt>
      <trkpt lat="40.77815" lon="-4.22554">
        <ele>1181.0</ele>
        <time>2019-03-03T09:50:54Z</time>
      </trkpt>
      <trkpt lat="40.77819" lon="-4.22564">
        <ele>1180.0</ele>
        <time>2019-03-03T09:50:55Z</time>
      </trkpt>
      <trkpt lat="40.77824" lon="-4.22575">
        <ele>1180.0</ele>
        <time>2019-03-03T09:50:56Z</time>
      </trkpt>
      <trkpt lat="40.77828" lon="-4.22586">
        <ele>1178.0</ele>
        <time>2019-03-03T09:50:57Z</time>
      </trkpt>
      <trkpt lat="40.77833" lon="-4.22599">
        <ele>1178.0</ele>
        <time>2019-03-03T09:50:58Z</time>
      </trkpt>
      <trkpt lat="40.77839" lon="-4.22611">
        <ele>1177.0</ele>
        <time>2019-03-03T09:50:59Z</time>
      </trkpt>
      <trkpt lat="40.77844" lon="-4.22624">
        <ele>1175.0</ele>
        <time>2019-03-03T09:51:00Z</time>
      </trkpt>
      <trkpt lat="40.7785" lon="-4.22636">
        <ele>1175.0</ele>
        <time>2019-03-03T09:51:01Z</time>
      </trkpt>
      <trkpt lat="40.77855" lon="-4.22648">
        <ele>1174.0</ele>
        <time>2019-03-03T09:51:02Z</time>
      </trkpt>
      <trkpt lat="40.77861" lon="-4.22661">
        <ele>1173.0</ele>
        <time>2019-03-03T09:51:03Z</time>
      </trkpt>
      <trkpt lat="40.77867" lon="-4.22673">
        <ele>1172.0</ele>
        <time>2019-03-03T09:51:04Z</time>
      </trkpt>
      <trkpt lat="40.77873" lon="-4.22686">
        <ele>1171.0</ele>
        <time>2019-03-03T09:51:05Z</time>
      </trkpt>
      <trkpt lat="40.77879" lon="-4.22699">
        <ele>1171.0</ele>
        <time>2019-03-03T09:51:06Z</time>
      </trkpt>
      <trkpt lat="40.77885" lon="-4.22713">
        <ele>1169.0</ele>
        <time>2019-03-03T09:51:07Z</time>
      </trkpt>
      <trkpt lat="40.77892" lon="-4.22725">
        <ele>1169.0</ele>
        <time>2019-03-03T09:51:08Z</time>
      </trkpt>
      <trkpt lat="40.77899" lon="-4.22737">
        <ele>1169.0</ele>
        <time>2019-03-03T09:51:09Z</time>
      </trkpt>
      <trkpt lat="40.77903" lon="-4.22751">
        <ele>1166.0</ele>
        <time>2019-03-03T09:51:10Z</time>
      </trkpt>
      <trkpt lat="40.7791" lon="-4.22763">
        <ele>1165.0</ele>
        <time>2019-03-03T09:51:11Z</time>
      </trkpt>
      <trkpt lat="40.77917" lon="-4.22776">
        <ele>1165.0</ele>
        <time>2019-03-03T09:51:12Z</time>
      </trkpt>
      <trkpt lat="40.77924" lon="-4.22789">
        <ele>1163.0</ele>
        <time>2019-03-03T09:51:13Z</time>
      </trkpt>
      <trkpt lat="40.77929" lon="-4.22801">
        <ele>1162.0</ele>
        <time>2019-03-03T09:51:14Z</time>
      </trkpt>
      <trkpt lat="40.77934" lon="-4.22813">
        <ele>1161.0</ele>
        <time>2019-03-03T09:51:15Z</time>
      </trkpt>
      <trkpt lat="40.77939" lon="-4.22825">
        <ele>1160.0</ele>
        <time>2019-03-03T09:51:16Z</time>
      </trkpt>
      <trkpt lat="40.77944" lon="-4.22836">
        <ele>1158.0</ele>
        <time>2019-03-03T09:51:17Z</time>
      </trkpt>
      <trkpt lat="40.77947" lon="-4.22848">
        <ele>1157.0</ele>
        <time>2019-03-03T09:51:18Z</time>
      </trkpt>
      <trkpt lat="40.7795" lon="-4.2286">
        <ele>1157.0</ele>
        <time>2019-03-03T09:51:19Z</time>
      </trkpt>
      <trkpt lat="40.77953" lon="-4.22872">
        <ele>1155.0</ele>
        <time>2019-03-03T09:51:20Z</time>
      </trkpt>
      <trkpt lat="40.77957" lon="-4.22884">
        <ele>1156.0</ele>
        <time>2019-03-03T09:51:21Z</time>
      </trkpt>
      <trkpt lat="40.77959" lon="-4.22897">
        <ele>1154.0</ele>
        <time>2019-03-03T09:51:22Z</time>
      </trkpt>
      <trkpt lat="40.77962" lon="-4.2291">
        <ele>1153.0</ele>
        <time>2019-03-03T09:51:23Z</time>
      </trkpt>
      <trkpt lat="40.77964" lon="-4.22923">
        <ele>1151.0</ele>
        <time>2019-03-03T09:51:24Z</time>
      </trkpt>
      <trkpt lat="40.77966" lon="-4.22936">
        <ele>1150.0</ele>
        <time>2019-03-03T09:51:25Z</time>
      </trkpt>
      <trkpt lat="40.77968" lon="-4.22949">
        <ele>1149.0</ele>
        <time>2019-03-03T09:51:26Z</time>
      </trkpt>
      <trkpt lat="40.7797" lon="-4.22962">
        <ele>1148.0</ele>
        <time>2019-03-03T09:51:27Z</time>
      </trkpt>
      <trkpt lat="40.77971" lon="-4.22976">
        <ele>1148.0</ele>
        <time>2019-03-03T09:51:28Z</time>
      </trkpt>
      <trkpt lat="40.77972" lon="-4.22989">
        <ele>1148.0</ele>
        <time>2019-03-03T09:51:29Z</time>
      </trkpt>
      <trkpt lat="40.77972" lon="-4.23003">
        <ele>1148.0</ele>
        <time>2019-03-03T09:51:30Z</time>
      </trkpt>
      <trkpt lat="40.77972" lon="-4.23017">
        <ele>1148.0</ele>
        <time>2019-03-03T09:51:31Z</time>
      </trkpt>
      <trkpt lat="40.77971" lon="-4.23032">
        <ele>1147.0</ele>
        <time>2019-03-03T09:51:32Z</time>
      </trkpt>
      <trkpt lat="40.7797" lon="-4.23047">
        <ele>1146.0</ele>
        <time>2019-03-03T09:51:33Z</time>
      </trkpt>
      <trkpt lat="40.77969" lon="-4.23062">
        <ele>1146.0</ele>
        <time>2019-03-03T09:51:34Z</time>
      </trkpt>
      <trkpt lat="40.77968" lon="-4.23078">
        <ele>1145.0</ele>
        <time>2019-03-03T09:51:35Z</time>
      </trkpt>
      <trkpt lat="40.77967" lon="-4.23093">
        <ele>1144.0</ele>
        <time>2019-03-03T09:51:36Z</time>
      </trkpt>
      <trkpt lat="40.77965" lon="-4.23108">
        <ele>1143.0</ele>
        <time>2019-03-03T09:51:37Z</time>
      </trkpt>
      <trkpt lat="40.77964" lon="-4.23124">
        <ele>1143.0</ele>
        <time>2019-03-03T09:51:38Z</time>
      </trkpt>
      <trkpt lat="40.77962" lon="-4.23139">
        <ele>1143.0</ele>
        <time>2019-03-03T09:51:39Z</time>
      </trkpt>
      <trkpt lat="40.7796" lon="-4.23153">
        <ele>1144.0</ele>
        <time>2019-03-03T09:51:40Z</time>
      </trkpt>
      <trkpt lat="40.77958" lon="-4.23168">
        <ele>1144.0</ele>
        <time>2019-03-03T09:51:41Z</time>
      </trkpt>
      <trkpt lat="40.77957" lon="-4.23182">
        <ele>1143.0</ele>
        <time>2019-03-03T09:51:42Z</time>
      </trkpt>
      <trkpt lat="40.77954" lon="-4.23195">
        <ele>1141.0</ele>
        <time>2019-03-03T09:51:43Z</time>
      </trkpt>
      <trkpt lat="40.77952" lon="-4.23207">
        <ele>1141.0</ele>
        <time>2019-03-03T09:51:44Z</time>
      </trkpt>
      <trkpt lat="40.77951" lon="-4.23219">
        <ele>1142.0</ele>
        <time>2019-03-03T09:51:45Z</time>
      </trkpt>
      <trkpt lat="40.77948" lon="-4.23231">
        <ele>1142.0</ele>
        <time>2019-03-03T09:51:46Z</time>
      </trkpt>
      <trkpt lat="40.77946" lon="-4.23243">
        <ele>1142.0</ele>
        <time>2019-03-03T09:51:47Z</time>
      </trkpt>
      <trkpt lat="40.77944" lon="-4.23253">
        <ele>1141.0</ele>
        <time>2019-03-03T09:51:48Z</time>
      </trkpt>
      <trkpt lat="40.77942" lon="-4.23264">
        <ele>1142.0</ele>
        <time>2019-03-03T09:51:49Z</time>
      </trkpt>
      <trkpt lat="40.77939" lon="-4.23275">
        <ele>1142.0</ele>
        <time>2019-03-03T09:51:50Z</time>
      </trkpt>
      <trkpt lat="40.77935" lon="-4.23284">
        <ele>1141.0</ele>
        <time>2019-03-03T09:51:51Z</time>
      </trkpt>
      <trkpt lat="40.7793" lon="-4.23301">
        <ele>1141.0</ele>
        <time>2019-03-03T09:51:53Z</time>
      </trkpt>
      <trkpt lat="40.77927" lon="-4.23319">
        <ele>1142.0</ele>
        <time>2019-03-03T09:51:55Z</time>
      </trkpt>
      <trkpt lat="40.77923" lon="-4.23336">
        <ele>1140.0</ele>
        <time>2019-03-03T09:51:57Z</time>
      </trkpt>
      <trkpt lat="40.77922" lon="-4.23345">
        <ele>1141.0</ele>
        <time>2019-03-03T09:51:58Z</time>
      </trkpt>
      <trkpt lat="40.77918" lon="-4.23362">
        <ele>1140.0</ele>
        <time>2019-03-03T09:52:00Z</time>
      </trkpt>
      <trkpt lat="40.77913" lon="-4.23379">
        <ele>1142.0</ele>
        <time>2019-03-03T09:52:02Z</time>
      </trkpt>
      <trkpt lat="40.77909" lon="-4.23395">
        <ele>1143.0</ele>
        <time>2019-03-03T09:52:04Z</time>
      </trkpt>
      <trkpt lat="40.77905" lon="-4.23411">
        <ele>1143.0</ele>
        <time>2019-03-03T09:52:06Z</time>
      </trkpt>
      <trkpt lat="40.77901" lon="-4.23427">
        <ele>1144.0</ele>
        <time>2019-03-03T09:52:08Z</time>
      </trkpt>
      <trkpt lat="40.77898" lon="-4.23442">
        <ele>1145.0</ele>
        <time>2019-03-03T09:52:10Z</time>
      </trkpt>
      <trkpt lat="40.77894" lon="-4.23459">
        <ele>1142.0</ele>
        <time>2019-03-03T09:52:12Z</time>
      </trkpt>
      <trkpt lat="40.77892" lon="-4.23475">
        <ele>1142.0</ele>
        <time>2019-03-03T09:52:14Z</time>
      </trkpt>
      <trkpt lat="40.77889" lon="-4.23492">
        <ele>1141.0</ele>
        <time>2019-03-03T09:52:16Z</time>
      </trkpt>
      <trkpt lat="40.77887" lon="-4.23509">
        <ele>1139.0</ele>
        <time>2019-03-03T09:52:18Z</time>
      </trkpt>
      <trkpt lat="40.77885" lon="-4.23519">
        <ele>1137.0</ele>
        <time>2019-03-03T09:52:19Z</time>
      </trkpt>
      <trkpt lat="40.77883" lon="-4.23528">
        <ele>1136.0</ele>
        <time>2019-03-03T09:52:20Z</time>
      </trkpt>
      <trkpt lat="40.7788" lon="-4.23547">
        <ele>1133.0</ele>
        <time>2019-03-03T09:52:22Z</time>
      </trkpt>
      <trkpt lat="40.77878" lon="-4.23565">
        <ele>1131.0</ele>
        <time>2019-03-03T09:52:24Z</time>
      </trkpt>
      <trkpt lat="40.77875" lon="-4.23583">
        <ele>1129.0</ele>
        <time>2019-03-03T09:52:26Z</time>
      </trkpt>
      <trkpt lat="40.77873" lon="-4.23593">
        <ele>1130.0</ele>
        <time>2019-03-03T09:52:27Z</time>
      </trkpt>
      <trkpt lat="40.77872" lon="-4.23603">
        <ele>1130.0</ele>
        <time>2019-03-03T09:52:28Z</time>
      </trkpt>
      <trkpt lat="40.77871" lon="-4.23613">
        <ele>1130.0</ele>
        <time>2019-03-03T09:52:29Z</time>
      </trkpt>
      <trkpt lat="40.77869" lon="-4.23622">
        <ele>1130.0</ele>
        <time>2019-03-03T09:52:30Z</time>
      </trkpt>
      <trkpt lat="40.77867" lon="-4.23642">
        <ele>1131.0</ele>
        <time>2019-03-03T09:52:32Z</time>
      </trkpt>
      <trkpt lat="40.77865" lon="-4.23652">
        <ele>1131.0</ele>
        <time>2019-03-03T09:52:33Z</time>
      </trkpt>
      <trkpt lat="40.77863" lon="-4.23662">
        <ele>1131.0</ele>
        <time>2019-03-03T09:52:34Z</time>
      </trkpt>
      <trkpt lat="40.77862" lon="-4.23672">
        <ele>1130.0</ele>
        <time>2019-03-03T09:52:35Z</time>
      </trkpt>
      <trkpt lat="40.77858" lon="-4.23691">
        <ele>1130.0</ele>
        <time>2019-03-03T09:52:37Z</time>
      </trkpt>
      <trkpt lat="40.77855" lon="-4.23708">
        <ele>1131.0</ele>
        <time>2019-03-03T09:52:39Z</time>
      </trkpt>
      <trkpt lat="40.77852" lon="-4.23717">
        <ele>1131.0</ele>
        <time>2019-03-03T09:52:40Z</time>
      </trkpt>
      <trkpt lat="40.77848" lon="-4.23726">
        <ele>1131.0</ele>
        <time>2019-03-03T09:52:41Z</time>
      </trkpt>
      <trkpt lat="40.77845" lon="-4.23735">
        <ele>1131.0</ele>
        <time>2019-03-03T09:52:42Z</time>
      </trkpt>
      <trkpt lat="40.77841" lon="-4.23743">
        <ele>1131.0</ele>
        <time>2019-03-03T09:52:43Z</time>
      </trkpt>
      <trkpt lat="40.77837" lon="-4.23752">
        <ele>1130.0</ele>
        <time>2019-03-03T09:52:44Z</time>
      </trkpt>
      <trkpt lat="40.77833" lon="-4.23761">
        <ele>1130.0</ele>
        <time>2019-03-03T09:52:45Z</time>
      </trkpt>
      <trkpt lat="40.7783" lon="-4.2377">
        <ele>1129.0</ele>
        <time>2019-03-03T09:52:46Z</time>
      </trkpt>
      <trkpt lat="40.77826" lon="-4.23778">
        <ele>1129.0</ele>
        <time>2019-03-03T09:52:47Z</time>
      </trkpt>
      <trkpt lat="40.77822" lon="-4.23787">
        <ele>1130.0</ele>
        <time>2019-03-03T09:52:48Z</time>
      </trkpt>
      <trkpt lat="40.77814" lon="-4.23802">
        <ele>1130.0</ele>
        <time>2019-03-03T09:52:50Z</time>
      </trkpt>
      <trkpt lat="40.77809" lon="-4.23811">
        <ele>1129.0</ele>
        <time>2019-03-03T09:52:51Z</time>
      </trkpt>
      <trkpt lat="40.77805" lon="-4.23819">
        <ele>1129.0</ele>
        <time>2019-03-03T09:52:52Z</time>
      </trkpt>
      <trkpt lat="40.77802" lon="-4.23827">
        <ele>1128.0</ele>
        <time>2019-03-03T09:52:53Z</time>
      </trkpt>
      <trkpt lat="40.77795" lon="-4.2384">
        <ele>1126.0</ele>
        <time>2019-03-03T09:52:55Z</time>
      </trkpt>
      <trkpt lat="40.77788" lon="-4.23851">
        <ele>1125.0</ele>
        <time>2019-03-03T09:52:57Z</time>
      </trkpt>
      <trkpt lat="40.7778" lon="-4.23864">
        <ele>1124.0</ele>
        <time>2019-03-03T09:52:59Z</time>
      </trkpt>
      <trkpt lat="40.77774" lon="-4.23874">
        <ele>1123.0</ele>
        <time>2019-03-03T09:53:01Z</time>
      </trkpt>
      <trkpt lat="40.77768" lon="-4.23885">
        <ele>1123.0</ele>
        <time>2019-03-03T09:53:03Z</time>
      </trkpt>
      <trkpt lat="40.77763" lon="-4.23897">
        <ele>1122.0</ele>
        <time>2019-03-03T09:53:05Z</time>
      </trkpt>
      <trkpt lat="40.77757" lon="-4.23906">
        <ele>1121.0</ele>
        <time>2019-03-03T09:53:07Z</time>
      </trkpt>
      <trkpt lat="40.77753" lon="-4.23915">
        <ele>1120.0</ele>
        <time>2019-03-03T09:53:09Z</time>
      </trkpt>
      <trkpt lat="40.77749" lon="-4.23924">
        <ele>1120.0</ele>
        <time>2019-03-03T09:53:11Z</time>
      </trkpt>
      <trkpt lat="40.77745" lon="-4.23935">
        <ele>1120.0</ele>
        <time>2019-03-03T09:53:13Z</time>
      </trkpt>
      <trkpt lat="40.7774" lon="-4.23946">
        <ele>1119.0</ele>
        <time>2019-03-03T09:53:16Z</time>
      </trkpt>
      <trkpt lat="40.77734" lon="-4.23957">
        <ele>1116.0</ele>
        <time>2019-03-03T09:53:17Z</time>
      </trkpt>
      <trkpt lat="40.77726" lon="-4.23967">
        <ele>1115.0</ele>
        <time>2019-03-03T09:53:19Z</time>
      </trkpt>
      <trkpt lat="40.77717" lon="-4.23977">
        <ele>1114.0</ele>
        <time>2019-03-03T09:53:21Z</time>
      </trkpt>
      <trkpt lat="40.77706" lon="-4.23983">
        <ele>1113.0</ele>
        <time>2019-03-03T09:53:23Z</time>
      </trkpt>
      <trkpt lat="40.77694" lon="-4.23983">
        <ele>1112.0</ele>
        <time>2019-03-03T09:53:25Z</time>
      </trkpt>
      <trkpt lat="40.77681" lon="-4.23978">
        <ele>1111.0</ele>
        <time>2019-03-03T09:53:27Z</time>
      </trkpt>
      <trkpt lat="40.77674" lon="-4.23974">
        <ele>1110.0</ele>
        <time>2019-03-03T09:53:28Z</time>
      </trkpt>
      <trkpt lat="40.77667" lon="-4.23969">
        <ele>1110.0</ele>
        <time>2019-03-03T09:53:29Z</time>
      </trkpt>
      <trkpt lat="40.77661" lon="-4.23964">
        <ele>1111.0</ele>
        <time>2019-03-03T09:53:30Z</time>
      </trkpt>
      <trkpt lat="40.7765" lon="-4.23954">
        <ele>1108.0</ele>
        <time>2019-03-03T09:53:32Z</time>
      </trkpt>
      <trkpt lat="40.77639" lon="-4.23946">
        <ele>1105.0</ele>
        <time>2019-03-03T09:53:34Z</time>
      </trkpt>
      <trkpt lat="40.77628" lon="-4.23936">
        <ele>1105.0</ele>
        <time>2019-03-03T09:53:36Z</time>
      </trkpt>
      <trkpt lat="40.77616" lon="-4.23927">
        <ele>1104.0</ele>
        <time>2019-03-03T09:53:38Z</time>
      </trkpt>
      <trkpt lat="40.77603" lon="-4.23921">
        <ele>1103.0</ele>
        <time>2019-03-03T09:53:40Z</time>
      </trkpt>
      <trkpt lat="40.77589" lon="-4.23917">
        <ele>1101.0</ele>
        <time>2019-03-03T09:53:42Z</time>
      </trkpt>
      <trkpt lat="40.77582" lon="-4.23917">
        <ele>1101.0</ele>
        <time>2019-03-03T09:53:43Z</time>
      </trkpt>
      <trkpt lat="40.77575" lon="-4.23918">
        <ele>1101.0</ele>
        <time>2019-03-03T09:53:44Z</time>
      </trkpt>
      <trkpt lat="40.77562" lon="-4.23922">
        <ele>1103.0</ele>
        <time>2019-03-03T09:53:46Z</time>
      </trkpt>
      <trkpt lat="40.7755" lon="-4.23929">
        <ele>1100.0</ele>
        <time>2019-03-03T09:53:48Z</time>
      </trkpt>
      <trkpt lat="40.77543" lon="-4.23935">
        <ele>1098.0</ele>
        <time>2019-03-03T09:53:49Z</time>
      </trkpt>
      <trkpt lat="40.77537" lon="-4.23941">
        <ele>1096.0</ele>
        <time>2019-03-03T09:53:50Z</time>
      </trkpt>
      <trkpt lat="40.7753" lon="-4.23947">
        <ele>1096.0</ele>
        <time>2019-03-03T09:53:51Z</time>
      </trkpt>
      <trkpt lat="40.77521" lon="-4.23959">
        <ele>1094.0</ele>
        <time>2019-03-03T09:53:53Z</time>
      </trkpt>
      <trkpt lat="40.77514" lon="-4.23965">
        <ele>1091.0</ele>
        <time>2019-03-03T09:53:54Z</time>
      </trkpt>
      <trkpt lat="40.77508" lon="-4.23973">
        <ele>1092.0</ele>
        <time>2019-03-03T09:53:55Z</time>
      </trkpt>
      <trkpt lat="40.77501" lon="-4.2398">
        <ele>1091.0</ele>
        <time>2019-03-03T09:53:56Z</time>
      </trkpt>
      <trkpt lat="40.77496" lon="-4.23987">
        <ele>1090.0</ele>
        <time>2019-03-03T09:53:57Z</time>
      </trkpt>
      <trkpt lat="40.77489" lon="-4.23993">
        <ele>1090.0</ele>
        <time>2019-03-03T09:53:58Z</time>
      </trkpt>
      <trkpt lat="40.77483" lon="-4.23998">
        <ele>1090.0</ele>
        <time>2019-03-03T09:53:59Z</time>
      </trkpt>
      <trkpt lat="40.77476" lon="-4.24003">
        <ele>1090.0</ele>
        <time>2019-03-03T09:54:00Z</time>
      </trkpt>
      <trkpt lat="40.77462" lon="-4.24011">
        <ele>1086.0</ele>
        <time>2019-03-03T09:54:02Z</time>
      </trkpt>
      <trkpt lat="40.77449" lon="-4.24016">
        <ele>1086.0</ele>
        <time>2019-03-03T09:54:04Z</time>
      </trkpt>
      <trkpt lat="40.77439" lon="-4.24019">
        <ele>1086.0</ele>
        <time>2019-03-03T09:54:06Z</time>
      </trkpt>
      <trkpt lat="40.77429" lon="-4.24027">
        <ele>1086.0</ele>
        <time>2019-03-03T09:54:08Z</time>
      </trkpt>
      <trkpt lat="40.7742" lon="-4.24031">
        <ele>1086.0</ele>
        <time>2019-03-03T09:54:10Z</time>
      </trkpt>
      <trkpt lat="40.77412" lon="-4.24031">
        <ele>1086.0</ele>
        <time>2019-03-03T09:54:12Z</time>
      </trkpt>
      <trkpt lat="40.77405" lon="-4.24028">
        <ele>1088.0</ele>
        <time>2019-03-03T09:54:15Z</time>
      </trkpt>
      <trkpt lat="40.77396" lon="-4.24024">
        <ele>1086.0</ele>
        <time>2019-03-03T09:54:19Z</time>
      </trkpt>
      <trkpt lat="40.7739" lon="-4.24023">
        <ele>1084.0</ele>
        <time>2019-03-03T09:54:26Z</time>
      </trkpt>
      <trkpt lat="40.7739" lon="-4.24018">
        <ele>1085.0</ele>
        <time>2019-03-03T09:54:50Z</time>
      </trkpt>
      <trkpt lat="40.77392" lon="-4.24007">
        <ele>1086.0</ele>
        <time>2019-03-03T09:54:54Z</time>
      </trkpt>
      <trkpt lat="40.77384" lon="-4.24005">
        <ele>1086.0</ele>
        <time>2019-03-03T09:54:59Z</time>
      </trkpt>
      <trkpt lat="40.77378" lon="-4.24013">
        <ele>1086.0</ele>
        <time>2019-03-03T09:55:02Z</time>
      </trkpt>
      <trkpt lat="40.77373" lon="-4.24024">
        <ele>1083.0</ele>
        <time>2019-03-03T09:55:05Z</time>
      </trkpt>
      <trkpt lat="40.77368" lon="-4.24035">
        <ele>1083.0</ele>
        <time>2019-03-03T09:55:08Z</time>
      </trkpt>
      <trkpt lat="40.77369" lon="-4.24046">
        <ele>1086.0</ele>
        <time>2019-03-03T09:55:11Z</time>
      </trkpt>
      <trkpt lat="40.7737" lon="-4.24056">
        <ele>1087.0</ele>
        <time>2019-03-03T09:55:14Z</time>
      </trkpt>
      <trkpt lat="40.7737" lon="-4.24066">
        <ele>1086.0</ele>
        <time>2019-03-03T09:55:21Z</time>
      </trkpt>
      <trkpt lat="40.77369" lon="-4.24076">
        <ele>1083.0</ele>
        <time>2019-03-03T09:55:32Z</time>
      </trkpt>
      <trkpt lat="40.77366" lon="-4.24086">
        <ele>1080.0</ele>
        <time>2019-03-03T09:55:35Z</time>
      </trkpt>
      <trkpt lat="40.77361" lon="-4.24096">
        <ele>1079.0</ele>
        <time>2019-03-03T09:55:38Z</time>
      </trkpt>
      <trkpt lat="40.77357" lon="-4.24106">
        <ele>1074.0</ele>
        <time>2019-03-03T09:55:41Z</time>
      </trkpt>
      <trkpt lat="40.77354" lon="-4.24117">
        <ele>1069.0</ele>
        <time>2019-03-03T09:55:44Z</time>
      </trkpt>
      <trkpt lat="40.77353" lon="-4.24131">
        <ele>1067.0</ele>
        <time>2019-03-03T09:55:47Z</time>
      </trkpt>
      <trkpt lat="40.77354" lon="-4.24143">
        <ele>1065.0</ele>
        <time>2019-03-03T09:55:50Z</time>
      </trkpt>
      <trkpt lat="40.77356" lon="-4.24153">
        <ele>1064.0</ele>
        <time>2019-03-03T09:55:52Z</time>
      </trkpt>
      <trkpt lat="40.77356" lon="-4.24167">
        <ele>1063.0</ele>
        <time>2019-03-03T09:55:55Z</time>
      </trkpt>
      <trkpt lat="40.77357" lon="-4.24177">
        <ele>1064.0</ele>
        <time>2019-03-03T09:55:57Z</time>
      </trkpt>
      <trkpt lat="40.77357" lon="-4.24188">
        <ele>1059.0</ele>
        <time>2019-03-03T09:55:59Z</time>
      </trkpt>
      <trkpt lat="40.77356" lon="-4.24198">
        <ele>1056.0</ele>
        <time>2019-03-03T09:56:01Z</time>
      </trkpt>
      <trkpt lat="40.77351" lon="-4.24207">
        <ele>1054.0</ele>
        <time>2019-03-03T09:56:03Z</time>
      </trkpt>
      <trkpt lat="40.77342" lon="-4.24213">
        <ele>1053.0</ele>
        <time>2019-03-03T09:56:05Z</time>
      </trkpt>
      <trkpt lat="40.77333" lon="-4.24219">
        <ele>1051.0</ele>
        <time>2019-03-03T09:56:07Z</time>
      </trkpt>
      <trkpt lat="40.77324" lon="-4.24225">
        <ele>1051.0</ele>
        <time>2019-03-03T09:56:09Z</time>
      </trkpt>
      <trkpt lat="40.77318" lon="-4.24233">
        <ele>1051.0</ele>
        <time>2019-03-03T09:56:11Z</time>
      </trkpt>
      <trkpt lat="40.77312" lon="-4.24241">
        <ele>1053.0</ele>
        <time>2019-03-03T09:56:15Z</time>
      </trkpt>
      <trkpt lat="40.77313" lon="-4.24244">
        <ele>1055.0</ele>
        <time>2019-03-03T09:56:40Z</time>
      </trkpt>
      <trkpt lat="40.77312" lon="-4.24254">
        <ele>1055.0</ele>
        <time>2019-03-03T09:56:47Z</time>
      </trkpt>
      <trkpt lat="40.77313" lon="-4.24259">
        <ele>1057.0</ele>
        <time>2019-03-03T09:56:54Z</time>
      </trkpt>
      <trkpt lat="40.77312" lon="-4.24259">
        <ele>1058.0</ele>
        <time>2019-03-03T09:57:14Z</time>
      </trkpt>
      <trkpt lat="40.7731" lon="-4.24259">
        <ele>1059.0</ele>
        <time>2019-03-03T09:57:20Z</time>
      </trkpt>
      <trkpt lat="40.77312" lon="-4.24261">
        <ele>1055.0</ele>
        <time>2019-03-03T09:57:39Z</time>
      </trkpt>
      <trkpt lat="40.77311" lon="-4.24262">
        <ele>1056.0</ele>
        <time>2019-03-03T09:57:46Z</time>
      </trkpt>
      <trkpt lat="40.77314" lon="-4.24272">
        <ele>1060.0</ele>
        <time>2019-03-03T09:57:57Z</time>
      </trkpt>
      <trkpt lat="40.77313" lon="-4.24278">
        <ele>1064.0</ele>
        <time>2019-03-03T09:58:04Z</time>
      </trkpt>
      <trkpt lat="40.77317" lon="-4.24283">
        <ele>1066.0</ele>
        <time>2019-03-03T09:58:11Z</time>
      </trkpt>
      <trkpt lat="40.7732" lon="-4.24288">
        <ele>1068.0</ele>
        <time>2019-03-03T09:58:18Z</time>
      </trkpt>
      <trkpt lat="40.77325" lon="-4.24292">
        <ele>1071.0</ele>
        <time>2019-03-03T09:58:25Z</time>
      </trkpt>
      <trkpt lat="40.77327" lon="-4.24296">
        <ele>1072.0</ele>
        <time>2019-03-03T09:58:32Z</time>
      </trkpt>
      <trkpt lat="40.7733" lon="-4.24299">
        <ele>1069.0</ele>
        <time>2019-03-03T09:58:39Z</time>
      </trkpt>
      <trkpt lat="40.77333" lon="-4.24305">
        <ele>1070.0</ele>
        <time>2019-03-03T09:58:50Z</time>
      </trkpt>
      <trkpt lat="40.77334" lon="-4.24308">
        <ele>1070.0</ele>
        <time>2019-03-03T09:58:57Z</time>
      </trkpt>
      <trkpt lat="40.77335" lon="-4.24312">
        <ele>1133.0</ele>
        <time>2019-03-03T09:59:07Z</time>
      </trkpt>
      <trkpt lat="40.77336" lon="-4.24317">
        <ele>1087.0</ele>
        <time>2019-03-03T09:59:14Z</time>
      </trkpt>
      <trkpt lat="40.77338" lon="-4.2432">
        <ele>1075.0</ele>
        <time>2019-03-03T09:59:21Z</time>
      </trkpt>
      <trkpt lat="40.7734" lon="-4.24322">
        <ele>1073.0</ele>
        <time>2019-03-03T09:59:28Z</time>
      </trkpt>
      <trkpt lat="40.77337" lon="-4.24321">
        <ele>1099.0</ele>
        <time>2019-03-03T09:59:50Z</time>
      </trkpt>
      <trkpt lat="40.7734" lon="-4.24327">
        <ele>1097.0</ele>
        <time>2019-03-03T10:00:04Z</time>
      </trkpt>
      <trkpt lat="40.77339" lon="-4.24326">
        <ele>1080.0</ele>
        <time>2019-03-03T10:00:21Z</time>
      </trkpt>
      <trkpt lat="40.7734" lon="-4.24334">
        <ele>1077.0</ele>
        <time>2019-03-03T10:00:28Z</time>
      </trkpt>
      <trkpt lat="40.77342" lon="-4.24344">
        <ele>1079.0</ele>
        <time>2019-03-03T10:00:35Z</time>
      </trkpt>
      <trkpt lat="40.77341" lon="-4.24353">
        <ele>1078.0</ele>
        <time>2019-03-03T10:00:42Z</time>
      </trkpt>
      <trkpt lat="40.77338" lon="-4.24357">
        <ele>1077.0</ele>
        <time>2019-03-03T10:00:49Z</time>
      </trkpt>
      <trkpt lat="40.77336" lon="-4.24362">
        <ele>1073.0</ele>
        <time>2019-03-03T10:01:04Z</time>
      </trkpt>
      <trkpt lat="40.77335" lon="-4.24366">
        <ele>1070.0</ele>
        <time>2019-03-03T10:01:11Z</time>
      </trkpt>
      <trkpt lat="40.77334" lon="-4.24374">
        <ele>1071.0</ele>
        <time>2019-03-03T10:01:40Z</time>
      </trkpt>
      <trkpt lat="40.77326" lon="-4.24378">
        <ele>1073.0</ele>
        <time>2019-03-03T10:01:46Z</time>
      </trkpt>
      <trkpt lat="40.7732" lon="-4.24384">
        <ele>1075.0</ele>
        <time>2019-03-03T10:01:52Z</time>
      </trkpt>
      <trkpt lat="40.77313" lon="-4.24391">
        <ele>1078.0</ele>
        <time>2019-03-03T10:01:58Z</time>
      </trkpt>
      <trkpt lat="40.77307" lon="-4.24399">
        <ele>1079.0</ele>
        <time>2019-03-03T10:02:04Z</time>
      </trkpt>
      <trkpt lat="40.77301" lon="-4.24405">
        <ele>1081.0</ele>
        <time>2019-03-03T10:02:10Z</time>
      </trkpt>
      <trkpt lat="40.77295" lon="-4.24412">
        <ele>1083.0</ele>
        <time>2019-03-03T10:02:16Z</time>
      </trkpt>
      <trkpt lat="40.77292" lon="-4.24422">
        <ele>1086.0</ele>
        <time>2019-03-03T10:02:22Z</time>
      </trkpt>
      <trkpt lat="40.77288" lon="-4.2443">
        <ele>1087.0</ele>
        <time>2019-03-03T10:02:28Z</time>
      </trkpt>
      <trkpt lat="40.77282" lon="-4.24438">
        <ele>1087.0</ele>
        <time>2019-03-03T10:02:34Z</time>
      </trkpt>
      <trkpt lat="40.77276" lon="-4.24443">
        <ele>1086.0</ele>
        <time>2019-03-03T10:02:40Z</time>
      </trkpt>
      <trkpt lat="40.77271" lon="-4.24447">
        <ele>1089.0</ele>
        <time>2019-03-03T10:02:47Z</time>
      </trkpt>
      <trkpt lat="40.77268" lon="-4.24451">
        <ele>1090.0</ele>
        <time>2019-03-03T10:02:54Z</time>
      </trkpt>
      <trkpt lat="40.77264" lon="-4.24455">
        <ele>1089.0</ele>
        <time>2019-03-03T10:03:01Z</time>
      </trkpt>
      <trkpt lat="40.77262" lon="-4.24462">
        <ele>1088.0</ele>
        <time>2019-03-03T10:03:08Z</time>
      </trkpt>
      <trkpt lat="40.77258" lon="-4.24472">
        <ele>1086.0</ele>
        <time>2019-03-03T10:03:15Z</time>
      </trkpt>
      <trkpt lat="40.77253" lon="-4.24479">
        <ele>1088.0</ele>
        <time>2019-03-03T10:03:22Z</time>
      </trkpt>
      <trkpt lat="40.77249" lon="-4.24484">
        <ele>1090.0</ele>
        <time>2019-03-03T10:03:29Z</time>
      </trkpt>
      <trkpt lat="40.7725" lon="-4.2449">
        <ele>1093.0</ele>
        <time>2019-03-03T10:03:46Z</time>
      </trkpt>
      <trkpt lat="40.7725" lon="-4.24497">
        <ele>1093.0</ele>
        <time>2019-03-03T10:03:53Z</time>
      </trkpt>
      <trkpt lat="40.77248" lon="-4.24503">
        <ele>1092.0</ele>
        <time>2019-03-03T10:04:00Z</time>
      </trkpt>
      <trkpt lat="40.77247" lon="-4.24511">
        <ele>1095.0</ele>
        <time>2019-03-03T10:04:07Z</time>
      </trkpt>
      <trkpt lat="40.77247" lon="-4.24513">
        <ele>1096.0</ele>
        <time>2019-03-03T10:04:14Z</time>
      </trkpt>
      <trkpt lat="40.77249" lon="-4.24523">
        <ele>1098.0</ele>
        <time>2019-03-03T10:04:07Z</time>
      </trkpt>
      <trkpt lat="40.77247" lon="-4.24534">
        <ele>1099.0</ele>
        <time>2019-03-03T10:05:18Z</time>
      </trkpt>
      <trkpt lat="40.77248" lon="-4.24543">
        <ele>1102.0</ele>
        <time>2019-03-03T10:05:25Z</time>
      </trkpt>
      <trkpt lat="40.77249" lon="-4.2455">
        <ele>1106.0</ele>
        <time>2019-03-03T10:05:32Z</time>
      </trkpt>
      <trkpt lat="40.7725" lon="-4.24557">
        <ele>1106.0</ele>
        <time>2019-03-03T10:05:39Z</time>
      </trkpt>
      <trkpt lat="40.77251" lon="-4.24567">
        <ele>1107.0</ele>
        <time>2019-03-03T10:05:46Z</time>
      </trkpt>
      <trkpt lat="40.77246" lon="-4.24571">
        <ele>1108.0</ele>
        <time>2019-03-03T10:05:53Z</time>
      </trkpt>
      <trkpt lat="40.77238" lon="-4.24575">
        <ele>1104.0</ele>
        <time>2019-03-03T10:06:00Z</time>
      </trkpt>
      <trkpt lat="40.77233" lon="-4.24579">
        <ele>1106.0</ele>
        <time>2019-03-03T10:06:07Z</time>
      </trkpt>
      <trkpt lat="40.77228" lon="-4.24587">
        <ele>1106.0</ele>
        <time>2019-03-03T10:06:14Z</time>
      </trkpt>
      <trkpt lat="40.77225" lon="-4.24594">
        <ele>1108.0</ele>
        <time>2019-03-03T10:06:21Z</time>
      </trkpt>
      <trkpt lat="40.7722" lon="-4.24602">
        <ele>1109.0</ele>
        <time>2019-03-03T10:06:28Z</time>
      </trkpt>
      <trkpt lat="40.77215" lon="-4.24609">
        <ele>1111.0</ele>
        <time>2019-03-03T10:06:35Z</time>
      </trkpt>
      <trkpt lat="40.77216" lon="-4.24618">
        <ele>1109.0</ele>
        <time>2019-03-03T10:06:42Z</time>
      </trkpt>
      <trkpt lat="40.77214" lon="-4.24628">
        <ele>1107.0</ele>
        <time>2019-03-03T10:06:49Z</time>
      </trkpt>
      <trkpt lat="40.77214" lon="-4.24634">
        <ele>1108.0</ele>
        <time>2019-03-03T10:06:56Z</time>
      </trkpt>
      <trkpt lat="40.77213" lon="-4.24641">
        <ele>1107.0</ele>
        <time>2019-03-03T10:07:14Z</time>
      </trkpt>
      <trkpt lat="40.77214" lon="-4.2465">
        <ele>1108.0</ele>
        <time>2019-03-03T10:07:21Z</time>
      </trkpt>
      <trkpt lat="40.77216" lon="-4.2466">
        <ele>1106.0</ele>
        <time>2019-03-03T10:07:27Z</time>
      </trkpt>
      <trkpt lat="40.77212" lon="-4.24671">
        <ele>1106.0</ele>
        <time>2019-03-03T10:07:33Z</time>
      </trkpt>
      <trkpt lat="40.77209" lon="-4.24679">
        <ele>1106.0</ele>
        <time>2019-03-03T10:07:38Z</time>
      </trkpt>
      <trkpt lat="40.77207" lon="-4.24689">
        <ele>1106.0</ele>
        <time>2019-03-03T10:07:43Z</time>
      </trkpt>
      <trkpt lat="40.77201" lon="-4.24696">
        <ele>1107.0</ele>
        <time>2019-03-03T10:07:48Z</time>
      </trkpt>
      <trkpt lat="40.77194" lon="-4.24701">
        <ele>1107.0</ele>
        <time>2019-03-03T10:07:53Z</time>
      </trkpt>
      <trkpt lat="40.77186" lon="-4.24706">
        <ele>1107.0</ele>
        <time>2019-03-03T10:07:58Z</time>
      </trkpt>
      <trkpt lat="40.7718" lon="-4.24712">
        <ele>1105.0</ele>
        <time>2019-03-03T10:08:03Z</time>
      </trkpt>
      <trkpt lat="40.77174" lon="-4.24721">
        <ele>1106.0</ele>
        <time>2019-03-03T10:08:08Z</time>
      </trkpt>
      <trkpt lat="40.7717" lon="-4.24731">
        <ele>1110.0</ele>
        <time>2019-03-03T10:08:14Z</time>
      </trkpt>
      <trkpt lat="40.77163" lon="-4.24733">
        <ele>1112.0</ele>
        <time>2019-03-03T10:08:19Z</time>
      </trkpt>
      <trkpt lat="40.7716" lon="-4.24743">
        <ele>1113.0</ele>
        <time>2019-03-03T10:08:24Z</time>
      </trkpt>
      <trkpt lat="40.77157" lon="-4.24752">
        <ele>1116.0</ele>
        <time>2019-03-03T10:08:30Z</time>
      </trkpt>
      <trkpt lat="40.77157" lon="-4.24764">
        <ele>1118.0</ele>
        <time>2019-03-03T10:08:36Z</time>
      </trkpt>
      <trkpt lat="40.7716" lon="-4.24773">
        <ele>1117.0</ele>
        <time>2019-03-03T10:08:40Z</time>
      </trkpt>
      <trkpt lat="40.77164" lon="-4.24783">
        <ele>1118.0</ele>
        <time>2019-03-03T10:08:44Z</time>
      </trkpt>
      <trkpt lat="40.7717" lon="-4.24793">
        <ele>1120.0</ele>
        <time>2019-03-03T10:08:48Z</time>
      </trkpt>
      <trkpt lat="40.77173" lon="-4.24804">
        <ele>1120.0</ele>
        <time>2019-03-03T10:08:52Z</time>
      </trkpt>
      <trkpt lat="40.77176" lon="-4.24814">
        <ele>1119.0</ele>
        <time>2019-03-03T10:08:55Z</time>
      </trkpt>
      <trkpt lat="40.77179" lon="-4.24824">
        <ele>1121.0</ele>
        <time>2019-03-03T10:08:58Z</time>
      </trkpt>
      <trkpt lat="40.77182" lon="-4.24833">
        <ele>1120.0</ele>
        <time>2019-03-03T10:09:01Z</time>
      </trkpt>
      <trkpt lat="40.77186" lon="-4.24844">
        <ele>1117.0</ele>
        <time>2019-03-03T10:09:05Z</time>
      </trkpt>
      <trkpt lat="40.77189" lon="-4.24855">
        <ele>1117.0</ele>
        <time>2019-03-03T10:09:09Z</time>
      </trkpt>
      <trkpt lat="40.77193" lon="-4.24864">
        <ele>1118.0</ele>
        <time>2019-03-03T10:09:13Z</time>
      </trkpt>
      <trkpt lat="40.77194" lon="-4.24874">
        <ele>1119.0</ele>
        <time>2019-03-03T10:09:17Z</time>
      </trkpt>
      <trkpt lat="40.77196" lon="-4.24884">
        <ele>1121.0</ele>
        <time>2019-03-03T10:09:21Z</time>
      </trkpt>
      <trkpt lat="40.77197" lon="-4.24896">
        <ele>1121.0</ele>
        <time>2019-03-03T10:09:25Z</time>
      </trkpt>
      <trkpt lat="40.77198" lon="-4.24907">
        <ele>1121.0</ele>
        <time>2019-03-03T10:09:29Z</time>
      </trkpt>
      <trkpt lat="40.77202" lon="-4.24916">
        <ele>1125.0</ele>
        <time>2019-03-03T10:09:33Z</time>
      </trkpt>
      <trkpt lat="40.77208" lon="-4.24926">
        <ele>1126.0</ele>
        <time>2019-03-03T10:09:37Z</time>
      </trkpt>
      <trkpt lat="40.77213" lon="-4.24931">
        <ele>1123.0</ele>
        <time>2019-03-03T10:09:40Z</time>
      </trkpt>
      <trkpt lat="40.77217" lon="-4.2494">
        <ele>1124.0</ele>
        <time>2019-03-03T10:09:43Z</time>
      </trkpt>
      <trkpt lat="40.77221" lon="-4.2495">
        <ele>1124.0</ele>
        <time>2019-03-03T10:09:47Z</time>
      </trkpt>
      <trkpt lat="40.77225" lon="-4.2496">
        <ele>1124.0</ele>
        <time>2019-03-03T10:09:50Z</time>
      </trkpt>
      <trkpt lat="40.77229" lon="-4.24969">
        <ele>1123.0</ele>
        <time>2019-03-03T10:09:53Z</time>
      </trkpt>
      <trkpt lat="40.77234" lon="-4.2498">
        <ele>1122.0</ele>
        <time>2019-03-03T10:09:57Z</time>
      </trkpt>
      <trkpt lat="40.77236" lon="-4.24992">
        <ele>1123.0</ele>
        <time>2019-03-03T10:10:01Z</time>
      </trkpt>
      <trkpt lat="40.77234" lon="-4.25004">
        <ele>1125.0</ele>
        <time>2019-03-03T10:10:05Z</time>
      </trkpt>
      <trkpt lat="40.77232" lon="-4.25014">
        <ele>1124.0</ele>
        <time>2019-03-03T10:10:10Z</time>
      </trkpt>
      <trkpt lat="40.77234" lon="-4.25023">
        <ele>1124.0</ele>
        <time>2019-03-03T10:10:14Z</time>
      </trkpt>
      <trkpt lat="40.77236" lon="-4.25033">
        <ele>1124.0</ele>
        <time>2019-03-03T10:10:18Z</time>
      </trkpt>
      <trkpt lat="40.77236" lon="-4.25042">
        <ele>1127.0</ele>
        <time>2019-03-03T10:10:22Z</time>
      </trkpt>
      <trkpt lat="40.77234" lon="-4.25054">
        <ele>1127.0</ele>
        <time>2019-03-03T10:10:27Z</time>
      </trkpt>
      <trkpt lat="40.77235" lon="-4.25063">
        <ele>1127.0</ele>
        <time>2019-03-03T10:10:31Z</time>
      </trkpt>
      <trkpt lat="40.77235" lon="-4.25072">
        <ele>1127.0</ele>
        <time>2019-03-03T10:10:38Z</time>
      </trkpt>
      <trkpt lat="40.77232" lon="-4.25074">
        <ele>1128.0</ele>
        <time>2019-03-03T10:10:45Z</time>
      </trkpt>
      <trkpt lat="40.77233" lon="-4.25075">
        <ele>1128.0</ele>
        <time>2019-03-03T10:14:30Z</time>
      </trkpt>
      <trkpt lat="40.77234" lon="-4.25075">
        <ele>1128.0</ele>
        <time>2019-03-03T10:17:47Z</time>
      </trkpt>
      <trkpt lat="40.77233" lon="-4.25077">
        <ele>1128.0</ele>
        <time>2019-03-03T10:17:54Z</time>
      </trkpt>
      <trkpt lat="40.77233" lon="-4.25071">
        <ele>1129.0</ele>
        <time>2019-03-03T10:20:00Z</time>
      </trkpt>
      <trkpt lat="40.77236" lon="-4.25061">
        <ele>1130.0</ele>
        <time>2019-03-03T10:20:05Z</time>
      </trkpt>
      <trkpt lat="40.77238" lon="-4.25051">
        <ele>1128.0</ele>
        <time>2019-03-03T10:20:10Z</time>
      </trkpt>
      <trkpt lat="40.77237" lon="-4.25041">
        <ele>1130.0</ele>
        <time>2019-03-03T10:20:17Z</time>
      </trkpt>
      <trkpt lat="40.77234" lon="-4.2504">
        <ele>1130.0</ele>
        <time>2019-03-03T10:20:24Z</time>
      </trkpt>
      <trkpt lat="40.77235" lon="-4.25048">
        <ele>1127.0</ele>
        <time>2019-03-03T10:20:35Z</time>
      </trkpt>
      <trkpt lat="40.77233" lon="-4.25053">
        <ele>1128.0</ele>
        <time>2019-03-03T10:20:42Z</time>
      </trkpt>
      <trkpt lat="40.77234" lon="-4.25063">
        <ele>1124.0</ele>
        <time>2019-03-03T10:21:00Z</time>
      </trkpt>
      <trkpt lat="40.77232" lon="-4.2507">
        <ele>1126.0</ele>
        <time>2019-03-03T10:21:07Z</time>
      </trkpt>
      <trkpt lat="40.77233" lon="-4.25075">
        <ele>1127.0</ele>
        <time>2019-03-03T10:21:14Z</time>
      </trkpt>
      <trkpt lat="40.77234" lon="-4.25073">
        <ele>1127.0</ele>
        <time>2019-03-03T10:24:18Z</time>
      </trkpt>
      <trkpt lat="40.77242" lon="-4.25081">
        <ele>1126.0</ele>
        <time>2019-03-03T10:24:27Z</time>
      </trkpt>
      <trkpt lat="40.7725" lon="-4.25081">
        <ele>1125.0</ele>
        <time>2019-03-03T10:24:30Z</time>
      </trkpt>
      <trkpt lat="40.77259" lon="-4.25078">
        <ele>1125.0</ele>
        <time>2019-03-03T10:24:33Z</time>
      </trkpt>
      <trkpt lat="40.77268" lon="-4.25078">
        <ele>1124.0</ele>
        <time>2019-03-03T10:24:35Z</time>
      </trkpt>
      <trkpt lat="40.77273" lon="-4.25086">
        <ele>1123.0</ele>
        <time>2019-03-03T10:24:37Z</time>
      </trkpt>
      <trkpt lat="40.77274" lon="-4.25096">
        <ele>1123.0</ele>
        <time>2019-03-03T10:24:39Z</time>
      </trkpt>
      <trkpt lat="40.77275" lon="-4.25106">
        <ele>1124.0</ele>
        <time>2019-03-03T10:24:41Z</time>
      </trkpt>
      <trkpt lat="40.77276" lon="-4.25117">
        <ele>1123.0</ele>
        <time>2019-03-03T10:24:43Z</time>
      </trkpt>
      <trkpt lat="40.77276" lon="-4.25128">
        <ele>1124.0</ele>
        <time>2019-03-03T10:24:45Z</time>
      </trkpt>
      <trkpt lat="40.77284" lon="-4.25135">
        <ele>1123.0</ele>
        <time>2019-03-03T10:24:49Z</time>
      </trkpt>
      <trkpt lat="40.77288" lon="-4.25146">
        <ele>1121.0</ele>
        <time>2019-03-03T10:24:52Z</time>
      </trkpt>
      <trkpt lat="40.77293" lon="-4.2516">
        <ele>1120.0</ele>
        <time>2019-03-03T10:24:55Z</time>
      </trkpt>
      <trkpt lat="40.77296" lon="-4.25171">
        <ele>1120.0</ele>
        <time>2019-03-03T10:24:57Z</time>
      </trkpt>
      <trkpt lat="40.77301" lon="-4.25185">
        <ele>1118.0</ele>
        <time>2019-03-03T10:24:59Z</time>
      </trkpt>
      <trkpt lat="40.77305" lon="-4.25198">
        <ele>1117.0</ele>
        <time>2019-03-03T10:25:01Z</time>
      </trkpt>
      <trkpt lat="40.7731" lon="-4.25211">
        <ele>1117.0</ele>
        <time>2019-03-03T10:25:03Z</time>
      </trkpt>
      <trkpt lat="40.77315" lon="-4.25224">
        <ele>1117.0</ele>
        <time>2019-03-03T10:25:05Z</time>
      </trkpt>
      <trkpt lat="40.77319" lon="-4.25236">
        <ele>1117.0</ele>
        <time>2019-03-03T10:25:07Z</time>
      </trkpt>
      <trkpt lat="40.77326" lon="-4.25248">
        <ele>1116.0</ele>
        <time>2019-03-03T10:25:09Z</time>
      </trkpt>
      <trkpt lat="40.77332" lon="-4.25258">
        <ele>1115.0</ele>
        <time>2019-03-03T10:25:11Z</time>
      </trkpt>
      <trkpt lat="40.77337" lon="-4.25266">
        <ele>1114.0</ele>
        <time>2019-03-03T10:25:13Z</time>
      </trkpt>
      <trkpt lat="40.77344" lon="-4.25276">
        <ele>1115.0</ele>
        <time>2019-03-03T10:25:16Z</time>
      </trkpt>
      <trkpt lat="40.77351" lon="-4.25286">
        <ele>1115.0</ele>
        <time>2019-03-03T10:25:19Z</time>
      </trkpt>
      <trkpt lat="40.77357" lon="-4.25294">
        <ele>1114.0</ele>
        <time>2019-03-03T10:25:22Z</time>
      </trkpt>
      <trkpt lat="40.77363" lon="-4.25304">
        <ele>1114.0</ele>
        <time>2019-03-03T10:25:25Z</time>
      </trkpt>
      <trkpt lat="40.77369" lon="-4.25314">
        <ele>1111.0</ele>
        <time>2019-03-03T10:25:28Z</time>
      </trkpt>
      <trkpt lat="40.77377" lon="-4.25322">
        <ele>1110.0</ele>
        <time>2019-03-03T10:25:31Z</time>
      </trkpt>
      <trkpt lat="40.77384" lon="-4.25329">
        <ele>1111.0</ele>
        <time>2019-03-03T10:25:34Z</time>
      </trkpt>
      <trkpt lat="40.77392" lon="-4.25335">
        <ele>1112.0</ele>
        <time>2019-03-03T10:25:37Z</time>
      </trkpt>
      <trkpt lat="40.77398" lon="-4.2534">
        <ele>1113.0</ele>
        <time>2019-03-03T10:25:40Z</time>
      </trkpt>
      <trkpt lat="40.77405" lon="-4.25348">
        <ele>1116.0</ele>
        <time>2019-03-03T10:25:43Z</time>
      </trkpt>
      <trkpt lat="40.77412" lon="-4.25356">
        <ele>1117.0</ele>
        <time>2019-03-03T10:25:46Z</time>
      </trkpt>
      <trkpt lat="40.77419" lon="-4.25366">
        <ele>1115.0</ele>
        <time>2019-03-03T10:25:49Z</time>
      </trkpt>
      <trkpt lat="40.77428" lon="-4.25373">
        <ele>1117.0</ele>
        <time>2019-03-03T10:25:52Z</time>
      </trkpt>
      <trkpt lat="40.77435" lon="-4.25377">
        <ele>1116.0</ele>
        <time>2019-03-03T10:25:54Z</time>
      </trkpt>
      <trkpt lat="40.77445" lon="-4.2538">
        <ele>1117.0</ele>
        <time>2019-03-03T10:25:57Z</time>
      </trkpt>
      <trkpt lat="40.77452" lon="-4.25387">
        <ele>1118.0</ele>
        <time>2019-03-03T10:26:00Z</time>
      </trkpt>
      <trkpt lat="40.7746" lon="-4.25393">
        <ele>1118.0</ele>
        <time>2019-03-03T10:26:03Z</time>
      </trkpt>
      <trkpt lat="40.77466" lon="-4.25402">
        <ele>1114.0</ele>
        <time>2019-03-03T10:26:06Z</time>
      </trkpt>
      <trkpt lat="40.77472" lon="-4.25412">
        <ele>1114.0</ele>
        <time>2019-03-03T10:26:09Z</time>
      </trkpt>
      <trkpt lat="40.77479" lon="-4.25422">
        <ele>1115.0</ele>
        <time>2019-03-03T10:26:12Z</time>
      </trkpt>
      <trkpt lat="40.77486" lon="-4.25431">
        <ele>1116.0</ele>
        <time>2019-03-03T10:26:15Z</time>
      </trkpt>
      <trkpt lat="40.77494" lon="-4.25438">
        <ele>1116.0</ele>
        <time>2019-03-03T10:26:18Z</time>
      </trkpt>
      <trkpt lat="40.77503" lon="-4.25445">
        <ele>1116.0</ele>
        <time>2019-03-03T10:26:21Z</time>
      </trkpt>
      <trkpt lat="40.7751" lon="-4.2545">
        <ele>1117.0</ele>
        <time>2019-03-03T10:26:24Z</time>
      </trkpt>
      <trkpt lat="40.7752" lon="-4.25455">
        <ele>1116.0</ele>
        <time>2019-03-03T10:26:27Z</time>
      </trkpt>
      <trkpt lat="40.77529" lon="-4.25458">
        <ele>1116.0</ele>
        <time>2019-03-03T10:26:30Z</time>
      </trkpt>
      <trkpt lat="40.77537" lon="-4.25465">
        <ele>1116.0</ele>
        <time>2019-03-03T10:26:33Z</time>
      </trkpt>
      <trkpt lat="40.77542" lon="-4.25473">
        <ele>1115.0</ele>
        <time>2019-03-03T10:26:36Z</time>
      </trkpt>
      <trkpt lat="40.77545" lon="-4.25484">
        <ele>1114.0</ele>
        <time>2019-03-03T10:26:39Z</time>
      </trkpt>
      <trkpt lat="40.77548" lon="-4.25495">
        <ele>1115.0</ele>
        <time>2019-03-03T10:26:42Z</time>
      </trkpt>
      <trkpt lat="40.77554" lon="-4.25503">
        <ele>1115.0</ele>
        <time>2019-03-03T10:26:45Z</time>
      </trkpt>
      <trkpt lat="40.77561" lon="-4.25511">
        <ele>1116.0</ele>
        <time>2019-03-03T10:26:48Z</time>
      </trkpt>
      <trkpt lat="40.77568" lon="-4.25512">
        <ele>1116.0</ele>
        <time>2019-03-03T10:26:50Z</time>
      </trkpt>
      <trkpt lat="40.77577" lon="-4.25513">
        <ele>1117.0</ele>
        <time>2019-03-03T10:26:52Z</time>
      </trkpt>
      <trkpt lat="40.77588" lon="-4.25513">
        <ele>1117.0</ele>
        <time>2019-03-03T10:26:54Z</time>
      </trkpt>
      <trkpt lat="40.77599" lon="-4.25514">
        <ele>1115.0</ele>
        <time>2019-03-03T10:26:56Z</time>
      </trkpt>
      <trkpt lat="40.77606" lon="-4.25519">
        <ele>1115.0</ele>
        <time>2019-03-03T10:26:58Z</time>
      </trkpt>
      <trkpt lat="40.77608" lon="-4.25533">
        <ele>1115.0</ele>
        <time>2019-03-03T10:27:00Z</time>
      </trkpt>
      <trkpt lat="40.77611" lon="-4.25544">
        <ele>1114.0</ele>
        <time>2019-03-03T10:27:02Z</time>
      </trkpt>
      <trkpt lat="40.77615" lon="-4.25552">
        <ele>1112.0</ele>
        <time>2019-03-03T10:27:04Z</time>
      </trkpt>
      <trkpt lat="40.7762" lon="-4.25563">
        <ele>1112.0</ele>
        <time>2019-03-03T10:27:06Z</time>
      </trkpt>
      <trkpt lat="40.77624" lon="-4.25574">
        <ele>1110.0</ele>
        <time>2019-03-03T10:27:08Z</time>
      </trkpt>
      <trkpt lat="40.77628" lon="-4.25586">
        <ele>1109.0</ele>
        <time>2019-03-03T10:27:10Z</time>
      </trkpt>
      <trkpt lat="40.77633" lon="-4.25597">
        <ele>1110.0</ele>
        <time>2019-03-03T10:27:12Z</time>
      </trkpt>
      <trkpt lat="40.77641" lon="-4.25605">
        <ele>1109.0</ele>
        <time>2019-03-03T10:27:14Z</time>
      </trkpt>
      <trkpt lat="40.77648" lon="-4.25614">
        <ele>1109.0</ele>
        <time>2019-03-03T10:27:16Z</time>
      </trkpt>
      <trkpt lat="40.77657" lon="-4.25623">
        <ele>1109.0</ele>
        <time>2019-03-03T10:27:18Z</time>
      </trkpt>
      <trkpt lat="40.77667" lon="-4.25634">
        <ele>1108.0</ele>
        <time>2019-03-03T10:27:20Z</time>
      </trkpt>
      <trkpt lat="40.77676" lon="-4.2564">
        <ele>1108.0</ele>
        <time>2019-03-03T10:27:22Z</time>
      </trkpt>
      <trkpt lat="40.77682" lon="-4.25651">
        <ele>1107.0</ele>
        <time>2019-03-03T10:27:24Z</time>
      </trkpt>
      <trkpt lat="40.77688" lon="-4.2566">
        <ele>1107.0</ele>
        <time>2019-03-03T10:27:26Z</time>
      </trkpt>
      <trkpt lat="40.77693" lon="-4.25668">
        <ele>1107.0</ele>
        <time>2019-03-03T10:27:28Z</time>
      </trkpt>
      <trkpt lat="40.77701" lon="-4.2567">
        <ele>1107.0</ele>
        <time>2019-03-03T10:27:30Z</time>
      </trkpt>
      <trkpt lat="40.77704" lon="-4.25669">
        <ele>1109.0</ele>
        <time>2019-03-03T10:27:37Z</time>
      </trkpt>
      <trkpt lat="40.77704" lon="-4.25667">
        <ele>1109.0</ele>
        <time>2019-03-03T10:28:03Z</time>
      </trkpt>
      <trkpt lat="40.77709" lon="-4.2567">
        <ele>1104.0</ele>
        <time>2019-03-03T10:28:16Z</time>
      </trkpt>
      <trkpt lat="40.77717" lon="-4.2567">
        <ele>1105.0</ele>
        <time>2019-03-03T10:28:57Z</time>
      </trkpt>
      <trkpt lat="40.77725" lon="-4.25676">
        <ele>1105.0</ele>
        <time>2019-03-03T10:29:01Z</time>
      </trkpt>
      <trkpt lat="40.77732" lon="-4.2568">
        <ele>1105.0</ele>
        <time>2019-03-03T10:29:04Z</time>
      </trkpt>
      <trkpt lat="40.7774" lon="-4.25685">
        <ele>1100.0</ele>
        <time>2019-03-03T10:29:07Z</time>
      </trkpt>
      <trkpt lat="40.7775" lon="-4.25688">
        <ele>1102.0</ele>
        <time>2019-03-03T10:29:10Z</time>
      </trkpt>
      <trkpt lat="40.7776" lon="-4.25686">
        <ele>1101.0</ele>
        <time>2019-03-03T10:29:13Z</time>
      </trkpt>
      <trkpt lat="40.77768" lon="-4.25684">
        <ele>1104.0</ele>
        <time>2019-03-03T10:29:16Z</time>
      </trkpt>
      <trkpt lat="40.77777" lon="-4.2568">
        <ele>1107.0</ele>
        <time>2019-03-03T10:29:19Z</time>
      </trkpt>
      <trkpt lat="40.77786" lon="-4.25681">
        <ele>1108.0</ele>
        <time>2019-03-03T10:29:22Z</time>
      </trkpt>
      <trkpt lat="40.77794" lon="-4.25682">
        <ele>1109.0</ele>
        <time>2019-03-03T10:29:25Z</time>
      </trkpt>
      <trkpt lat="40.77801" lon="-4.25685">
        <ele>1109.0</ele>
        <time>2019-03-03T10:29:28Z</time>
      </trkpt>
      <trkpt lat="40.77807" lon="-4.2569">
        <ele>1109.0</ele>
        <time>2019-03-03T10:29:31Z</time>
      </trkpt>
      <trkpt lat="40.77815" lon="-4.25697">
        <ele>1110.0</ele>
        <time>2019-03-03T10:29:35Z</time>
      </trkpt>
      <trkpt lat="40.7782" lon="-4.25706">
        <ele>1110.0</ele>
        <time>2019-03-03T10:29:38Z</time>
      </trkpt>
      <trkpt lat="40.77825" lon="-4.25714">
        <ele>1111.0</ele>
        <time>2019-03-03T10:29:41Z</time>
      </trkpt>
      <trkpt lat="40.7783" lon="-4.25721">
        <ele>1113.0</ele>
        <time>2019-03-03T10:29:44Z</time>
      </trkpt>
      <trkpt lat="40.77837" lon="-4.25728">
        <ele>1113.0</ele>
        <time>2019-03-03T10:29:47Z</time>
      </trkpt>
      <trkpt lat="40.77843" lon="-4.25735">
        <ele>1114.0</ele>
        <time>2019-03-03T10:29:50Z</time>
      </trkpt>
      <trkpt lat="40.77848" lon="-4.25744">
        <ele>1114.0</ele>
        <time>2019-03-03T10:29:53Z</time>
      </trkpt>
      <trkpt lat="40.77855" lon="-4.25752">
        <ele>1115.0</ele>
        <time>2019-03-03T10:29:56Z</time>
      </trkpt>
      <trkpt lat="40.77862" lon="-4.25759">
        <ele>1114.0</ele>
        <time>2019-03-03T10:29:59Z</time>
      </trkpt>
      <trkpt lat="40.77869" lon="-4.25767">
        <ele>1115.0</ele>
        <time>2019-03-03T10:30:03Z</time>
      </trkpt>
      <trkpt lat="40.77875" lon="-4.25774">
        <ele>1117.0</ele>
        <time>2019-03-03T10:30:07Z</time>
      </trkpt>
      <trkpt lat="40.77881" lon="-4.25782">
        <ele>1119.0</ele>
        <time>2019-03-03T10:30:11Z</time>
      </trkpt>
      <trkpt lat="40.77885" lon="-4.2579">
        <ele>1120.0</ele>
        <time>2019-03-03T10:30:14Z</time>
      </trkpt>
      <trkpt lat="40.7789" lon="-4.25801">
        <ele>1121.0</ele>
        <time>2019-03-03T10:30:18Z</time>
      </trkpt>
      <trkpt lat="40.77895" lon="-4.25808">
        <ele>1120.0</ele>
        <time>2019-03-03T10:30:21Z</time>
      </trkpt>
      <trkpt lat="40.77901" lon="-4.25815">
        <ele>1120.0</ele>
        <time>2019-03-03T10:30:25Z</time>
      </trkpt>
      <trkpt lat="40.77908" lon="-4.25821">
        <ele>1119.0</ele>
        <time>2019-03-03T10:30:29Z</time>
      </trkpt>
      <trkpt lat="40.77916" lon="-4.25824">
        <ele>1120.0</ele>
        <time>2019-03-03T10:30:33Z</time>
      </trkpt>
      <trkpt lat="40.77924" lon="-4.25825">
        <ele>1119.0</ele>
        <time>2019-03-03T10:30:37Z</time>
      </trkpt>
      <trkpt lat="40.77931" lon="-4.25828">
        <ele>1121.0</ele>
        <time>2019-03-03T10:30:41Z</time>
      </trkpt>
      <trkpt lat="40.77938" lon="-4.25832">
        <ele>1122.0</ele>
        <time>2019-03-03T10:30:44Z</time>
      </trkpt>
      <trkpt lat="40.77947" lon="-4.25834">
        <ele>1121.0</ele>
        <time>2019-03-03T10:30:48Z</time>
      </trkpt>
      <trkpt lat="40.77955" lon="-4.25836">
        <ele>1123.0</ele>
        <time>2019-03-03T10:30:52Z</time>
      </trkpt>
      <trkpt lat="40.77962" lon="-4.2584">
        <ele>1124.0</ele>
        <time>2019-03-03T10:30:56Z</time>
      </trkpt>
      <trkpt lat="40.77969" lon="-4.25844">
        <ele>1122.0</ele>
        <time>2019-03-03T10:30:59Z</time>
      </trkpt>
      <trkpt lat="40.77976" lon="-4.2585">
        <ele>1120.0</ele>
        <time>2019-03-03T10:31:03Z</time>
      </trkpt>
      <trkpt lat="40.77981" lon="-4.25859">
        <ele>1124.0</ele>
        <time>2019-03-03T10:31:07Z</time>
      </trkpt>
      <trkpt lat="40.77986" lon="-4.25868">
        <ele>1126.0</ele>
        <time>2019-03-03T10:31:11Z</time>
      </trkpt>
      <trkpt lat="40.77991" lon="-4.25876">
        <ele>1127.0</ele>
        <time>2019-03-03T10:31:15Z</time>
      </trkpt>
      <trkpt lat="40.77999" lon="-4.25881">
        <ele>1127.0</ele>
        <time>2019-03-03T10:31:19Z</time>
      </trkpt>
      <trkpt lat="40.78007" lon="-4.25884">
        <ele>1129.0</ele>
        <time>2019-03-03T10:31:22Z</time>
      </trkpt>
      <trkpt lat="40.78018" lon="-4.25887">
        <ele>1127.0</ele>
        <time>2019-03-03T10:31:25Z</time>
      </trkpt>
      <trkpt lat="40.78025" lon="-4.25892">
        <ele>1128.0</ele>
        <time>2019-03-03T10:31:27Z</time>
      </trkpt>
      <trkpt lat="40.78032" lon="-4.259">
        <ele>1127.0</ele>
        <time>2019-03-03T10:31:29Z</time>
      </trkpt>
      <trkpt lat="40.78038" lon="-4.2591">
        <ele>1125.0</ele>
        <time>2019-03-03T10:31:31Z</time>
      </trkpt>
      <trkpt lat="40.78044" lon="-4.25922">
        <ele>1124.0</ele>
        <time>2019-03-03T10:31:33Z</time>
      </trkpt>
      <trkpt lat="40.7805" lon="-4.25935">
        <ele>1123.0</ele>
        <time>2019-03-03T10:31:35Z</time>
      </trkpt>
      <trkpt lat="40.78058" lon="-4.25947">
        <ele>1123.0</ele>
        <time>2019-03-03T10:31:37Z</time>
      </trkpt>
      <trkpt lat="40.78064" lon="-4.25959">
        <ele>1122.0</ele>
        <time>2019-03-03T10:31:39Z</time>
      </trkpt>
      <trkpt lat="40.78072" lon="-4.2597">
        <ele>1123.0</ele>
        <time>2019-03-03T10:31:41Z</time>
      </trkpt>
      <trkpt lat="40.78079" lon="-4.25982">
        <ele>1123.0</ele>
        <time>2019-03-03T10:31:43Z</time>
      </trkpt>
      <trkpt lat="40.78086" lon="-4.25994">
        <ele>1123.0</ele>
        <time>2019-03-03T10:31:45Z</time>
      </trkpt>
      <trkpt lat="40.78093" lon="-4.26007">
        <ele>1124.0</ele>
        <time>2019-03-03T10:31:47Z</time>
      </trkpt>
      <trkpt lat="40.781" lon="-4.26017">
        <ele>1126.0</ele>
        <time>2019-03-03T10:31:49Z</time>
      </trkpt>
      <trkpt lat="40.78106" lon="-4.26028">
        <ele>1126.0</ele>
        <time>2019-03-03T10:31:51Z</time>
      </trkpt>
      <trkpt lat="40.78112" lon="-4.26038">
        <ele>1128.0</ele>
        <time>2019-03-03T10:31:53Z</time>
      </trkpt>
      <trkpt lat="40.78118" lon="-4.26048">
        <ele>1129.0</ele>
        <time>2019-03-03T10:31:55Z</time>
      </trkpt>
      <trkpt lat="40.78123" lon="-4.2606">
        <ele>1125.0</ele>
        <time>2019-03-03T10:31:58Z</time>
      </trkpt>
      <trkpt lat="40.78129" lon="-4.26069">
        <ele>1126.0</ele>
        <time>2019-03-03T10:32:00Z</time>
      </trkpt>
      <trkpt lat="40.78135" lon="-4.2608">
        <ele>1126.0</ele>
        <time>2019-03-03T10:32:02Z</time>
      </trkpt>
      <trkpt lat="40.78139" lon="-4.26088">
        <ele>1125.0</ele>
        <time>2019-03-03T10:32:04Z</time>
      </trkpt>
      <trkpt lat="40.78143" lon="-4.26097">
        <ele>1124.0</ele>
        <time>2019-03-03T10:32:06Z</time>
      </trkpt>
      <trkpt lat="40.78149" lon="-4.26106">
        <ele>1123.0</ele>
        <time>2019-03-03T10:32:08Z</time>
      </trkpt>
      <trkpt lat="40.78155" lon="-4.26114">
        <ele>1123.0</ele>
        <time>2019-03-03T10:32:10Z</time>
      </trkpt>
      <trkpt lat="40.78161" lon="-4.26122">
        <ele>1125.0</ele>
        <time>2019-03-03T10:32:12Z</time>
      </trkpt>
      <trkpt lat="40.78166" lon="-4.2613">
        <ele>1125.0</ele>
        <time>2019-03-03T10:32:14Z</time>
      </trkpt>
      <trkpt lat="40.7817" lon="-4.26139">
        <ele>1127.0</ele>
        <time>2019-03-03T10:32:16Z</time>
      </trkpt>
      <trkpt lat="40.78174" lon="-4.26147">
        <ele>1127.0</ele>
        <time>2019-03-03T10:32:18Z</time>
      </trkpt>
      <trkpt lat="40.78179" lon="-4.26156">
        <ele>1127.0</ele>
        <time>2019-03-03T10:32:21Z</time>
      </trkpt>
      <trkpt lat="40.78184" lon="-4.26163">
        <ele>1126.0</ele>
        <time>2019-03-03T10:32:24Z</time>
      </trkpt>
      <trkpt lat="40.7819" lon="-4.26171">
        <ele>1128.0</ele>
        <time>2019-03-03T10:32:27Z</time>
      </trkpt>
      <trkpt lat="40.78196" lon="-4.2618">
        <ele>1130.0</ele>
        <time>2019-03-03T10:32:30Z</time>
      </trkpt>
      <trkpt lat="40.782" lon="-4.26191">
        <ele>1127.0</ele>
        <time>2019-03-03T10:32:33Z</time>
      </trkpt>
      <trkpt lat="40.78203" lon="-4.26203">
        <ele>1126.0</ele>
        <time>2019-03-03T10:32:36Z</time>
      </trkpt>
      <trkpt lat="40.78207" lon="-4.26216">
        <ele>1126.0</ele>
        <time>2019-03-03T10:32:39Z</time>
      </trkpt>
      <trkpt lat="40.7821" lon="-4.26228">
        <ele>1127.0</ele>
        <time>2019-03-03T10:32:42Z</time>
      </trkpt>
      <trkpt lat="40.78214" lon="-4.2624">
        <ele>1128.0</ele>
        <time>2019-03-03T10:32:45Z</time>
      </trkpt>
      <trkpt lat="40.78219" lon="-4.26251">
        <ele>1127.0</ele>
        <time>2019-03-03T10:32:48Z</time>
      </trkpt>
      <trkpt lat="40.78225" lon="-4.26262">
        <ele>1128.0</ele>
        <time>2019-03-03T10:32:51Z</time>
      </trkpt>
      <trkpt lat="40.78228" lon="-4.2627">
        <ele>1128.0</ele>
        <time>2019-03-03T10:32:53Z</time>
      </trkpt>
      <trkpt lat="40.78232" lon="-4.26278">
        <ele>1128.0</ele>
        <time>2019-03-03T10:32:55Z</time>
      </trkpt>
      <trkpt lat="40.78239" lon="-4.2629">
        <ele>1128.0</ele>
        <time>2019-03-03T10:32:58Z</time>
      </trkpt>
      <trkpt lat="40.78244" lon="-4.26301">
        <ele>1128.0</ele>
        <time>2019-03-03T10:33:01Z</time>
      </trkpt>
      <trkpt lat="40.78249" lon="-4.26313">
        <ele>1129.0</ele>
        <time>2019-03-03T10:33:04Z</time>
      </trkpt>
      <trkpt lat="40.78254" lon="-4.26325">
        <ele>1129.0</ele>
        <time>2019-03-03T10:33:07Z</time>
      </trkpt>
      <trkpt lat="40.78259" lon="-4.26334">
        <ele>1129.0</ele>
        <time>2019-03-03T10:33:10Z</time>
      </trkpt>
      <trkpt lat="40.78264" lon="-4.26345">
        <ele>1130.0</ele>
        <time>2019-03-03T10:33:13Z</time>
      </trkpt>
      <trkpt lat="40.78269" lon="-4.26356">
        <ele>1130.0</ele>
        <time>2019-03-03T10:33:16Z</time>
      </trkpt>
      <trkpt lat="40.78273" lon="-4.26368">
        <ele>1132.0</ele>
        <time>2019-03-03T10:33:19Z</time>
      </trkpt>
      <trkpt lat="40.78274" lon="-4.26379">
        <ele>1130.0</ele>
        <time>2019-03-03T10:33:22Z</time>
      </trkpt>
      <trkpt lat="40.78276" lon="-4.26391">
        <ele>1130.0</ele>
        <time>2019-03-03T10:33:25Z</time>
      </trkpt>
      <trkpt lat="40.78277" lon="-4.26405">
        <ele>1129.0</ele>
        <time>2019-03-03T10:33:28Z</time>
      </trkpt>
      <trkpt lat="40.78277" lon="-4.26415">
        <ele>1129.0</ele>
        <time>2019-03-03T10:33:30Z</time>
      </trkpt>
      <trkpt lat="40.78277" lon="-4.26426">
        <ele>1129.0</ele>
        <time>2019-03-03T10:33:32Z</time>
      </trkpt>
      <trkpt lat="40.78278" lon="-4.26438">
        <ele>1130.0</ele>
        <time>2019-03-03T10:33:34Z</time>
      </trkpt>
      <trkpt lat="40.78278" lon="-4.26451">
        <ele>1130.0</ele>
        <time>2019-03-03T10:33:36Z</time>
      </trkpt>
      <trkpt lat="40.78278" lon="-4.26466">
        <ele>1130.0</ele>
        <time>2019-03-03T10:33:38Z</time>
      </trkpt>
      <trkpt lat="40.78283" lon="-4.26481">
        <ele>1129.0</ele>
        <time>2019-03-03T10:33:41Z</time>
      </trkpt>
      <trkpt lat="40.78285" lon="-4.2649">
        <ele>1129.0</ele>
        <time>2019-03-03T10:33:41Z</time>
      </trkpt>
      <trkpt lat="40.78289" lon="-4.26507">
        <ele>1129.0</ele>
        <time>2019-03-03T10:33:43Z</time>
      </trkpt>
      <trkpt lat="40.78294" lon="-4.26515">
        <ele>1130.0</ele>
        <time>2019-03-03T10:33:44Z</time>
      </trkpt>
      <trkpt lat="40.78302" lon="-4.26529">
        <ele>1129.0</ele>
        <time>2019-03-03T10:33:46Z</time>
      </trkpt>
      <trkpt lat="40.78307" lon="-4.26545">
        <ele>1128.0</ele>
        <time>2019-03-03T10:33:48Z</time>
      </trkpt>
      <trkpt lat="40.7831" lon="-4.26563">
        <ele>1126.0</ele>
        <time>2019-03-03T10:33:50Z</time>
      </trkpt>
      <trkpt lat="40.78311" lon="-4.26572">
        <ele>1125.0</ele>
        <time>2019-03-03T10:33:51Z</time>
      </trkpt>
      <trkpt lat="40.78313" lon="-4.26583">
        <ele>1124.0</ele>
        <time>2019-03-03T10:33:52Z</time>
      </trkpt>
      <trkpt lat="40.78314" lon="-4.26594">
        <ele>1124.0</ele>
        <time>2019-03-03T10:33:53Z</time>
      </trkpt>
      <trkpt lat="40.78316" lon="-4.26605">
        <ele>1123.0</ele>
        <time>2019-03-03T10:33:54Z</time>
      </trkpt>
      <trkpt lat="40.78317" lon="-4.26615">
        <ele>1123.0</ele>
        <time>2019-03-03T10:33:55Z</time>
      </trkpt>
      <trkpt lat="40.78318" lon="-4.26626">
        <ele>1123.0</ele>
        <time>2019-03-03T10:33:56Z</time>
      </trkpt>
      <trkpt lat="40.7832" lon="-4.26636">
        <ele>1124.0</ele>
        <time>2019-03-03T10:33:57Z</time>
      </trkpt>
      <trkpt lat="40.78321" lon="-4.26646">
        <ele>1124.0</ele>
        <time>2019-03-03T10:33:58Z</time>
      </trkpt>
      <trkpt lat="40.78323" lon="-4.26665">
        <ele>1121.0</ele>
        <time>2019-03-03T10:34:00Z</time>
      </trkpt>
      <trkpt lat="40.78328" lon="-4.26681">
        <ele>1119.0</ele>
        <time>2019-03-03T10:34:02Z</time>
      </trkpt>
      <trkpt lat="40.78338" lon="-4.26689">
        <ele>1120.0</ele>
        <time>2019-03-03T10:34:04Z</time>
      </trkpt>
      <trkpt lat="40.78348" lon="-4.26692">
        <ele>1120.0</ele>
        <time>2019-03-03T10:34:06Z</time>
      </trkpt>
      <trkpt lat="40.78357" lon="-4.26694">
        <ele>1121.0</ele>
        <time>2019-03-03T10:34:08Z</time>
      </trkpt>
      <trkpt lat="40.78365" lon="-4.26695">
        <ele>1123.0</ele>
        <time>2019-03-03T10:34:10Z</time>
      </trkpt>
      <trkpt lat="40.78373" lon="-4.26695">
        <ele>1123.0</ele>
        <time>2019-03-03T10:34:12Z</time>
      </trkpt>
      <trkpt lat="40.7838" lon="-4.26697">
        <ele>1123.0</ele>
        <time>2019-03-03T10:34:14Z</time>
      </trkpt>
      <trkpt lat="40.78391" lon="-4.26697">
        <ele>1123.0</ele>
        <time>2019-03-03T10:34:17Z</time>
      </trkpt>
      <trkpt lat="40.78398" lon="-4.26697">
        <ele>1123.0</ele>
        <time>2019-03-03T10:34:19Z</time>
      </trkpt>
      <trkpt lat="40.78407" lon="-4.26697">
        <ele>1124.0</ele>
        <time>2019-03-03T10:34:22Z</time>
      </trkpt>
      <trkpt lat="40.78416" lon="-4.26698">
        <ele>1123.0</ele>
        <time>2019-03-03T10:34:25Z</time>
      </trkpt>
      <trkpt lat="40.78425" lon="-4.26699">
        <ele>1122.0</ele>
        <time>2019-03-03T10:34:28Z</time>
      </trkpt>
      <trkpt lat="40.78435" lon="-4.26698">
        <ele>1124.0</ele>
        <time>2019-03-03T10:34:31Z</time>
      </trkpt>
      <trkpt lat="40.78444" lon="-4.26699">
        <ele>1126.0</ele>
        <time>2019-03-03T10:34:35Z</time>
      </trkpt>
      <trkpt lat="40.78451" lon="-4.26701">
        <ele>1125.0</ele>
        <time>2019-03-03T10:34:38Z</time>
      </trkpt>
      <trkpt lat="40.78459" lon="-4.26704">
        <ele>1127.0</ele>
        <time>2019-03-03T10:34:41Z</time>
      </trkpt>
      <trkpt lat="40.78469" lon="-4.26708">
        <ele>1125.0</ele>
        <time>2019-03-03T10:34:44Z</time>
      </trkpt>
      <trkpt lat="40.78477" lon="-4.26712">
        <ele>1124.0</ele>
        <time>2019-03-03T10:34:46Z</time>
      </trkpt>
      <trkpt lat="40.78488" lon="-4.26713">
        <ele>1123.0</ele>
        <time>2019-03-03T10:34:48Z</time>
      </trkpt>
      <trkpt lat="40.78498" lon="-4.26714">
        <ele>1124.0</ele>
        <time>2019-03-03T10:34:50Z</time>
      </trkpt>
      <trkpt lat="40.78508" lon="-4.26718">
        <ele>1123.0</ele>
        <time>2019-03-03T10:34:52Z</time>
      </trkpt>
      <trkpt lat="40.7852" lon="-4.26723">
        <ele>1122.0</ele>
        <time>2019-03-03T10:34:54Z</time>
      </trkpt>
      <trkpt lat="40.78531" lon="-4.26725">
        <ele>1121.0</ele>
        <time>2019-03-03T10:34:56Z</time>
      </trkpt>
      <trkpt lat="40.78543" lon="-4.26727">
        <ele>1121.0</ele>
        <time>2019-03-03T10:34:58Z</time>
      </trkpt>
      <trkpt lat="40.78553" lon="-4.26727">
        <ele>1120.0</ele>
        <time>2019-03-03T10:35:00Z</time>
      </trkpt>
      <trkpt lat="40.78562" lon="-4.26727">
        <ele>1120.0</ele>
        <time>2019-03-03T10:35:02Z</time>
      </trkpt>
      <trkpt lat="40.78571" lon="-4.26726">
        <ele>1120.0</ele>
        <time>2019-03-03T10:35:04Z</time>
      </trkpt>
      <trkpt lat="40.7858" lon="-4.26728">
        <ele>1118.0</ele>
        <time>2019-03-03T10:35:06Z</time>
      </trkpt>
      <trkpt lat="40.78589" lon="-4.26731">
        <ele>1117.0</ele>
        <time>2019-03-03T10:35:08Z</time>
      </trkpt>
      <trkpt lat="40.78599" lon="-4.26735">
        <ele>1116.0</ele>
        <time>2019-03-03T10:35:10Z</time>
      </trkpt>
      <trkpt lat="40.78609" lon="-4.26743">
        <ele>1116.0</ele>
        <time>2019-03-03T10:35:12Z</time>
      </trkpt>
      <trkpt lat="40.78618" lon="-4.26751">
        <ele>1115.0</ele>
        <time>2019-03-03T10:35:14Z</time>
      </trkpt>
      <trkpt lat="40.78628" lon="-4.26762">
        <ele>1114.0</ele>
        <time>2019-03-03T10:35:16Z</time>
      </trkpt>
      <trkpt lat="40.78636" lon="-4.26776">
        <ele>1113.0</ele>
        <time>2019-03-03T10:35:18Z</time>
      </trkpt>
      <trkpt lat="40.78646" lon="-4.26787">
        <ele>1112.0</ele>
        <time>2019-03-03T10:35:20Z</time>
      </trkpt>
      <trkpt lat="40.78657" lon="-4.26795">
        <ele>1110.0</ele>
        <time>2019-03-03T10:35:22Z</time>
      </trkpt>
      <trkpt lat="40.78669" lon="-4.26798">
        <ele>1109.0</ele>
        <time>2019-03-03T10:35:24Z</time>
      </trkpt>
      <trkpt lat="40.78682" lon="-4.26799">
        <ele>1106.0</ele>
        <time>2019-03-03T10:35:26Z</time>
      </trkpt>
      <trkpt lat="40.78693" lon="-4.26803">
        <ele>1104.0</ele>
        <time>2019-03-03T10:35:28Z</time>
      </trkpt>
      <trkpt lat="40.78701" lon="-4.26809">
        <ele>1102.0</ele>
        <time>2019-03-03T10:35:30Z</time>
      </trkpt>
      <trkpt lat="40.78705" lon="-4.26818">
        <ele>1101.0</ele>
        <time>2019-03-03T10:35:32Z</time>
      </trkpt>
      <trkpt lat="40.78705" lon="-4.26828">
        <ele>1101.0</ele>
        <time>2019-03-03T10:35:34Z</time>
      </trkpt>
      <trkpt lat="40.78703" lon="-4.26842">
        <ele>1099.0</ele>
        <time>2019-03-03T10:35:36Z</time>
      </trkpt>
      <trkpt lat="40.78703" lon="-4.26852">
        <ele>1098.0</ele>
        <time>2019-03-03T10:35:37Z</time>
      </trkpt>
      <trkpt lat="40.78703" lon="-4.26863">
        <ele>1097.0</ele>
        <time>2019-03-03T10:35:38Z</time>
      </trkpt>
      <trkpt lat="40.78703" lon="-4.26873">
        <ele>1095.0</ele>
        <time>2019-03-03T10:35:39Z</time>
      </trkpt>
      <trkpt lat="40.78702" lon="-4.26885">
        <ele>1093.0</ele>
        <time>2019-03-03T10:35:40Z</time>
      </trkpt>
      <trkpt lat="40.78702" lon="-4.26896">
        <ele>1091.0</ele>
        <time>2019-03-03T10:35:41Z</time>
      </trkpt>
      <trkpt lat="40.78702" lon="-4.26909">
        <ele>1089.0</ele>
        <time>2019-03-03T10:35:42Z</time>
      </trkpt>
      <trkpt lat="40.78703" lon="-4.2692">
        <ele>1088.0</ele>
        <time>2019-03-03T10:35:43Z</time>
      </trkpt>
      <trkpt lat="40.78704" lon="-4.26932">
        <ele>1088.0</ele>
        <time>2019-03-03T10:35:44Z</time>
      </trkpt>
      <trkpt lat="40.78705" lon="-4.26941">
        <ele>1087.0</ele>
        <time>2019-03-03T10:35:45Z</time>
      </trkpt>
      <trkpt lat="40.78712" lon="-4.26953">
        <ele>1087.0</ele>
        <time>2019-03-03T10:35:47Z</time>
      </trkpt>
      <trkpt lat="40.78723" lon="-4.26963">
        <ele>1087.0</ele>
        <time>2019-03-03T10:35:49Z</time>
      </trkpt>
      <trkpt lat="40.78729" lon="-4.26969">
        <ele>1086.0</ele>
        <time>2019-03-03T10:35:50Z</time>
      </trkpt>
      <trkpt lat="40.78734" lon="-4.26976">
        <ele>1086.0</ele>
        <time>2019-03-03T10:35:51Z</time>
      </trkpt>
      <trkpt lat="40.78739" lon="-4.26984">
        <ele>1085.0</ele>
        <time>2019-03-03T10:35:52Z</time>
      </trkpt>
      <trkpt lat="40.78747" lon="-4.27001">
        <ele>1084.0</ele>
        <time>2019-03-03T10:35:54Z</time>
      </trkpt>
      <trkpt lat="40.78754" lon="-4.2701">
        <ele>1083.0</ele>
        <time>2019-03-03T10:35:55Z</time>
      </trkpt>
      <trkpt lat="40.78759" lon="-4.27016">
        <ele>1084.0</ele>
        <time>2019-03-03T10:35:56Z</time>
      </trkpt>
      <trkpt lat="40.78771" lon="-4.27023">
        <ele>1082.0</ele>
        <time>2019-03-03T10:35:58Z</time>
      </trkpt>
      <trkpt lat="40.78781" lon="-4.27027">
        <ele>1081.0</ele>
        <time>2019-03-03T10:36:00Z</time>
      </trkpt>
      <trkpt lat="40.78793" lon="-4.27033">
        <ele>1080.0</ele>
        <time>2019-03-03T10:36:02Z</time>
      </trkpt>
      <trkpt lat="40.78805" lon="-4.2704">
        <ele>1080.0</ele>
        <time>2019-03-03T10:36:04Z</time>
      </trkpt>
      <trkpt lat="40.78815" lon="-4.27048">
        <ele>1081.0</ele>
        <time>2019-03-03T10:36:06Z</time>
      </trkpt>
      <trkpt lat="40.78824" lon="-4.27059">
        <ele>1083.0</ele>
        <time>2019-03-03T10:36:08Z</time>
      </trkpt>
      <trkpt lat="40.78833" lon="-4.27069">
        <ele>1082.0</ele>
        <time>2019-03-03T10:36:10Z</time>
      </trkpt>
      <trkpt lat="40.78841" lon="-4.27082">
        <ele>1080.0</ele>
        <time>2019-03-03T10:36:12Z</time>
      </trkpt>
      <trkpt lat="40.78848" lon="-4.27098">
        <ele>1079.0</ele>
        <time>2019-03-03T10:36:14Z</time>
      </trkpt>
      <trkpt lat="40.78854" lon="-4.27113">
        <ele>1079.0</ele>
        <time>2019-03-03T10:36:16Z</time>
      </trkpt>
      <trkpt lat="40.78863" lon="-4.27126">
        <ele>1078.0</ele>
        <time>2019-03-03T10:36:18Z</time>
      </trkpt>
      <trkpt lat="40.78871" lon="-4.27137">
        <ele>1078.0</ele>
        <time>2019-03-03T10:36:20Z</time>
      </trkpt>
      <trkpt lat="40.78878" lon="-4.27153">
        <ele>1079.0</ele>
        <time>2019-03-03T10:36:22Z</time>
      </trkpt>
      <trkpt lat="40.78884" lon="-4.27169">
        <ele>1079.0</ele>
        <time>2019-03-03T10:36:24Z</time>
      </trkpt>
      <trkpt lat="40.78891" lon="-4.27183">
        <ele>1081.0</ele>
        <time>2019-03-03T10:36:26Z</time>
      </trkpt>
      <trkpt lat="40.78899" lon="-4.27196">
        <ele>1079.0</ele>
        <time>2019-03-03T10:36:28Z</time>
      </trkpt>
      <trkpt lat="40.78906" lon="-4.27209">
        <ele>1078.0</ele>
        <time>2019-03-03T10:36:30Z</time>
      </trkpt>
      <trkpt lat="40.78912" lon="-4.27222">
        <ele>1079.0</ele>
        <time>2019-03-03T10:36:32Z</time>
      </trkpt>
      <trkpt lat="40.7892" lon="-4.27229">
        <ele>1078.0</ele>
        <time>2019-03-03T10:36:34Z</time>
      </trkpt>
      <trkpt lat="40.78929" lon="-4.27236">
        <ele>1077.0</ele>
        <time>2019-03-03T10:36:36Z</time>
      </trkpt>
      <trkpt lat="40.78942" lon="-4.27241">
        <ele>1077.0</ele>
        <time>2019-03-03T10:36:38Z</time>
      </trkpt>
      <trkpt lat="40.78956" lon="-4.27246">
        <ele>1074.0</ele>
        <time>2019-03-03T10:36:40Z</time>
      </trkpt>
      <trkpt lat="40.78964" lon="-4.27246">
        <ele>1074.0</ele>
        <time>2019-03-03T10:36:41Z</time>
      </trkpt>
      <trkpt lat="40.78974" lon="-4.27246">
        <ele>1073.0</ele>
        <time>2019-03-03T10:36:42Z</time>
      </trkpt>
      <trkpt lat="40.78983" lon="-4.27246">
        <ele>1073.0</ele>
        <time>2019-03-03T10:36:43Z</time>
      </trkpt>
      <trkpt lat="40.78992" lon="-4.27247">
        <ele>1071.0</ele>
        <time>2019-03-03T10:36:44Z</time>
      </trkpt>
      <trkpt lat="40.79002" lon="-4.27249">
        <ele>1070.0</ele>
        <time>2019-03-03T10:36:45Z</time>
      </trkpt>
      <trkpt lat="40.79011" lon="-4.27251">
        <ele>1070.0</ele>
        <time>2019-03-03T10:36:46Z</time>
      </trkpt>
      <trkpt lat="40.79021" lon="-4.27253">
        <ele>1069.0</ele>
        <time>2019-03-03T10:36:47Z</time>
      </trkpt>
      <trkpt lat="40.7903" lon="-4.27255">
        <ele>1067.0</ele>
        <time>2019-03-03T10:36:48Z</time>
      </trkpt>
      <trkpt lat="40.79039" lon="-4.27257">
        <ele>1068.0</ele>
        <time>2019-03-03T10:36:49Z</time>
      </trkpt>
      <trkpt lat="40.79047" lon="-4.27259">
        <ele>1068.0</ele>
        <time>2019-03-03T10:36:50Z</time>
      </trkpt>
      <trkpt lat="40.79056" lon="-4.27264">
        <ele>1068.0</ele>
        <time>2019-03-03T10:36:51Z</time>
      </trkpt>
      <trkpt lat="40.79064" lon="-4.2727">
        <ele>1068.0</ele>
        <time>2019-03-03T10:36:52Z</time>
      </trkpt>
      <trkpt lat="40.7907" lon="-4.27278">
        <ele>1068.0</ele>
        <time>2019-03-03T10:36:53Z</time>
      </trkpt>
      <trkpt lat="40.79075" lon="-4.27286">
        <ele>1068.0</ele>
        <time>2019-03-03T10:36:54Z</time>
      </trkpt>
      <trkpt lat="40.79084" lon="-4.273">
        <ele>1068.0</ele>
        <time>2019-03-03T10:36:56Z</time>
      </trkpt>
      <trkpt lat="40.79088" lon="-4.27308">
        <ele>1068.0</ele>
        <time>2019-03-03T10:36:57Z</time>
      </trkpt>
      <trkpt lat="40.79094" lon="-4.27321">
        <ele>1067.0</ele>
        <time>2019-03-03T10:36:59Z</time>
      </trkpt>
      <trkpt lat="40.79101" lon="-4.27335">
        <ele>1068.0</ele>
        <time>2019-03-03T10:37:01Z</time>
      </trkpt>
      <trkpt lat="40.79108" lon="-4.27347">
        <ele>1069.0</ele>
        <time>2019-03-03T10:37:03Z</time>
      </trkpt>
      <trkpt lat="40.79114" lon="-4.27359">
        <ele>1069.0</ele>
        <time>2019-03-03T10:37:05Z</time>
      </trkpt>
      <trkpt lat="40.79121" lon="-4.27374">
        <ele>1069.0</ele>
        <time>2019-03-03T10:37:07Z</time>
      </trkpt>
      <trkpt lat="40.79129" lon="-4.2739">
        <ele>1068.0</ele>
        <time>2019-03-03T10:37:09Z</time>
      </trkpt>
      <trkpt lat="40.79133" lon="-4.27399">
        <ele>1067.0</ele>
        <time>2019-03-03T10:37:10Z</time>
      </trkpt>
      <trkpt lat="40.79141" lon="-4.27415">
        <ele>1064.0</ele>
        <time>2019-03-03T10:37:12Z</time>
      </trkpt>
      <trkpt lat="40.79149" lon="-4.2743">
        <ele>1063.0</ele>
        <time>2019-03-03T10:37:14Z</time>
      </trkpt>
      <trkpt lat="40.79156" lon="-4.27435">
        <ele>1063.0</ele>
        <time>2019-03-03T10:37:15Z</time>
      </trkpt>
      <trkpt lat="40.79162" lon="-4.27441">
        <ele>1063.0</ele>
        <time>2019-03-03T10:37:16Z</time>
      </trkpt>
      <trkpt lat="40.7917" lon="-4.27446">
        <ele>1062.0</ele>
        <time>2019-03-03T10:37:17Z</time>
      </trkpt>
      <trkpt lat="40.79178" lon="-4.2745">
        <ele>1061.0</ele>
        <time>2019-03-03T10:37:18Z</time>
      </trkpt>
      <trkpt lat="40.79186" lon="-4.27454">
        <ele>1061.0</ele>
        <time>2019-03-03T10:37:19Z</time>
      </trkpt>
      <trkpt lat="40.79193" lon="-4.27458">
        <ele>1062.0</ele>
        <time>2019-03-03T10:37:20Z</time>
      </trkpt>
      <trkpt lat="40.79199" lon="-4.27463">
        <ele>1061.0</ele>
        <time>2019-03-03T10:37:21Z</time>
      </trkpt>
      <trkpt lat="40.79204" lon="-4.27474">
        <ele>1060.0</ele>
        <time>2019-03-03T10:37:23Z</time>
      </trkpt>
      <trkpt lat="40.79211" lon="-4.2749">
        <ele>1060.0</ele>
        <time>2019-03-03T10:37:25Z</time>
      </trkpt>
      <trkpt lat="40.79216" lon="-4.27501">
        <ele>1059.0</ele>
        <time>2019-03-03T10:37:27Z</time>
      </trkpt>
      <trkpt lat="40.7922" lon="-4.27509">
        <ele>1058.0</ele>
        <time>2019-03-03T10:37:29Z</time>
      </trkpt>
      <trkpt lat="40.79227" lon="-4.2752">
        <ele>1058.0</ele>
        <time>2019-03-03T10:37:32Z</time>
      </trkpt>
      <trkpt lat="40.79236" lon="-4.27527">
        <ele>1056.0</ele>
        <time>2019-03-03T10:37:35Z</time>
      </trkpt>
      <trkpt lat="40.79244" lon="-4.27536">
        <ele>1055.0</ele>
        <time>2019-03-03T10:37:38Z</time>
      </trkpt>
      <trkpt lat="40.79253" lon="-4.27542">
        <ele>1053.0</ele>
        <time>2019-03-03T10:37:40Z</time>
      </trkpt>
      <trkpt lat="40.79262" lon="-4.27548">
        <ele>1050.0</ele>
        <time>2019-03-03T10:37:42Z</time>
      </trkpt>
      <trkpt lat="40.7927" lon="-4.27554">
        <ele>1048.0</ele>
        <time>2019-03-03T10:37:44Z</time>
      </trkpt>
      <trkpt lat="40.79278" lon="-4.27561">
        <ele>1046.0</ele>
        <time>2019-03-03T10:37:46Z</time>
      </trkpt>
      <trkpt lat="40.79286" lon="-4.27568">
        <ele>1045.0</ele>
        <time>2019-03-03T10:37:48Z</time>
      </trkpt>
      <trkpt lat="40.79296" lon="-4.27577">
        <ele>1044.0</ele>
        <time>2019-03-03T10:37:50Z</time>
      </trkpt>
      <trkpt lat="40.79307" lon="-4.27585">
        <ele>1042.0</ele>
        <time>2019-03-03T10:37:52Z</time>
      </trkpt>
      <trkpt lat="40.79316" lon="-4.27592">
        <ele>1040.0</ele>
        <time>2019-03-03T10:37:54Z</time>
      </trkpt>
      <trkpt lat="40.79324" lon="-4.27596">
        <ele>1039.0</ele>
        <time>2019-03-03T10:37:55Z</time>
      </trkpt>
      <trkpt lat="40.79331" lon="-4.27601">
        <ele>1037.0</ele>
        <time>2019-03-03T10:37:56Z</time>
      </trkpt>
      <trkpt lat="40.79339" lon="-4.27605">
        <ele>1036.0</ele>
        <time>2019-03-03T10:37:57Z</time>
      </trkpt>
      <trkpt lat="40.79347" lon="-4.27611">
        <ele>1034.0</ele>
        <time>2019-03-03T10:37:58Z</time>
      </trkpt>
      <trkpt lat="40.79355" lon="-4.27617">
        <ele>1033.0</ele>
        <time>2019-03-03T10:37:59Z</time>
      </trkpt>
      <trkpt lat="40.79363" lon="-4.27621">
        <ele>1032.0</ele>
        <time>2019-03-03T10:38:00Z</time>
      </trkpt>
      <trkpt lat="40.7937" lon="-4.27625">
        <ele>1032.0</ele>
        <time>2019-03-03T10:38:01Z</time>
      </trkpt>
      <trkpt lat="40.79382" lon="-4.27632">
        <ele>1043.0</ele>
        <time>2019-03-03T10:38:03Z</time>
      </trkpt>
      <trkpt lat="40.79388" lon="-4.27642">
        <ele>1036.0</ele>
        <time>2019-03-03T10:38:05Z</time>
      </trkpt>
      <trkpt lat="40.79389" lon="-4.2766">
        <ele>1032.0</ele>
        <time>2019-03-03T10:38:07Z</time>
      </trkpt>
      <trkpt lat="40.79391" lon="-4.27679">
        <ele>1032.0</ele>
        <time>2019-03-03T10:38:09Z</time>
      </trkpt>
      <trkpt lat="40.79392" lon="-4.2769">
        <ele>1031.0</ele>
        <time>2019-03-03T10:38:10Z</time>
      </trkpt>
      <trkpt lat="40.79391" lon="-4.27704">
        <ele>1028.0</ele>
        <time>2019-03-03T10:38:12Z</time>
      </trkpt>
      <trkpt lat="40.79393" lon="-4.27719">
        <ele>1026.0</ele>
        <time>2019-03-03T10:38:14Z</time>
      </trkpt>
      <trkpt lat="40.79396" lon="-4.27734">
        <ele>1025.0</ele>
        <time>2019-03-03T10:38:16Z</time>
      </trkpt>
      <trkpt lat="40.79403" lon="-4.27746">
        <ele>1026.0</ele>
        <time>2019-03-03T10:38:18Z</time>
      </trkpt>
      <trkpt lat="40.7941" lon="-4.2775">
        <ele>1027.0</ele>
        <time>2019-03-03T10:38:19Z</time>
      </trkpt>
      <trkpt lat="40.79423" lon="-4.27754">
        <ele>1027.0</ele>
        <time>2019-03-03T10:38:21Z</time>
      </trkpt>
      <trkpt lat="40.79436" lon="-4.27756">
        <ele>1027.0</ele>
        <time>2019-03-03T10:38:23Z</time>
      </trkpt>
      <trkpt lat="40.79446" lon="-4.27755">
        <ele>1026.0</ele>
        <time>2019-03-03T10:38:25Z</time>
      </trkpt>
      <trkpt lat="40.79455" lon="-4.27754">
        <ele>1026.0</ele>
        <time>2019-03-03T10:38:27Z</time>
      </trkpt>
      <trkpt lat="40.79464" lon="-4.27751">
        <ele>1027.0</ele>
        <time>2019-03-03T10:38:30Z</time>
      </trkpt>
      <trkpt lat="40.79467" lon="-4.27741">
        <ele>1026.0</ele>
        <time>2019-03-03T10:38:34Z</time>
      </trkpt>
      <trkpt lat="40.79471" lon="-4.27732">
        <ele>1025.0</ele>
        <time>2019-03-03T10:38:36Z</time>
      </trkpt>
    </trkseg>
  </trk>
</gpx>
